[[{"header":{"parameterUnit":"m.s-1","parameterCategory":1,"la1":30.6,"la2":29.2853,"lo1":-89.7004,"lo2":-87.6739,"dy":0.0162,"dx":0.0183,"nx":112,"ny":82,"refTime":"2023-03-19T18:00:00:Z","depth":0,"parameterNumber":2,"parameterNumberName":"U-component_of_WINDS"},"data":[0.0,0.0,0.0,0.0,0.0,0.0,0.0,0.0,0.0,0.0,0.0,0.0,0.0,0.0,0.0,0.0,0.0,0.0,0.0,0.0,0.0,0.0,0.0,0.0,0.0,0.0,0.0,0.0,0.0,0.0,0.0,0.0,0.0,0.0,0.0,0.0,0.0,0.0,0.0,0.0,0.0,0.0,0.0,0.0,0.0,0.0,0.0,0.0,0.0,0.0,0.0,0.0,0.0,0.0,0.0,0.0,0.0,0.0,0.0,0.0,0.0,0.0,0.0,0.0,0.0,0.0,0.0,0.0,0.0,0.0,0.0,0.0,0.0,0.0,0.0,0.0,0.0,0.0,0.0,0.0,0.0,0.0,0.0,0.0,0.0,0.0,0.0,0.0,0.0,0.0,0.0,3.3499,3.7474,4.063,4.2079,4.1171,3.9009,3.5396,0.0,0.0,0.0,0.0,0.0,0.0,0.0,0.0,0.0,0.0,0.0,0.0,0.0,0.0,0.0,0.0,0.0,0.0,0.0,0.0,0.0,0.0,0.0,0.0,0.0,0.0,0.0,0.0,0.0,0.0,0.0,0.0,0.0,0.0,0.0,0.0,0.0,0.0,0.0,0.0,0.0,0.0,0.0,0.0,0.0,0.0,0.0,0.0,0.0,0.0,0.0,0.0,0.0,0.0,0.0,0.0,0.0,0.0,0.0,0.0,0.0,0.0,0.0,0.0,0.0,0.0,0.0,0.0,0.0,0.0,0.0,0.0,0.0,0.0,0.0,0.0,0.0,0.0,0.0,0.0,0.0,0.0,0.0,0.0,0.0,0.0,0.0,0.0,0.0,0.0,0.0,0.0,0.0,0.0,0.0,0.0,0.0,0.0,0.0,0.0,0.0,0.0,0.0,0.0,3.2749,3.6266,3.8311,4.0061,4.1583,3.9717,3.7855,3.643,0.0,0.0,0.0,0.0,0.0,0.0,0.0,0.0,0.0,0.0,0.0,0.0,0.0,0.0,0.0,0.0,0.0,0.0,0.0,0.0,0.0,0.0,0.0,0.0,0.0,0.0,0.0,0.0,0.0,0.0,0.0,0.0,0.0,0.0,0.0,0.0,0.0,0.0,0.0,0.0,0.0,0.0,0.0,0.0,0.0,0.0,0.0,0.0,0.0,0.0,0.0,0.0,0.0,0.0,0.0,0.0,0.0,0.0,0.0,0.0,0.0,0.0,0.0,0.0,0.0,0.0,0.0,0.0,0.0,0.0,0.0,0.0,0.0,0.0,0.0,0.0,0.0,0.0,0.0,0.0,0.0,0.0,0.0,0.0,0.0,0.0,0.0,0.0,0.0,0.0,0.0,0.0,0.0,0.0,0.0,0.0,0.0,0.0,0.0,0.0,0.0,0.0,0.0,3.1335,3.3607,3.7473,3.8964,4.0023,4.0822,3.9219,3.7506,3.5996,3.4356,0.0,0.0,0.0,0.0,0.0,0.0,0.0,0.0,0.0,0.0,0.0,0.0,0.0,0.0,0.0,0.0,0.0,0.0,0.0,0.0,0.0,0.0,0.0,0.0,0.0,0.0,0.0,0.0,0.0,0.0,0.0,0.0,0.0,0.0,0.0,0.0,0.0,0.0,0.0,0.0,0.0,0.0,0.0,0.0,0.0,0.0,0.0,0.0,0.0,0.0,0.0,0.0,0.0,0.0,0.0,0.0,0.0,0.0,0.0,0.0,0.0,0.0,0.0,0.0,0.0,0.0,0.0,0.0,0.0,0.0,0.0,0.0,0.0,0.0,0.0,0.0,0.0,0.0,0.0,0.0,0.0,0.0,0.0,0.0,0.0,0.0,0.0,0.0,0.0,0.0,0.0,0.0,0.0,0.0,0.0,0.0,0.0,0.0,0.0,0.0,0.0,0.0,3.2806,3.4303,3.7544,3.8826,3.9614,4.0077,3.8634,3.7046,3.5504,3.3402,0.0,0.0,0.0,0.0,0.0,0.0,0.0,0.0,0.0,0.0,0.0,0.0,0.0,0.0,0.0,0.0,0.0,0.0,0.0,0.0,0.0,0.0,0.0,0.0,0.0,0.0,0.0,0.0,0.0,0.0,0.0,0.0,0.0,0.0,0.0,0.0,0.0,0.0,0.0,0.0,0.0,0.0,0.0,0.0,0.0,0.0,0.0,0.0,0.0,0.0,0.0,0.0,0.0,0.0,0.0,0.0,0.0,0.0,0.0,0.0,0.0,0.0,0.0,0.0,0.0,0.0,0.0,0.0,0.0,0.0,0.0,0.0,0.0,0.0,0.0,0.0,0.0,0.0,0.0,0.0,0.0,0.0,0.0,0.0,0.0,0.0,0.0,0.0,0.0,0.0,0.0,0.0,0.0,0.0,0.0,0.0,0.0,0.0,0.0,0.0,0.0,0.0,3.2423,3.4285,3.6239,3.7173,3.8216,3.9549,3.7335,3.5846,3.5781,3.3014,0.0,0.0,0.0,0.0,0.0,0.0,0.0,0.0,0.0,0.0,0.0,0.0,0.0,0.0,0.0,0.0,0.0,0.0,0.0,0.0,0.0,0.0,0.0,0.0,0.0,0.0,0.0,0.0,0.0,0.0,0.0,0.0,0.0,0.0,0.0,0.0,0.0,0.0,0.0,0.0,0.0,0.0,0.0,0.0,0.0,0.0,0.0,0.0,0.0,0.0,0.0,0.0,0.0,0.0,0.0,0.0,0.0,0.0,0.0,0.0,0.0,0.0,0.0,0.0,0.0,0.0,0.0,0.0,0.0,0.0,0.0,0.0,0.0,0.0,0.0,0.0,0.0,0.0,0.0,0.0,0.0,0.0,0.0,0.0,0.0,0.0,0.0,0.0,0.0,0.0,0.0,0.0,0.0,0.0,0.0,0.0,0.0,0.0,0.0,0.0,0.0,0.0,3.2036,3.3875,0.0,3.7071,3.7891,3.8714,3.7501,3.6206,3.5061,0.0,0.0,0.0,0.0,0.0,0.0,0.0,0.0,0.0,0.0,0.0,0.0,0.0,0.0,0.0,0.0,0.0,0.0,0.0,0.0,0.0,0.0,0.0,0.0,0.0,0.0,0.0,0.0,0.0,0.0,0.0,0.0,0.0,0.0,0.0,0.0,0.0,0.0,0.0,0.0,0.0,0.0,0.0,0.0,0.0,0.0,0.0,0.0,0.0,0.0,0.0,0.0,0.0,0.0,0.0,0.0,0.0,0.0,0.0,0.0,0.0,0.0,0.0,0.0,0.0,0.0,0.0,0.0,0.0,0.0,0.0,0.0,0.0,0.0,0.0,0.0,0.0,0.0,0.0,0.0,0.0,0.0,0.0,0.0,0.0,0.0,0.0,0.0,0.0,0.0,0.0,0.0,0.0,0.0,0.0,0.0,0.0,0.0,0.0,0.0,0.0,0.0,2.9829,3.137,3.31,0.0,3.6293,3.7102,3.783,3.6999,3.5908,3.4642,0.0,0.0,0.0,0.0,0.0,0.0,0.0,0.0,0.0,0.0,0.0,0.0,0.0,0.0,0.0,0.0,0.0,0.0,0.0,0.0,0.0,0.0,0.0,0.0,0.0,0.0,0.0,0.0,0.0,0.0,0.0,0.0,0.0,0.0,0.0,0.0,0.0,0.0,0.0,0.0,0.0,0.0,0.0,0.0,0.0,0.0,0.0,0.0,0.0,0.0,0.0,0.0,0.0,0.0,0.0,0.0,0.0,0.0,0.0,0.0,0.0,0.0,0.0,0.0,0.0,0.0,0.0,0.0,0.0,0.0,0.0,0.0,0.0,0.0,0.0,0.0,0.0,0.0,0.0,0.0,0.0,0.0,0.0,0.0,0.0,0.0,0.0,0.0,0.0,0.0,0.0,0.0,0.0,0.0,0.0,0.0,0.0,0.0,0.0,0.0,0.0,0.0,2.8932,3.0414,3.1995,3.3734,3.4623,3.5618,3.6878,3.5516,3.4613,0.0,0.0,0.0,0.0,0.0,0.0,0.0,0.0,0.0,0.0,0.0,0.0,0.0,0.0,0.0,0.0,0.0,0.0,0.0,0.0,0.0,0.0,0.0,0.0,0.0,0.0,0.0,0.0,0.0,0.0,0.0,0.0,0.0,0.0,0.0,0.0,0.0,0.0,0.0,0.0,0.0,0.0,0.0,0.0,0.0,0.0,0.0,0.0,0.0,0.0,0.0,0.0,0.0,0.0,0.0,0.0,0.0,0.0,0.0,0.0,0.0,0.0,0.0,0.0,0.0,0.0,0.0,0.0,0.0,0.0,0.0,0.0,0.0,0.0,0.0,0.0,0.0,0.0,0.0,0.0,0.0,0.0,0.0,0.0,0.0,0.0,0.0,0.0,0.0,0.0,0.0,0.0,0.0,0.0,0.0,0.0,0.0,0.0,0.0,0.0,0.0,0.0,0.0,2.9036,3.1054,3.2798,3.379,3.4623,3.5374,3.6034,3.5229,3.4389,3.3751,0.0,0.0,0.0,0.0,0.0,0.0,0.0,0.0,0.0,0.0,0.0,0.0,0.0,0.0,0.0,0.0,0.0,0.0,0.0,0.0,0.0,0.0,0.0,0.0,0.0,0.0,0.0,0.0,0.0,0.0,0.0,0.0,0.0,0.0,0.0,0.0,0.0,0.0,0.0,0.0,0.0,0.0,0.0,0.0,0.0,0.0,0.0,0.0,0.0,0.0,0.0,0.0,0.0,0.0,0.0,0.0,0.0,0.0,0.0,0.0,0.0,0.0,0.0,0.0,0.0,0.0,0.0,0.0,0.0,0.0,0.0,0.0,0.0,0.0,0.0,0.0,0.0,0.0,0.0,0.0,0.0,0.0,0.0,0.0,0.0,0.0,0.0,0.0,0.0,0.0,0.0,0.0,0.0,0.0,0.0,0.0,0.0,0.0,0.0,0.0,0.0,0.0,2.9144,3.1114,3.2861,3.3942,3.4661,3.5218,3.5668,3.5386,3.4652,3.3414,0.0,0.0,0.0,0.0,0.0,0.0,0.0,0.0,0.0,0.0,0.0,0.0,0.0,0.0,0.0,0.0,0.0,0.0,0.0,0.0,0.0,0.0,0.0,0.0,0.0,0.0,0.0,0.0,0.0,0.0,0.0,0.0,0.0,0.0,0.0,0.0,0.0,0.0,0.0,0.0,0.0,0.0,0.0,0.0,0.0,0.0,0.0,0.0,0.0,0.0,0.0,0.0,0.0,0.0,0.0,0.0,0.0,0.0,0.0,0.0,0.0,0.0,0.0,0.0,0.0,0.0,0.0,0.0,0.0,0.0,0.0,0.0,0.0,0.0,0.0,0.0,0.0,0.0,0.0,0.0,0.0,0.0,0.0,0.0,0.0,0.0,0.0,0.0,0.0,0.0,0.0,0.0,0.0,0.0,0.0,0.0,0.0,0.0,0.0,0.0,0.0,0.0,2.9264,3.0885,3.2538,3.4143,3.4718,3.5196,3.5669,3.576,3.5104,3.348,0.0,0.0,0.0,0.0,0.0,0.0,0.0,0.0,0.0,0.0,0.0,0.0,0.0,0.0,0.0,0.0,0.0,0.0,0.0,0.0,0.0,0.0,0.0,0.0,0.0,0.0,0.0,0.0,0.0,0.0,0.0,0.0,0.0,0.0,0.0,0.0,0.0,0.0,0.0,0.0,0.0,0.0,0.0,0.0,0.0,0.0,0.0,0.0,0.0,0.0,0.0,0.0,0.0,0.0,0.0,0.0,0.0,0.0,0.0,0.0,1.1726,0.0,0.0,0.0,0.0,0.0,0.0,0.0,0.0,0.0,0.0,0.0,0.0,0.0,0.0,0.0,0.0,0.0,0.0,0.0,0.0,0.0,0.0,0.0,0.0,0.0,0.0,0.0,0.0,0.0,0.0,0.0,0.0,0.0,0.0,0.0,0.0,0.0,0.0,0.0,0.0,0.0,2.9485,3.1555,3.3332,3.4267,3.4808,3.5264,3.5648,3.5243,3.4491,3.3395,0.0,0.0,0.0,0.0,0.0,0.0,0.0,0.0,0.0,0.0,0.0,0.0,0.0,0.0,0.0,0.0,0.0,0.0,0.0,0.0,0.0,0.0,0.0,0.0,0.0,0.0,0.0,0.0,0.0,0.0,0.0,0.0,0.0,0.0,0.0,0.0,0.0,0.0,0.0,0.0,0.0,0.0,0.0,0.0,0.0,0.0,0.0,0.0,0.0,0.0,0.0,0.0,0.0,0.0,0.0,0.0,0.0,0.0,0.0,0.0,0.0,0.901,0.0,0.0,0.0,0.0,0.0,0.0,0.0,0.0,0.0,0.0,0.0,0.0,0.0,0.0,0.0,0.0,0.0,0.0,0.0,0.0,0.0,0.0,0.0,0.0,0.0,0.0,0.0,0.0,0.0,0.0,0.0,0.0,0.0,0.0,0.0,0.0,0.0,0.0,0.0,0.0,3.0448,3.2163,3.3616,3.4513,3.4899,3.5245,3.5659,3.5451,3.4892,3.4039,3.3448,0.0,0.0,0.0,0.0,0.0,0.0,0.0,0.0,0.0,0.0,0.0,0.0,0.0,0.0,0.0,0.0,0.0,0.0,0.0,0.0,0.0,0.0,0.0,0.0,0.0,0.0,0.0,0.0,0.0,0.0,0.0,0.0,0.0,0.0,0.0,0.0,0.0,0.0,0.0,0.0,0.0,0.0,0.0,0.0,0.0,0.0,0.0,0.0,0.0,0.0,0.0,0.0,0.0,0.0,0.0199,0.0736,0.0685,-0.0346,-0.1997,0.0197,0.2323,0.4301,0.0,0.0,0.0,0.0,0.0,0.0,0.0,0.0,0.0,0.0,0.0,0.0,0.0,0.0,0.0,0.0,0.0,0.0,0.0,0.0,0.0,0.0,0.0,0.0,0.0,2.6349,2.7192,0.0,0.0,0.0,0.0,0.0,0.0,0.0,0.0,0.0,0.0,0.0,0.0,3.1303,3.2523,3.3688,3.4694,3.4986,3.5258,3.5669,3.5821,3.5574,3.4744,3.4581,3.3634,0.0,0.0,0.0,0.0,0.0,0.0,0.0,0.0,0.0,0.0,0.0,0.0,0.0,0.0,0.0,0.0,0.0,0.0,0.0,0.0,0.0,0.0,0.0,0.0,0.0,0.0,0.0,0.0,0.0,0.0,0.0,0.0,-0.9845,-1.0182,0.0,0.0,0.0,0.0,0.0,0.0,0.0,0.0,0.0,0.0,0.0,0.0,0.0,0.0,-1.0919,-0.967,-0.837,-0.6981,-0.4643,-0.3132,-0.2323,-0.3069,-0.4281,-0.5828,-0.8168,0.0,-0.1947,-0.1166,0.0,0.0,0.0,0.0,0.0,0.0,0.0,0.0,0.0,0.0,0.0,0.0,0.0,0.0,0.0,0.0,0.0,0.0,0.0,0.0,0.0,0.0,2.5486,2.5558,2.5689,2.5749,0.0,2.6227,2.6979,2.774,0.0,0.0,0.0,0.0,0.0,0.0,0.0,0.0,3.0844,3.2314,3.3715,3.4773,3.5012,3.5263,3.5676,3.5877,3.5619,3.4747,3.4622,3.3793,3.2013,3.1757,0.0,0.0,0.0,0.0,0.0,0.0,0.0,0.0,0.0,0.0,0.0,0.0,0.0,0.0,0.0,0.0,0.0,0.0,0.0,0.0,0.0,0.0,0.0,0.0,0.0,0.0,0.0,0.0,0.0,-1.0625,-1.2854,-1.3119,-1.2785,-1.2225,0.0,0.0,0.0,0.0,0.0,0.0,0.0,0.0,0.0,-1.1667,-1.1744,-1.1836,-1.1963,-1.1196,-1.035,-0.9291,-0.7957,-0.6809,-0.5922,-0.6306,-0.7377,-0.9045,-1.0682,-1.1175,-1.0705,-0.9,-0.5982,-0.2194,0.0,0.0,0.0,0.0,0.0,1.5057,1.5512,0.0,0.0,0.0,0.0,0.0,0.0,0.0,0.0,0.0,0.0,0.0,0.0,0.0,0.0,2.4273,2.4561,2.4957,2.4545,2.4507,2.4996,0.0,2.6428,2.6256,2.6809,0.0,0.0,0.0,0.0,0.0,3.1546,3.2653,3.3715,3.4773,3.4986,3.5226,3.5657,3.5817,3.5769,3.5442,3.5333,3.4675,3.3349,3.2779,3.1987,0.0,0.0,0.0,0.0,0.0,0.0,0.0,0.0,0.0,0.0,0.0,0.0,0.0,0.0,0.0,0.0,0.0,0.0,0.0,0.0,0.0,0.0,0.0,0.0,0.0,0.0,0.0,0.0,-1.331,-1.5148,-1.5196,-1.5527,-1.5067,0.0,0.0,0.0,0.0,0.0,0.0,-1.2165,-1.1796,-1.1867,-1.2476,-1.2491,-1.2535,-1.2643,-1.2308,-1.1783,-1.1119,-1.0396,-0.9531,-0.8641,-0.8732,-0.9526,-1.0859,-1.185,-1.3835,-1.6233,-1.4974,-1.1711,-0.7239,-0.3437,0.1239,0.6173,0.9372,1.1274,1.2229,1.2157,1.2858,1.3578,1.2767,0.0,1.7494,1.8226,0.0,0.0,0.0,0.0,2.3588,2.3305,0.0,2.4024,2.2473,2.2931,2.3481,2.2642,2.2396,2.3051,0.0,2.5551,2.5756,2.6852,0.0,0.0,0.0,0.0,3.0029,3.1856,3.2428,3.3238,3.4735,3.4785,3.4979,3.5638,3.5758,3.5854,3.5991,3.5903,3.5408,3.4419,3.3584,3.2638,3.1546,0.0,0.0,0.0,0.0,0.0,0.0,0.0,0.0,0.0,0.0,0.0,0.0,0.0,0.0,0.0,0.0,0.0,0.0,0.0,0.0,0.0,0.0,0.0,0.0,0.0,0.0,0.0,0.0,0.0,-1.6373,-1.7716,0.0,0.0,0.0,0.0,-1.3416,-1.3147,-1.2951,-1.2964,-1.2595,-1.2572,-1.2936,-1.2958,-1.2972,-1.2987,-1.2987,-1.2846,-1.2572,-1.1368,-1.0395,-0.983,-1.0237,-1.0441,-1.0722,-1.2869,-1.4343,-1.5276,-1.6839,-1.5837,-1.2927,-0.8639,-0.3992,0.0827,0.5294,0.6904,0.7021,0.8159,0.8292,0.8104,0.918,1.2438,1.6565,1.9464,2.1346,0.0,0.0,2.2525,2.1901,2.1643,2.114,2.0599,2.0218,2.0478,2.0484,1.9314,1.9766,2.1482,0.0,2.4951,2.4885,2.6513,0.0,2.7205,2.8285,2.8939,2.9772,3.1101,3.1111,3.2015,3.4623,3.4287,3.4359,3.5599,3.5758,3.5868,3.5994,3.5989,3.5576,3.4627,3.3749,3.2843,3.1883,3.0868,0.0,0.0,0.0,0.0,0.0,0.0,0.0,0.0,0.0,0.0,0.0,0.0,0.0,0.0,0.0,0.0,0.0,0.0,0.0,0.0,0.0,0.0,0.0,0.0,0.0,0.0,0.0,0.0,-1.7461,-1.911,0.0,0.0,-1.6496,-1.5821,-1.5614,-1.484,-1.4319,-1.4016,-1.3461,-1.2909,-1.2516,-1.2798,-1.2767,-1.222,-1.222,-1.1999,-1.1563,-1.0779,-0.9996,-0.9295,-0.9411,-0.9612,-0.9956,-1.0724,-1.1723,-1.2782,-1.3748,-1.3827,-1.3081,-0.9569,-0.5612,-0.1476,0.2134,0.4127,0.507,0.4886,0.5094,0.584,0.8233,1.1204,1.4332,1.7042,1.9252,2.0882,2.104,2.0826,2.0539,2.0482,1.9995,1.9314,1.8732,1.8721,1.8706,1.8054,1.8434,1.9575,2.1758,2.27,2.3804,2.5794,2.6129,2.6651,2.8164,2.8559,2.9263,3.0974,3.102,3.1923,3.4623,3.4147,3.4227,3.5571,3.5728,3.5802,3.5987,3.6005,3.5823,3.5454,3.4062,3.3134,3.2807,3.0804,2.9881,0.0,0.0,0.0,0.0,0.0,0.0,0.0,0.0,0.0,0.0,0.0,0.0,0.0,0.0,0.0,0.0,0.0,0.0,0.0,0.0,0.0,0.0,0.0,0.0,0.0,0.0,-1.9505,-1.8171,-2.0096,-2.0769,-1.8968,-1.7973,-1.722,-1.6951,-1.5965,-1.5153,-1.4657,-1.3848,-1.3042,-1.2239,-1.2374,-1.2103,-1.135,-1.1344,-1.1066,-1.0511,-1.0091,-0.9395,-0.8565,-0.8607,-0.863,-0.8529,-0.8914,-0.9387,-0.991,-1.0371,-1.0611,-1.0392,-0.884,-0.6043,-0.2603,0.0,0.1833,0.2979,0.2505,0.3046,0.4436,0.7279,0.9901,1.2398,1.4955,1.7252,1.9003,1.9181,1.9185,1.9087,1.8839,1.8356,1.7696,1.6953,1.706,1.7178,1.6712,1.7372,1.8338,1.9278,2.0766,2.2516,2.4505,2.507,2.5881,2.7736,2.7956,2.8757,3.1202,3.0685,3.1342,3.4566,3.3884,3.388,3.5551,3.5974,3.6093,3.6007,3.6001,3.5971,3.5932,3.4269,3.3468,3.3725,3.1173,3.0125,3.069,0.0,0.0,0.0,0.0,0.0,0.0,0.0,0.0,0.0,0.0,0.0,0.0,0.0,0.0,0.0,0.0,0.0,0.0,0.0,0.0,0.0,0.0,0.0,-1.4405,-1.7524,-1.9485,-1.8418,-2.0589,-2.1493,-1.9464,-1.8909,-1.833,-1.7397,-1.6362,-1.5471,-1.4585,-1.3673,-1.2869,-1.2155,-1.1637,-1.107,-1.0501,-1.0428,-1.0164,-0.9638,-0.9326,-0.8679,-0.7807,-0.8021,-0.7494,-0.6496,-0.7613,-0.7546,-0.6804,-0.7383,-0.6681,-0.538,-0.6775,-0.5488,-0.2664,-0.0938,0.0068,0.063,0.1189,0.2192,0.3661,0.6136,0.8539,1.0916,1.3467,1.5542,1.7047,1.752,1.7588,1.7415,1.6742,1.6173,1.5599,1.488,1.5464,1.5986,1.5302,1.652,1.7774,1.7842,1.9333,2.1061,2.2676,2.3763,2.5048,2.6901,2.7135,0.0,3.1679,3.0033,3.0171,3.4415,3.3428,3.334,3.5512,3.6487,3.669,3.6046,3.5971,3.5971,3.5991,3.4324,3.3756,3.4516,3.2008,3.0703,3.0709,0.0,0.0,0.0,0.0,0.0,0.0,0.0,0.0,0.0,0.0,0.0,0.0,0.0,0.0,0.0,0.0,0.0,0.0,0.0,0.0,0.0,0.0,-1.6422,-1.6254,-1.8499,-1.996,-1.9468,-2.0526,-2.0873,-2.0039,-1.9294,-1.862,-1.7777,-1.6747,-1.5485,-1.4,-1.3307,-1.2255,-1.0709,-1.0716,-1.0378,-0.9639,-0.9091,-0.8565,-0.8043,-0.7073,-0.6358,-0.587,-0.5724,-0.5564,-0.5431,-0.5562,-0.5448,-0.5211,-0.5373,-0.4637,-0.3463,-0.4528,-0.3939,-0.2344,-0.0872,0.0472,0.1696,0.3046,0.404,0.5145,0.7461,0.9464,1.1304,1.3035,1.4771,1.6148,1.6284,1.6539,1.6704,1.6151,1.5718,1.5389,1.5242,1.5234,1.5474,1.6343,1.6931,1.7581,1.8553,1.938,2.0458,2.2052,2.3552,2.4921,2.6196,0.0,0.0,3.0161,2.9878,3.0636,3.3695,3.3615,3.4002,3.5624,3.5978,3.6099,0.0,3.5408,3.5349,3.5971,3.4329,3.3216,3.2797,3.1412,3.069,0.0,0.0,0.0,0.0,0.0,0.0,0.0,0.0,0.0,0.0,0.0,0.0,0.0,0.0,0.0,0.0,0.0,0.0,0.0,0.0,0.0,0.0,-1.5762,-1.6902,-1.7475,-1.9345,-2.0426,-1.9991,-2.0459,-2.0615,-2.0148,-1.8979,-1.8004,-1.7455,-1.6129,-1.4749,-1.3419,-1.2578,-1.1563,-1.0251,-0.9638,-0.9119,-0.856,-0.7827,-0.7237,-0.678,-0.5731,-0.5114,-0.4733,-0.4137,-0.3861,0.0,-0.3735,-0.3451,-0.3075,-0.3024,-0.235,0.0,0.0,0.0,0.0,0.0,0.1806,0.3261,0.4469,0.5612,0.6883,0.8597,1.0294,1.1879,1.3151,1.4575,1.5729,1.5784,1.602,1.6107,1.5623,1.54,1.5266,1.5164,1.5299,1.5764,1.6857,1.7409,1.8013,1.9095,0.0,0.0,2.1633,2.3108,2.4562,2.5822,2.6573,2.79,0.0,2.9888,3.052,3.3847,3.3577,3.3857,3.5563,3.6071,0.0,0.0,0.0,3.4608,3.4374,3.4086,0.0,0.0,0.0,3.106,0.0,0.0,0.0,0.0,3.0407,3.0285,0.0,0.0,0.0,0.0,0.0,0.0,0.0,0.0,0.0,0.0,0.0,0.0,0.0,0.0,0.0,0.0,-1.6285,-1.6766,-1.8196,-1.97,-2.0382,-1.9673,-2.001,-2.0041,-1.9492,-1.7952,-1.6874,-1.6329,-1.4751,-1.345,-1.2485,0.0,0.0,0.0,0.0,-0.7502,-0.7256,-0.6527,-0.5935,-0.5536,-0.48,-0.4341,-0.398,-0.2885,-0.2234,-0.1939,-0.1984,-0.1536,-0.0762,-0.0554,0.0,0.0676,-0.0888,-0.0707,0.0582,0.2117,0.3713,0.0,0.0,0.0,0.0,0.9714,1.1074,1.2498,1.3751,1.4799,1.5623,1.5844,1.5832,1.57,1.5277,1.522,1.5209,1.4926,1.5632,1.6544,1.7107,1.7987,1.8831,1.9522,2.0311,2.099,2.1324,2.2671,2.4182,2.5572,2.6505,0.0,3.139,2.9961,3.0152,3.4074,0.0,0.0,3.516,3.626,3.6506,3.5655,3.4944,3.3812,3.2174,3.3586,3.3688,3.2148,3.1942,3.1475,3.0704,3.0636,3.054,3.0443,3.0283,3.0253,0.0,0.0,0.0,0.0,0.0,0.0,0.0,0.0,0.0,0.0,0.0,0.0,0.0,0.0,0.0,-1.6814,-1.7016,-1.7503,-1.8778,-1.7796,-1.7221,-1.773,-1.7261,-1.6838,-1.6503,-1.5875,-1.4974,-1.3995,-1.3229,-1.1978,-0.9963,-0.9319,0.0,-0.755,-0.6949,-0.6358,-0.5723,-0.5064,-0.427,-0.3469,0.0,0.0,-0.2317,-0.1155,-0.0683,-0.082,0.0059,0.0465,0.0562,0.1075,0.1928,0.2816,0.1897,0.2395,0.3685,0.4335,0.5452,0.6742,0.7871,0.8652,0.9479,1.1276,1.2346,1.3163,1.4786,1.5437,0.0,1.6207,1.6107,1.5788,1.5712,1.5522,1.5478,1.5764,1.6391,1.7203,1.804,1.8855,1.9522,1.9984,2.0697,2.1214,2.1309,2.2944,2.4433,2.5013,2.6454,2.7912,2.9156,2.9544,3.0309,3.1832,3.287,3.3502,3.3577,3.5083,3.5392,3.3907,3.371,3.3182,3.2146,3.2417,3.2473,3.2187,3.1376,3.0873,3.0693,3.0637,3.0248,2.955,2.9992,3.0177,0.0,0.0,0.0,0.0,0.0,0.0,0.0,0.0,0.0,0.0,0.0,-1.294,0.0,0.0,-1.4748,-1.5922,-1.5705,-1.5469,-1.5676,-1.4689,-1.4531,-1.6126,-1.5325,-1.4476,-1.4149,-1.3336,-1.2485,-1.1739,-1.101,-0.9728,-0.7978,-0.7541,-0.6865,-0.5907,-0.5166,-0.4635,-0.424,-0.3245,-0.2469,-0.2002,-0.0935,-0.0458,-0.044,0.0777,0.1384,0.1461,0.1873,0.2402,0.3074,0.3696,0.4492,0.5299,0.4959,0.5003,0.5257,0.5817,0.6908,0.8127,0.8915,0.977,1.0798,1.2172,1.3086,1.3899,1.5062,1.568,1.5957,1.6349,1.6163,1.5788,1.5788,1.5776,1.5808,1.6027,1.6786,1.7706,1.8574,1.9177,1.9844,2.0581,2.1039,2.1454,2.2017,2.3505,2.4658,2.4907,2.6368,2.7865,2.9185,2.9387,3.0039,3.1732,3.2241,3.2783,3.3569,3.4544,3.4419,3.2806,3.3139,3.2812,3.1503,3.1875,3.1717,3.0916,3.033,2.9836,2.9397,2.9328,2.9093,2.8664,2.9022,2.9148,0.0,0.0,0.0,0.0,0.0,0.0,0.0,0.0,-1.1814,-1.3003,-1.306,-1.3466,-1.5095,-1.4315,-1.3652,-1.4536,-1.3857,-1.3063,-1.226,-1.1554,-1.1764,-1.349,-1.2909,-1.2228,-1.1855,-1.0537,-0.9642,-0.9272,-0.8248,-0.7134,-0.5908,-0.5566,-0.5059,-0.4213,-0.3287,-0.2671,-0.2429,-0.1302,-0.0661,-0.0468,0.0731,0.1359,0.1423,0.2616,0.3457,0.3951,0.3773,0.4458,0.5762,0.6471,0.7094,0.7673,0.8063,0.7613,0.6846,0.7238,0.8255,0.9563,0.9897,1.0833,1.2048,1.2949,1.3805,1.4595,1.5254,1.578,1.6244,1.6362,1.6107,1.5832,1.592,1.6039,1.6157,1.633,1.7216,1.8238,1.8962,1.9564,2.0193,2.1103,2.134,2.1724,2.2744,2.3894,2.4829,2.5155,2.6454,2.7994,2.9655,2.9276,2.9654,3.1777,3.1521,3.1966,3.3826,3.3781,3.3206,3.2157,3.2597,3.2263,3.0859,3.1306,3.0976,2.964,2.9309,2.8826,2.812,2.8054,2.793,2.7789,2.8067,2.816,-1.6943,-1.4656,-1.2845,-1.2461,-1.1859,-1.1857,0.0,0.0,-1.2624,-1.4576,-1.3789,-1.3176,-1.4511,-1.4017,-1.3501,-1.3617,-1.2718,-1.193,-1.1748,-0.958,-0.7952,-0.8036,-0.874,-0.9203,-0.8954,-0.7643,-0.6485,-0.5719,-0.498,-0.4128,-0.3116,-0.2907,-0.2457,-0.1739,-0.157,-0.0877,0.0449,0.0501,0.0891,0.1742,0.196,0.2503,0.3242,0.4338,0.5152,0.5672,0.6043,0.6678,0.7518,0.8558,0.9252,0.9727,1.0924,1.0777,0.9785,0.9028,0.9639,1.0993,1.1811,1.2255,1.2774,1.434,1.4915,1.5142,1.5724,1.6044,1.6244,1.6362,1.6107,1.5876,1.6293,1.6269,1.633,1.7173,1.8131,1.8999,1.9434,2.0364,2.1151,2.1277,2.1556,2.1999,2.2775,2.3756,2.4788,2.5803,2.7168,2.8335,2.8947,2.9062,2.9363,3.0105,3.0791,3.1747,3.3119,3.1859,3.1307,3.1963,3.1422,3.101,3.0806,3.016,2.9724,2.9593,2.8774,2.8286,2.8193,2.8118,2.7715,2.7041,2.7823,2.8201,-1.6214,-1.441,0.0,0.0,-1.2837,-1.2344,-1.3397,-1.2655,-1.2063,-1.3483,-1.3256,-1.2958,-1.3815,-1.2833,-1.1925,0.0,-1.06,-0.9328,-0.8002,-0.6797,-0.5662,-0.453,-0.4033,-0.4092,-0.4894,-0.4409,-0.354,-0.2336,-0.2106,-0.1576,-0.0425,-0.0473,-0.0194,0.0627,0.0628,0.1129,0.2307,0.2693,0.333,0.4257,0.4528,0.5094,0.5841,0.6303,0.6885,0.7628,0.889,0.9136,0.8713,0.996,1.0292,1.013,1.0802,1.1078,1.1145,1.0363,1.0637,1.1481,1.2175,1.2928,1.3773,1.4766,1.5289,1.5558,1.5901,1.6088,1.6244,1.6362,1.6293,1.625,1.6436,1.671,1.7034,1.7434,1.8458,1.9456,1.9818,2.0616,2.1402,2.1705,2.1764,2.2222,2.3493,2.4211,2.5128,2.6615,2.7502,2.8228,2.8929,2.9079,2.9316,2.9905,3.0784,3.1411,3.1629,3.1464,3.1339,3.1305,3.0991,3.0566,3.0057,2.9686,2.9043,2.8101,2.767,2.7182,2.6699,2.6665,2.6465,2.6145,2.6568,2.6754,-1.4584,0.0,0.0,-1.3628,-1.3054,-1.2452,-1.2707,-1.1914,-1.1313,-1.2194,-1.1677,-1.1381,-1.2104,-1.09,0.0,-0.9579,-0.8164,-0.6579,-0.4973,-0.4105,-0.3095,-0.1514,-0.0437,0.0,-0.0523,-0.0929,-0.0739,0.0404,0.0302,0.0573,0.1552,0.142,0.1751,0.2494,0.2706,0.3266,0.4081,0.4699,0.5392,0.6102,0.6641,0.7207,0.7944,0.8191,0.8705,0.9436,1.0597,1.0595,0.9937,1.1028,1.1291,1.0954,1.1217,1.1734,1.2314,1.1816,1.1906,1.2297,1.3014,1.3867,1.4767,1.54,1.5824,1.61,1.6076,1.6207,1.6362,1.6362,1.6436,1.6522,1.665,1.7102,1.7585,1.7935,1.8887,1.9884,2.0335,2.0959,2.1606,2.2208,2.2258,2.2742,2.437,2.4951,2.5759,2.7265,2.7742,2.8201,2.8997,2.9191,2.9456,2.9946,3.06,3.088,3.0599,3.1161,3.1222,3.0453,3.0422,3.0057,2.9178,2.8904,2.8201,2.7009,2.6695,2.6227,2.5601,2.5605,2.5595,2.56,2.5652,2.5684,0.0,0.0,-1.1714,-1.1672,-1.1832,-1.1978,-1.2307,-1.1178,-1.0342,-1.1327,-0.9251,-0.7657,-0.8762,-0.799,-0.7277,-0.7313,-0.5433,-0.3999,-0.3898,-0.1699,0.0366,0.1339,0.1315,0.206,0.0,0.2873,0.2026,0.2269,0.2276,0.2254,0.2253,0.2624,0.3143,0.3712,0.459,0.538,0.6116,0.6376,0.6666,0.6854,0.7477,0.8174,0.8971,0.9969,1.0629,1.1004,1.0341,1.0516,1.1279,1.1882,1.2432,1.2905,1.3468,1.373,1.3731,1.3555,1.361,1.3899,1.4926,1.5431,1.572,1.6565,1.6846,1.6791,1.6411,1.6497,1.6637,1.6318,1.6362,1.6595,1.7073,1.7365,1.7814,1.8977,1.9677,2.0286,2.1087,2.1556,2.1996,2.2725,2.3087,2.3708,2.5192,2.5908,2.6591,2.7637,2.8035,2.8404,2.902,2.9434,2.9754,2.9977,3.0026,3.0169,3.0482,3.0587,3.0296,2.9494,2.9498,2.9158,2.8276,2.7435,2.6944,2.6898,2.6068,2.564,2.5601,2.5601,2.5598,2.5601,2.5601,2.5632,0.0,0.0,-1.1061,-1.1024,-1.0813,-1.0482,-1.0056,-0.9053,-0.8188,-0.8567,-0.7583,-0.6845,-0.7158,-0.6193,-0.5194,-0.4727,-0.3475,-0.2152,-0.0782,0.0194,0.1334,0.2893,0.3748,0.0,0.0,0.0,0.0,0.4776,0.4548,0.4573,0.5,0.4919,0.4968,0.5065,0.5564,0.6245,0.7063,0.7731,0.8409,0.9198,1.0045,1.0753,1.1255,1.2101,1.2827,1.333,1.3033,1.2957,1.2987,1.3176,1.3176,1.3142,1.3303,1.3693,1.4058,1.4161,1.4652,1.5242,1.5353,1.5852,1.6509,1.6791,1.6876,1.6876,1.6795,1.6909,1.7076,1.706,1.7227,1.738,1.7557,1.7908,1.8369,1.8977,1.9763,2.055,2.1007,2.1854,2.2654,2.3023,2.346,2.4128,2.5228,2.5768,2.6489,2.7855,2.8489,2.886,2.9064,2.9373,2.9663,2.9962,2.9946,3.0098,3.0532,3.0598,3.0294,2.9575,2.9508,2.8867,2.7457,2.7078,2.662,2.6048,2.5753,2.5609,2.5601,2.561,2.56,2.56,2.56,2.5613,0.0,-1.0042,-0.9938,-1.0127,-0.9311,-0.8287,-0.7793,-0.6578,-0.5647,-0.5579,-0.5148,-0.4766,-0.4648,-0.3905,-0.3098,-0.2581,-0.157,-0.0381,0.0959,0.1526,0.2564,0.4653,0.5317,0.0,0.0,0.0,0.0,0.6475,0.6186,0.6159,0.6466,0.6418,0.6455,0.6526,0.7095,0.7756,0.8493,0.9246,1.0082,1.1028,1.1549,1.2128,1.2696,1.3143,1.3681,1.4323,1.4261,1.4279,1.4233,1.4082,1.392,1.3672,1.3662,1.4025,1.4628,1.4846,1.5511,1.6324,1.6039,1.6441,1.7086,1.7212,1.7253,1.7253,1.7186,1.7284,1.7489,1.7462,1.7625,1.7828,1.7988,1.8408,1.895,1.9642,2.0496,2.129,2.1843,2.267,2.3418,2.3794,2.4245,2.4845,2.5797,2.6619,2.7397,2.8083,2.8949,2.9437,2.9138,2.9372,2.9645,2.9965,2.9969,3.0131,3.0571,3.0598,3.0166,2.9155,2.9065,2.8271,2.6568,2.6459,2.6173,2.5615,2.56,2.56,2.5595,2.5599,2.5593,2.5595,2.5605,2.56,-0.9388,-0.8905,-0.8351,-0.889,-0.7196,-0.5404,-0.5411,-0.4055,-0.283,-0.2822,-0.2013,-0.1392,0.0,0.0,-0.0944,-0.0926,0.0262,0.1176,0.1294,0.2373,0.4021,0.0,0.0,0.0,0.0,0.0,0.0,0.7635,0.0,0.7022,0.6857,0.7186,0.7626,0.8093,0.9103,0.9843,1.0275,1.0807,1.1545,1.239,1.213,1.2397,1.326,1.3212,1.3547,1.4136,1.4126,1.4474,1.4979,1.4686,1.451,1.4496,1.4453,1.4834,1.539,1.5626,1.6275,1.7044,1.7024,1.7209,1.7488,1.7788,1.7896,1.7882,1.7529,1.7679,1.7869,1.7502,1.7679,1.8084,1.852,1.8865,1.9523,2.1008,2.1783,2.2404,2.3454,2.3885,2.4265,2.4978,2.5364,2.588,2.6905,2.8303,2.9066,2.8362,2.9387,2.9945,2.92,2.939,2.9701,2.9975,3.0007,3.0163,3.0571,3.0595,2.9933,2.8379,2.8264,2.7478,2.5746,2.5664,2.5654,2.5601,2.5601,2.5601,2.5595,2.5595,2.5595,2.5595,2.559,2.5595,-0.7275,-0.6282,-0.5144,-0.4884,-0.3997,-0.3157,-0.2502,-0.2181,-0.1934,-0.1756,-0.1318,-0.0919,0.0,0.0,0.0,0.0857,0.1446,0.0,0.2554,0.3829,0.0,0.0,0.0,0.8653,0.9443,0.9714,0.0,0.0,0.8626,0.8067,0.8995,0.8929,0.9024,0.9449,1.011,1.0432,1.0275,1.1397,1.2657,1.4105,1.4013,1.4438,1.5312,1.534,1.5546,1.5901,1.5677,1.552,1.5426,1.5096,1.4731,1.449,1.4914,1.5544,1.6252,1.6753,1.739,1.8034,1.8411,1.8219,1.7788,1.7882,1.8221,1.8452,1.7923,1.8673,1.9559,1.9017,1.9514,2.0251,2.0655,2.0799,2.1078,2.1978,2.2379,2.2734,2.3331,2.406,2.4691,2.5026,2.5747,2.6708,2.7904,2.8093,2.827,2.8902,2.9109,2.9163,2.9126,2.9349,2.9645,2.9975,2.9972,3.0112,3.0571,3.0595,3.0185,2.923,2.9162,2.8393,2.6636,2.6576,2.6254,2.5601,2.5601,2.5583,2.5536,2.5536,2.5503,2.5437,2.5449,2.5459,-0.5461,-0.4444,-0.3424,-0.2194,-0.1162,-0.0195,0.058,0.0952,0.1019,0.0704,0.075,0.0,0.0,0.0,0.0,0.0,0.0,0.0,0.3915,0.5142,0.6401,0.0,0.8506,0.0,1.025,1.0839,1.1288,0.0,1.0103,0.965,1.0619,1.0416,1.0521,1.0898,1.1295,1.1551,1.1761,1.2473,1.3531,1.4947,1.4784,1.5192,1.6214,1.6416,1.6457,1.6496,0.0,1.6622,1.6192,1.5872,1.5764,1.5819,1.5926,1.662,1.7538,1.7872,1.8396,1.8963,1.9284,1.9051,1.8682,1.8682,1.8765,1.8793,1.8696,1.9445,2.0231,1.988,2.0384,2.1085,2.1421,2.1595,2.1922,2.2732,2.3136,2.3533,2.4216,2.4837,2.5445,2.5952,2.6991,2.7964,2.8664,2.9092,2.9417,2.9704,2.98,2.9765,2.9502,2.945,2.957,2.9921,2.9937,3.0089,3.0518,3.0539,3.0195,2.9469,2.9059,2.8236,2.6916,2.6489,2.6042,2.5517,2.5517,2.5495,2.5464,2.5464,2.5448,2.5404,2.5796,2.5983,-0.3533,-0.2676,-0.1754,-0.0094,0.1532,0.2887,0.333,0.4068,0.4316,0.3276,0.0,0.0,0.3498,0.0,0.3212,0.4115,0.0,0.5223,0.5368,0.6548,0.7825,0.9095,0.941,0.9989,1.1287,1.166,1.2032,1.2301,1.1738,1.1537,1.1821,1.1837,1.1941,1.2303,1.2466,1.2888,1.3656,1.3782,1.4379,1.5522,1.5291,1.5671,1.6703,1.7081,1.6969,1.6598,0.0,0.0,1.7121,1.6863,1.71,1.7559,1.7284,1.7943,1.904,1.9133,1.9535,2.0053,2.0148,2.0066,1.9904,1.9754,1.9374,1.9133,1.9595,2.0164,2.0653,2.0684,2.114,2.1664,2.2062,2.2375,2.2821,2.3763,2.4279,2.482,2.5675,2.6048,2.6467,2.7317,2.8412,2.9245,2.9383,3.0485,3.1119,3.0521,3.0836,3.0888,3.0152,2.9673,2.9513,2.9836,2.9886,3.0052,3.043,3.0419,3.0133,2.9513,2.864,2.7782,2.6986,2.6107,2.558,2.5395,2.5406,2.5406,2.5397,2.5397,2.5387,2.5395,2.6288,2.6718,-0.0976,0.0813,0.2494,0.2828,0.3989,0.5018,0.4903,0.426,0.0,0.0,0.0,0.357,0.4051,0.4562,0.0,0.5852,0.0,0.0,0.0,0.0,0.8989,0.0,0.0,0.0,0.0,0.0,0.0,0.0,0.0,0.0,1.289,1.2859,1.3047,1.3491,1.3302,1.3468,1.4021,1.4612,1.5764,1.737,1.7394,1.7917,1.8854,1.855,1.8218,1.788,0.0,0.0,1.7824,1.7954,1.7809,1.7662,1.8259,1.9236,2.0358,2.0761,2.1326,2.1925,2.239,2.1916,2.0962,2.0012,1.9944,2.0161,1.999,2.1185,2.2635,2.2686,2.3613,2.4775,2.5463,2.5697,2.5874,2.6388,2.6546,2.6729,2.7235,2.7666,2.8063,2.8394,2.8859,2.947,3.0369,3.0433,3.0554,3.1122,3.1063,3.0939,3.0917,3.0005,2.9454,2.9644,2.9803,3.0007,3.0239,3.0337,3.0364,3.0297,2.9467,2.8608,2.774,2.6871,2.6099,2.5406,2.5406,2.5379,2.5312,2.5313,2.5293,2.5261,2.6196,2.6631,0.1447,0.3014,0.4444,0.5536,0.63,0.6752,0.692,0.0,0.0,0.0,0.0,0.5398,0.589,0.0,0.0,0.0,0.0,0.0,0.0,0.0,0.0,0.0,0.0,0.0,0.0,0.0,0.0,0.0,0.0,0.0,1.4002,1.3816,1.385,1.4112,1.4429,1.4767,1.5055,1.607,1.7204,1.8514,1.8824,1.928,1.9832,1.9754,1.9318,1.8708,1.8895,0.0,1.8904,1.9079,1.9436,1.9961,2.0374,2.113,2.199,2.2258,2.2549,2.2834,2.308,2.281,2.2278,2.1722,2.1505,2.1512,2.1842,2.2693,2.3604,2.3803,2.4611,2.5555,2.6077,2.6363,2.6585,2.6997,2.7184,2.7322,2.7639,2.8241,2.888,2.9273,2.9932,3.0602,3.127,3.1341,3.1456,3.1857,3.1691,3.1401,3.1039,3.0415,3.0066,3.0208,3.0031,2.9946,3.0084,3.0248,3.0352,3.0389,2.9193,2.8277,2.7873,2.6602,2.5736,2.5292,2.5292,2.5271,2.5248,2.5261,2.5231,2.5228,2.6587,2.7242,0.366,0.4809,0.5903,0.7541,0.7977,0.8114,0.8492,0.8313,0.0,0.0,0.0,0.0,0.0,0.0,0.0,0.0,0.0,0.0,0.0,0.0,0.0,0.0,0.0,0.0,0.0,0.0,0.0,0.0,0.0,0.0,1.499,1.4695,1.4607,1.4824,1.5535,1.6078,1.6404,1.758,1.8627,1.9596,1.9981,2.0336,2.0685,2.0715,2.0342,1.9652,1.9942,0.0,0.0,2.0653,2.1469,2.2356,2.2557,2.307,2.373,2.3608,2.373,2.3947,2.3947,2.3865,2.3757,2.3757,2.3214,2.2641,2.3492,2.397,2.4323,2.4755,2.5404,2.6021,2.6427,2.6795,2.7157,2.7671,2.7922,2.8153,2.8468,2.9176,2.9947,3.0436,3.1303,3.2059,3.2342,3.2546,3.2634,3.2634,3.2469,3.205,3.1273,3.0993,3.0825,3.0767,3.0206,2.9869,2.9918,3.009,3.0221,3.0235,2.8842,2.7934,2.7796,2.6346,2.5431,2.5191,2.5363,2.5459,2.549,2.5666,2.5757,2.5798,2.7347,2.811,0.5398,0.6701,0.7664,0.7883,0.8456,0.8862,0.8664,0.0,0.0,0.0,0.0,0.0,0.0,0.0,0.0,0.0,0.0,0.0,0.0,0.0,0.0,0.0,0.0,0.0,0.0,0.0,0.0,0.0,0.0,0.0,0.0,1.5202,1.5266,1.6139,1.6268,1.6757,1.7599,1.8802,1.9875,2.0718,2.0862,2.125,2.184,2.1431,2.1193,2.1188,0.0,0.0,0.0,2.3356,2.3752,2.3489,2.379,2.4637,2.5588,2.5046,2.5548,2.6497,2.6497,2.6117,2.5643,2.5643,2.4517,2.3198,2.3807,2.4418,2.5091,2.5991,2.6935,2.7765,2.8182,2.8576,2.9044,2.9753,3.0068,3.0414,3.1102,3.1623,3.2097,3.2463,3.306,3.3619,3.3917,3.3663,3.3406,3.3389,3.3287,3.2893,3.2087,3.1801,3.1414,3.0711,3.0018,2.9645,2.9626,2.977,2.9899,3.0022,2.9189,2.8406,2.7745,2.6864,2.5998,2.521,2.5918,2.6319,2.6393,2.7182,2.7562,2.7577,2.8533,2.8986,0.6852,0.7995,0.8794,0.8897,0.8949,0.8893,0.8931,0.0,0.0,0.0,0.0,0.0,0.9155,0.0,0.0,0.0,0.0,0.0,0.0,0.0,0.0,0.0,0.0,0.0,0.0,0.0,0.0,0.0,0.0,0.0,0.0,1.7088,1.6587,1.7605,1.8108,1.8605,1.9241,2.0422,2.1271,2.1773,2.2088,2.2234,2.2147,2.1962,2.1996,2.2172,0.0,0.0,0.0,2.4772,2.5227,2.5408,2.5657,2.6036,2.6416,2.6185,2.6402,2.6823,2.6823,2.666,2.6457,2.6457,2.6072,2.5618,2.5266,2.5424,2.6064,2.7277,2.8086,2.8728,2.9543,3.0063,3.0449,3.0733,3.0845,3.107,3.1518,3.1758,3.215,3.2937,3.3296,3.3686,3.4391,3.393,3.3494,3.3512,3.3199,3.2775,3.2195,3.2198,3.2046,3.1392,3.0708,3.032,3.0318,3.0941,3.1105,3.0631,2.9803,2.8761,2.7456,2.7051,2.6536,2.5831,2.6597,2.7069,2.7216,2.7616,2.7804,2.7819,2.8605,2.8983,0.883,0.9486,0.9942,1.0181,0.9499,0.8987,0.0,0.0,0.0,0.9297,0.9785,1.0204,1.0418,1.123,1.1855,1.1674,0.0,1.2999,0.0,0.0,0.0,0.0,0.0,0.0,0.0,0.0,0.0,0.0,0.0,0.0,0.0,1.9552,1.8822,1.9173,1.9683,2.0356,2.0938,2.1722,2.2356,2.2739,2.2914,2.2826,2.2521,2.2717,2.2936,2.3213,0.0,0.0,0.0,2.6127,2.6569,2.691,2.702,2.7203,2.7339,2.7339,2.7461,2.7637,2.7827,2.7651,2.7339,2.7339,2.7385,2.7273,2.6638,2.6745,2.7306,2.8379,2.9094,2.9664,3.055,3.0992,3.1255,3.1476,3.1523,3.1636,3.2008,3.2155,3.2547,3.359,3.3895,3.4235,3.5147,3.4705,3.4108,3.3898,3.3472,3.289,3.2184,3.2383,3.2403,3.1853,3.1579,3.1364,3.1117,3.1727,3.1807,3.0979,3.0359,2.9305,2.7679,2.7539,2.7196,2.6544,2.7305,2.7778,2.7967,2.8261,2.8402,2.8441,2.8954,2.917,1.1336,1.1351,1.1268,1.1482,1.0341,0.9264,0.0,0.0,0.0,0.9513,1.0465,1.1361,1.1605,1.2583,1.3269,1.3269,1.3278,0.0,0.0,0.0,0.0,0.0,0.0,0.0,0.0,0.0,0.0,0.0,0.0,0.0,0.0,2.2442,2.203,2.0769,2.0904,2.1538,2.2788,2.2553,2.2864,2.3711,2.323,2.3001,2.299,2.3756,2.4181,0.0,0.0,0.0,0.0,2.7694,2.7937,2.7517,2.7642,2.8058,2.8573,2.8573,2.894,2.9536,3.0161,2.9591,2.8573,2.8573,2.8195,2.7661,2.7647,2.8254,2.8983,2.9317,2.9947,3.0658,3.1108,3.1223,3.1397,3.2143,3.2301,3.244,3.3135,3.3487,3.3951,3.4814,3.5261,3.5752,3.6615,3.6225,3.553,3.4793,3.4304,3.3534,3.2256,3.2383,3.2403,3.1853,3.2507,3.2637,3.1879,3.1805,3.152,3.0827,3.079,3.0133,2.8666,2.8523,2.8112,2.7301,2.8005,2.8472,2.8591,2.9385,2.9815,2.9883,2.9883,2.9836,1.163,1.1811,1.166,1.1376,1.0627,1.0025,1.0497,0.0,0.0,1.1464,1.2093,1.2487,1.2741,1.36,1.428,1.428,1.4871,0.0,0.0,0.0,0.0,0.0,0.0,0.0,0.0,0.0,0.0,0.0,0.0,0.0,0.0,2.4242,2.3979,2.3134,2.3182,2.3438,2.395,2.3861,2.3937,2.4246,2.4093,2.4128,2.431,2.4522,0.0,0.0,0.0,0.0,0.0,2.8233,2.8644,2.8847,2.8912,2.9292,2.9835,2.9835,2.9957,3.0133,3.0337,3.0161,2.9902,3.0076,2.9919,2.9715,3.0466,2.9971,2.9461,3.0647,3.1678,3.2583,3.3145,3.3309,3.3498,3.4225,3.402,3.3719,3.3925,3.3678,3.3729,3.48,3.514,3.5531,3.6632,3.6243,3.5565,3.4811,3.4129,3.3402,3.2675,3.2882,3.3104,3.3158,3.3562,3.3491,3.2692,3.312,3.3129,3.2359,3.2259,3.1533,2.9956,2.9841,2.947,2.8821,2.9569,3.0058,3.0237,3.1088,3.1468,3.1393,3.1393,3.0996,0.0,1.2885,1.2725,1.253,1.1788,0.0,0.0,0.0,0.0,1.268,1.34,1.3776,1.3944,1.4789,1.5462,1.5462,1.6057,0.0,0.0,0.0,0.0,0.0,0.0,0.0,0.0,0.0,0.0,0.0,0.0,0.0,0.0,0.0,2.5279,2.4849,2.4573,2.4567,2.4749,2.4483,2.4483,2.4738,2.4574,2.477,2.5199,2.5564,0.0,0.0,0.0,0.0,0.0,2.9199,2.9496,2.9835,2.9835,3.0066,3.0446,3.0663,3.0744,3.0771,3.1002,3.099,3.0993,3.1171,3.1124,3.1146,3.2038,3.159,3.1071,3.2641,3.3401,3.383,3.4525,3.4494,3.4399,3.4873,3.4431,3.3925,3.3925,3.3593,3.3626,3.4704,3.5018,3.5414,3.6568,3.6427,3.5927,3.5232,3.4705,3.4199,3.3728,3.3849,3.399,3.4043,3.431,3.4134,3.3364,3.3852,3.3863,3.3045,3.2966,3.2349,3.1032,3.0635,3.042,3.0365,3.0549,3.0856,3.1317,3.1842,3.2064,3.1979,3.1979,3.1592,0.0,0.0,0.0,0.0,0.0,0.0,0.0,0.0,0.0,0.0,0.0,1.5123,1.5123,1.6049,1.673,1.6738,1.673,0.0,0.0,0.0,0.0,0.0,0.0,0.0,0.0,0.0,0.0,0.0,0.0,0.0,0.0,0.0,2.5906,2.5895,2.5294,2.5055,2.5229,2.461,2.461,2.5218,2.4872,2.5083,2.587,2.6911,0.0,0.0,0.0,0.0,0.0,3.0405,3.0446,3.0473,3.0473,3.05,3.0608,3.1151,3.1355,3.1436,3.1992,3.2075,3.1861,3.1889,3.19,3.2117,3.2854,3.2968,3.3215,3.4808,3.4778,3.4462,3.5205,3.492,3.4446,3.451,3.3972,3.3451,3.3451,3.3456,3.3706,3.4593,3.4991,3.547,3.652,3.6748,3.6589,3.5896,3.5811,3.5625,3.5136,3.5098,3.4965,3.4586,3.4798,3.4641,3.3927,3.406,3.3881,3.312,3.3083,3.2748,3.1987,3.1143,3.1069,3.1857,3.1088,3.1106,3.1968,3.1968,3.1968,3.1968,3.1945,3.1779,0.0,0.0,1.4899,1.4549,0.0,0.0,0.0,0.0,0.0,0.0,0.0,1.6221,1.6722,1.6894,1.7057,1.7229,0.0,0.0,0.0,0.0,0.0,0.0,0.0,0.0,0.0,0.0,0.0,0.0,0.0,0.0,0.0,0.0,2.5738,2.5895,2.5786,2.5732,2.5732,2.5611,2.5611,2.5721,2.6481,2.6997,2.7387,2.8425,0.0,0.0,0.0,0.0,3.0405,3.0405,3.0676,3.1083,3.1083,3.1368,3.1775,3.1924,3.1965,3.1992,3.2128,3.2349,3.2484,3.2579,3.3411,3.4382,3.4485,3.3671,3.281,3.3574,3.4036,3.4462,3.5205,3.5647,3.6058,3.6595,3.5789,3.4905,3.4905,3.4825,3.4767,3.4789,3.5765,3.6573,3.6689,3.6829,3.6685,3.5934,3.5811,3.5568,3.4868,3.496,3.5061,3.4983,3.5259,3.5139,3.4388,3.4252,3.4123,3.3918,3.3918,3.3826,3.364,3.286,3.2525,3.2711,3.2525,3.2823,3.364,3.364,3.364,3.364,3.3444,3.2959,1.5191,1.5359,1.5524,1.4692,1.4932,0.0,0.0,0.0,0.0,0.0,0.0,0.0,1.7221,0.0,0.0,0.0,0.0,0.0,0.0,0.0,0.0,0.0,0.0,0.0,0.0,0.0,0.0,0.0,0.0,0.0,0.0,0.0,2.5812,2.5895,2.5895,2.5895,2.5895,2.5895,2.5895,2.5895,2.6693,2.7485,2.8305,2.9151,0.0,0.0,0.0,0.0,3.1219,3.1219,3.1409,3.1694,3.1694,3.1897,3.2182,3.2182,3.2182,3.2182,3.2182,3.2516,3.3003,3.3235,3.4076,3.5018,3.497,3.4429,3.4093,3.4975,3.5236,3.5442,3.6169,3.639,3.6516,3.6911,3.5916,3.4889,3.4889,3.4845,3.4807,3.4822,3.5997,3.7063,3.7186,3.7312,3.7376,3.7386,3.6812,3.6338,3.6268,3.6106,3.5827,3.5456,3.5738,3.5618,3.4842,3.4506,3.4183,3.3797,3.3778,3.3778,3.3778,3.3172,3.2871,3.299,3.3751,3.416,3.4197,3.4444,3.4393,3.3998,3.3689,3.3257,1.4482,1.514,1.5701,1.4755,1.5311,1.5891,0.0,0.0,0.0,0.0,0.0,0.0,0.0,0.0,0.0,0.0,0.0,0.0,0.0,0.0,0.0,0.0,0.0,0.0,0.0,0.0,0.0,0.0,0.0,0.0,0.0,0.0,0.0,2.5895,2.5895,2.5895,2.5895,2.5895,2.5895,2.5979,2.6528,2.7464,2.8876,2.9601,3.0633,0.0,0.0,0.0,3.2182,3.2182,3.2182,3.2182,3.2182,3.2182,3.2182,3.2182,3.2182,3.2255,3.2314,3.2803,3.3339,3.377,3.4442,3.5063,3.5063,3.5363,3.5963,3.7148,3.6975,3.6564,3.7164,3.6959,3.6595,3.6595,3.5584,3.462,3.462,3.4714,3.4814,3.5103,3.6339,3.7463,3.7906,3.7972,3.8248,3.9,3.8006,3.7338,3.7865,3.7374,3.6724,3.6075,3.6233,3.6061,3.5296,3.4888,3.438,3.3617,3.3515,3.3472,3.3472,3.3095,3.2989,3.3222,3.4611,3.5036,3.44,3.4871,3.4733,3.4073,3.3742,3.335,1.3964,1.4581,1.5108,1.4083,1.43,1.4643,0.0,0.0,0.0,0.0,0.0,0.0,0.0,0.0,0.0,0.0,0.0,0.0,0.0,0.0,0.0,0.0,0.0,0.0,0.0,0.0,0.0,0.0,0.0,0.0,0.0,0.0,0.0,2.5895,2.5895,2.5895,2.5895,2.5895,2.6052,2.6445,2.7383,2.8414,2.9614,3.0532,3.1394,0.0,0.0,3.2182,3.2182,3.2182,3.2182,3.2182,3.2182,3.2182,3.2182,3.2182,3.2182,3.2314,3.2931,3.3199,3.3409,3.4059,3.4963,3.5761,3.5761,3.6399,3.7196,3.7417,3.6975,3.6453,3.6564,3.6959,3.7322,3.7322,3.669,3.609,3.609,3.647,3.6831,3.6703,3.7802,3.8772,3.8825,3.8858,3.8751,3.8333,3.8093,3.7742,3.7216,3.7058,3.6935,3.6812,3.6872,3.6556,3.5764,3.5625,3.5348,3.4764,3.4483,3.4304,3.4304,3.4256,3.4213,3.4273,3.4509,3.4891,3.5405,3.5471,3.5421,3.5313,3.4975,3.447,1.3124,1.3305,1.3592,1.3203,1.4115,0.0,0.0,0.0,0.0,0.0,0.0,0.0,0.0,0.0,0.0,0.0,0.0,0.0,0.0,0.0,0.0,0.0,0.0,0.0,0.0,0.0,0.0,0.0,0.0,0.0,0.0,0.0,0.0,0.0,2.5895,2.5979,2.6207,2.6207,2.629,2.6528,2.7799,2.8924,2.9704,3.0771,3.1542,3.2182,0.0,3.2182,3.2182,3.2182,3.2182,3.2182,3.2182,3.2182,3.2241,3.2372,3.2444,3.2574,3.3129,3.3409,3.3632,3.3991,3.489,3.5913,3.5913,3.6631,3.748,3.748,3.7243,3.699,3.699,3.7243,3.748,3.748,3.6943,3.6421,3.6421,3.6635,3.6844,3.6982,3.817,3.9243,3.9562,3.9617,3.9722,3.9947,3.9287,3.8638,3.8286,3.7865,3.7426,3.7023,3.6987,3.6829,3.6478,3.6154,3.5682,3.5031,3.4866,3.4835,3.4993,3.4878,3.4975,3.5242,3.5566,3.5747,3.5768,3.5948,3.5783,3.5334,3.503,3.4765,1.2283,1.2284,1.2452,0.0,0.0,0.0,0.0,0.0,0.0,0.0,0.0,0.0,0.0,0.0,0.0,0.0,0.0,0.0,0.0,0.0,0.0,0.0,0.0,0.0,0.0,0.0,0.0,0.0,0.0,0.0,0.0,0.0,0.0,0.0,2.5979,2.6135,2.6693,2.6764,2.6846,2.6869,2.8155,2.9184,2.9858,3.0771,3.1542,3.2182,3.2182,3.2182,3.2182,3.2182,3.2182,3.2182,3.2182,3.2182,3.2241,3.2503,3.2632,3.2775,3.3129,3.3479,3.3839,3.3908,3.4824,3.5913,3.5913,3.6631,3.748,3.748,3.748,3.748,3.748,3.748,3.748,3.748,3.7069,3.6674,3.6674,3.6674,3.6772,3.7252,3.8322,3.9374,3.9996,4.0266,4.0558,4.1182,4.0297,3.9515,3.934,3.8778,3.8093,3.7321,3.7251,3.718,3.6987,3.6617,3.6128,3.5562,3.5403,3.5368,3.5488,3.5366,3.5452,3.5869,3.6399,3.6489,3.6158,3.6485,3.6257,3.5528,3.5345,3.5238,1.1602,1.1932,1.2502,1.2399,0.0,0.0,0.0,0.0,0.0,0.0,0.0,0.0,0.0,0.0,0.0,0.0,0.0,0.0,0.0,0.0,0.0,0.0,0.0,0.0,0.0,0.0,0.0,0.0,0.0,0.0,0.0,0.0,0.0,0.0,0.0,2.6302,2.7185,2.7706,2.7891,2.78,2.8498,2.9328,3.0241,3.0921,3.1542,3.2182,3.2182,3.2182,3.2182,3.2182,3.2182,3.2182,3.2182,3.2182,3.2182,3.2255,3.2444,3.2775,3.3129,3.3479,3.3839,3.4264,3.5037,3.5913,3.5913,3.6631,3.748,3.748,3.748,3.748,3.748,3.748,3.748,3.748,3.7433,3.7401,3.7401,3.7401,3.7589,3.8092,3.8728,3.9437,4.0068,4.0716,4.0958,4.0482,4.042,4.013,3.941,3.9252,3.8918,3.8111,3.8023,3.7742,3.704,3.7129,3.719,3.7137,3.663,3.6131,3.5799,3.5761,3.5761,3.5799,3.6021,3.6412,3.6911,3.7135,3.7097,3.6851,3.6851,3.6541,1.1348,1.1871,1.2489,0.0,0.0,0.0,0.0,0.0,0.0,0.0,0.0,0.0,0.0,0.0,0.0,0.0,0.0,0.0,0.0,0.0,0.0,0.0,0.0,0.0,0.0,0.0,0.0,0.0,0.0,0.0,0.0,0.0,0.0,0.0,0.0,2.6539,2.7174,2.7753,2.8247,2.8803,2.9781,3.0469,3.0846,3.1542,3.1936,3.2182,3.2182,3.2182,3.2182,3.2182,3.2182,3.2182,3.2182,3.2182,3.2255,3.2444,3.2775,3.3129,3.3479,3.3839,3.4196,3.4346,3.4854,3.5544,3.5785,3.6445,3.7089,3.7421,3.748,3.748,3.748,3.748,3.748,3.748,3.748,3.748,3.748,3.748,3.7743,3.8701,3.9028,3.9506,4.0597,4.1024,4.1168,4.0996,4.1095,4.0902,4.013,4.0042,3.9743,3.8936,3.8409,3.8222,3.8594,3.8231,3.8199,3.8713,3.7638,3.6891,3.6741,3.6741,3.6816,3.6911,3.6985,3.7127,3.7354,3.7334,3.7429,3.7672,3.7198,3.727,1.1354,1.1905,1.2502,0.0,0.0,0.0,0.0,0.0,0.0,0.0,0.0,0.0,0.0,0.0,0.0,0.0,0.0,0.0,0.0,0.0,0.0,0.0,0.0,0.0,0.0,0.0,0.0,0.0,0.0,0.0,0.0,0.0,0.0,0.0,0.0,2.6862,2.7592,2.8018,2.8724,2.9716,3.0545,3.0996,3.122,3.1863,3.2182,3.2182,3.2182,3.2182,3.2182,3.2182,3.2182,3.2182,3.2182,3.2182,3.2241,3.2574,3.2988,3.3339,3.3701,3.4059,3.4414,3.4414,3.4854,3.5479,3.5785,3.6383,3.7029,3.7421,3.748,3.748,3.748,3.748,3.748,3.748,3.748,3.748,3.748,3.748,3.7743,3.8495,3.8936,3.947,4.0353,4.0853,4.1226,4.1318,4.1453,4.1367,4.0902,4.0832,4.0533,3.9761,3.8971,3.8749,3.9458,3.8982,3.8911,3.9458,3.8505,3.7817,3.7553,3.7382,3.7372,3.7521,3.7558,3.7665,3.7859,3.7709,3.7923,3.848,3.7953,3.8227,1.1699,1.2051,0.0,0.0,0.0,0.0,0.0,0.0,0.0,0.0,0.0,0.0,0.0,0.0,0.0,0.0,0.0,0.0,0.0,0.0,0.0,0.0,0.0,0.0,0.0,0.0,0.0,0.0,0.0,0.0,0.0,0.0,0.0,0.0,0.0,0.0,2.8498,2.8724,2.9316,3.0317,3.0317,3.062,3.122,3.1863,3.2169,3.2182,3.2182,3.2169,3.2182,3.2182,3.2182,3.2182,3.2182,3.2182,3.2241,3.2574,3.2988,3.3339,3.3701,3.4059,3.4414,3.4414,3.5103,3.5913,3.5913,3.6631,3.748,3.748,3.748,3.748,3.748,3.748,3.748,3.748,3.748,3.748,3.748,3.748,3.748,3.7539,3.8399,3.9206,3.9206,4.0254,4.114,4.1209,4.1318,4.1471,4.1604,4.1604,4.1323,4.0569,3.9796,3.9322,3.934,3.934,3.9322,3.934,3.934,3.8954,3.8146,3.7606,3.7314,3.7314,3.7539,3.7895,3.8412,3.8412,3.8717,3.9322,3.9305,3.9511,1.1871,1.2566,0.0,0.0,0.0,0.0,0.0,0.0,0.0,0.0,0.0,0.0,0.0,0.0,0.0,0.0,0.0,0.0,0.0,0.0,0.0,0.0,0.0,0.0,0.0,0.0,0.0,0.0,0.0,0.0,0.0,0.0,0.0,0.0,0.0,0.0,2.8167,2.7726,2.8433,3.0317,2.9467,2.987,3.122,3.0934,3.1097,3.1468,3.1468,3.1776,3.2182,3.2182,3.2182,3.2182,3.2182,3.2182,3.2241,3.2574,3.2988,3.3339,3.3701,3.4059,3.4346,3.4059,3.4385,3.4905,3.5415,3.5913,3.6507,3.7285,3.748,3.748,3.748,3.748,3.748,3.748,3.748,3.748,3.748,3.748,3.7626,3.7985,3.8367,3.8832,3.9645,4.0153,4.0611,4.11,4.1318,4.1471,4.1604,4.1604,4.1516,4.1288,4.0586,4.034,4.0884,4.0428,4.0358,4.0902,4.0428,3.9779,3.8989,3.8929,3.9004,3.9121,3.9198,3.9323,3.9441,3.9323,3.9547,4.013,3.9568,3.9835,1.2279,0.0,0.0,0.0,0.0,0.0,0.0,0.0,0.0,0.0,0.0,0.0,0.0,0.0,0.0,0.0,0.0,0.0,0.0,0.0,0.0,0.0,0.0,0.0,0.0,0.0,0.0,0.0,0.0,0.0,0.0,0.0,0.0,0.0,0.0,0.0,2.7533,2.7296,2.8008,2.9618,2.8907,2.939,3.0846,3.0696,3.0859,3.122,3.1468,3.1863,3.2182,3.2182,3.2182,3.2182,3.2182,3.2182,3.2241,3.2789,3.2988,3.3129,3.3632,3.3977,3.4128,3.3908,3.4303,3.5103,3.5464,3.6054,3.6693,3.7345,3.748,3.748,3.748,3.748,3.748,3.748,3.748,3.748,3.748,3.748,3.7583,3.7943,3.8124,3.8502,3.9193,3.9577,3.9986,4.0546,4.096,4.1318,4.156,4.1604,4.1604,4.1604,4.12,4.1113,4.1569,4.1183,4.113,4.1569,4.1165,4.0709,4.0235,3.9829,3.9656,3.9757,3.9775,3.9935,4.0255,4.0053,4.0292,4.092,4.0446,4.0634,0.0,0.0,0.0,0.0,0.0,0.0,0.0,0.0,0.0,0.0,0.0,0.0,0.0,0.0,0.0,0.0,0.0,0.0,0.0,0.0,0.0,0.0,0.0,0.0,0.0,0.0,0.0,0.0,0.0,0.0,0.0,0.0,0.0,0.0,0.0,0.0,2.6926,2.7332,2.7892,0.0,2.8487,2.9045,3.0177,3.0745,3.1071,3.1233,3.1936,3.2182,3.2182,3.2182,3.2182,3.2182,3.2182,3.2182,3.2241,3.3002,3.2988,3.2775,3.3479,3.377,3.377,3.3701,3.461,3.5785,3.5785,3.6554,3.7421,3.748,3.748,3.748,3.748,3.748,3.748,3.748,3.748,3.748,3.748,3.748,3.748,3.748,3.7886,3.8238,3.8278,3.8794,3.9348,3.9834,4.0497,4.1163,4.156,4.156,4.156,4.1604,4.1604,4.1604,4.1604,4.1604,4.1604,4.1604,4.1604,4.1604,4.1604,4.0422,3.9787,3.9828,3.9787,4.0141,4.0884,4.0715,4.0937,4.1604,4.1604,4.1719,0.0,0.0,0.0,0.0,0.0,0.0,0.0,0.0,0.0,0.0,0.0,0.0,0.0,0.0,0.0,0.0,0.0,0.0,0.0,0.0,0.0,0.0,0.0,0.0,0.0,0.0,0.0,0.0,0.0,0.0,0.0,0.0,0.0,0.0,0.0,2.5685,2.6964,2.6602,2.6943,0.0,2.7928,2.8261,2.9013,2.9528,3.0317,3.1233,3.1936,3.2182,3.2182,3.2182,3.2182,3.2182,3.2182,3.2182,3.2241,3.2632,3.2775,3.2775,3.3269,3.3409,3.3339,3.3058,3.3782,3.4927,3.5029,3.5897,3.6968,3.7345,3.748,3.748,3.748,3.748,3.748,3.748,3.748,3.748,3.748,3.748,3.748,3.748,3.7583,3.7786,3.8238,3.8662,3.9242,4.04,4.0819,4.1163,4.156,4.1318,4.1272,4.156,4.1604,4.1604,4.1604,4.1604,4.1604,4.1604,4.1604,4.1604,4.1604,4.1315,4.1225,4.1379,4.1268,4.1314,4.1644,4.1446,4.1446,4.1604,4.1604,4.1805,0.0,0.0,0.0,0.0,0.0,0.0,0.0,0.0,0.0,0.0,0.0,0.0,0.0,0.0,0.0,0.0,0.0,0.0,0.0,0.0,0.0,0.0,0.0,0.0,0.0,0.0,0.0,0.0,0.0,0.0,0.0,0.0,0.0,0.0,2.529,2.5757,2.6576,2.6759,2.7158,2.7751,2.7992,2.8545,2.9441,3.0037,3.0784,3.1703,3.2023,3.2182,3.2182,3.2182,3.2182,3.2182,3.2182,3.2182,3.2241,3.2574,3.2561,3.2503,3.2846,3.2988,3.2988,3.2775,3.3575,3.4662,3.4978,3.5849,3.6785,3.7345,3.748,3.748,3.748,3.748,3.748,3.748,3.748,3.748,3.748,3.748,3.748,3.748,3.748,3.7583,3.7886,3.8303,3.8898,3.9766,4.022,4.0693,4.1226,4.1117,4.1163,4.156,4.1604,4.1604,4.1604,4.1604,4.1604,4.1604,4.1604,4.1498,4.1318,4.1318,4.1453,4.1762,4.1648,4.1648,4.1762,4.1648,4.1604,4.1604,4.1604,4.1736,0.0,0.0,0.0,0.0,0.0,0.0,0.0,0.0,0.0,0.0,0.0,0.0,0.0,0.0,0.0,0.0,0.0,0.0,0.0,0.0,0.0,0.0,0.0,0.0,0.0,0.0,0.0,0.0,0.0,0.0,0.0,0.0,2.4861,2.4861,2.5696,2.6093,2.6093,2.7176,2.7669,2.7584,2.8348,2.9332,3.0469,3.1084,3.1703,3.2182,3.2182,3.2182,3.2182,3.2182,3.2182,3.2182,3.2182,3.2182,3.2241,3.2503,3.2444,3.2241,3.2503,3.2632,3.2632,3.2632,3.3451,3.4595,3.5124,3.5913,3.6785,3.7345,3.748,3.748,3.748,3.748,3.748,3.748,3.748,3.748,3.748,3.748,3.748,3.748,3.748,3.7539,3.7658,3.8091,3.8623,3.8995,3.9523,4.0121,4.0819,4.0836,4.0977,4.1363,4.1408,4.1408,4.1408,4.1408,4.1408,4.1408,4.1408,4.1255,4.0913,4.0977,4.1163,4.1498,4.1515,4.1515,4.1604,4.1604,4.1604,4.1604,4.1604,4.1604,0.0,0.0,0.0,0.0,0.0,0.0,0.0,0.0,0.0,0.0,0.0,0.0,0.0,0.0,0.0,0.0,0.0,0.0,0.0,0.0,0.0,0.0,0.0,0.0,0.0,0.0,0.0,0.0,0.0,0.0,0.0,2.5052,2.5241,2.5241,2.5829,2.6093,2.6093,2.7176,2.7488,2.7043,2.86,2.9992,3.1071,3.1776,3.2096,3.2182,3.2182,3.2182,3.2182,3.2182,3.2182,3.2182,3.2182,3.2182,3.2182,3.2241,3.2241,3.2182,3.2241,3.2241,3.2241,3.2241,3.3101,3.4163,3.4699,3.5706,3.6785,3.7345,3.748,3.748,3.748,3.748,3.748,3.748,3.748,3.748,3.748,3.748,3.748,3.748,3.748,3.7658,3.8164,3.8606,3.9065,3.9661,3.9833,4.002,4.0417,4.0204,4.0171,4.0514,4.0546,4.0546,4.0546,4.0546,4.0546,4.0546,4.0546,4.0563,4.0497,4.0819,4.1024,4.1071,4.1071,4.1272,4.1604,4.1604,4.1604,4.1604,4.1604,4.1675,0.0,0.0,0.0,0.0,0.0,0.0,0.0,0.0,0.0,0.0,0.0,0.0,0.0,0.0,0.0,0.0,0.0,0.0,0.0,0.0,0.0,0.0,0.0,0.0,0.0,0.0,0.0,0.0,0.0,2.5052,2.5052,2.5529,2.5745,2.5745,2.6562,2.6863,2.6562,2.7633,2.8198,2.8341,2.9391,3.0374,3.122,3.1863,3.2182,3.2182,3.2182,3.2182,3.2182,3.2182,3.2182,3.2182,3.2182,3.2182,3.2182,3.2182,3.2182,3.2182,3.2182,3.2182,3.2182,3.2182,3.2704,3.3422,3.438,3.532,3.618,3.7074,3.7405,3.748,3.748,3.748,3.748,3.748,3.748,3.748,3.748,3.748,3.748,3.748,3.748,3.7599,3.7817,3.8157,3.8479,3.8985,3.9202,3.9504,4.0054,3.9986,4.002,4.0351,4.04,4.04,4.04,4.04,4.04,4.04,4.04,4.0319,4.0104,4.0303,4.037,4.037,4.0789,4.1226,4.1604,4.1363,4.1363,4.1604,4.1604,4.1648,0.0,0.0,0.0,0.0,0.0,0.0,0.0,0.0,0.0,0.0,0.0,0.0,0.0,0.0,0.0,0.0,0.0,0.0,0.0,0.0,0.0,0.0,0.0,0.0,0.0,0.0,0.0,0.0,0.0,2.5312,2.5312,2.5817,2.6093,2.6093,2.7019,2.7404,2.714,2.8053,2.8882,2.9639,3.0088,3.0709,3.1468,3.1936,3.2182,3.2182,3.2182,3.2182,3.2182,3.2182,3.2182,3.2182,3.2182,3.2182,3.2182,3.2182,3.2182,3.2182,3.2182,3.2182,3.2182,3.2182,3.2444,3.2974,3.4192,3.4993,3.5657,3.6876,3.7329,3.748,3.748,3.748,3.748,3.748,3.748,3.748,3.748,3.7622,3.7686,3.7512,3.7765,3.7998,3.7868,3.8157,3.8547,3.8868,3.8991,3.9265,3.9804,3.9811,3.9816,4.007,4.012,4.012,4.012,4.012,4.0205,4.0391,4.0408,4.0358,4.0282,4.0387,4.0439,4.0439,4.0965,4.1246,4.13,4.1117,4.1267,4.1751,4.1858,4.2008,0.0,0.0,0.0,0.0,0.0,0.0,0.0,0.0,0.0,0.0,0.0,0.0,0.0,0.0,0.0,0.0,0.0,0.0,0.0,0.0,0.0,0.0,0.0,0.0,0.0,0.0,0.0,0.0,0.0,2.5312,2.5312,2.5817,2.6093,2.6093,2.6671,2.72,2.7669,2.8234,2.9118,3.0241,3.0317,3.0934,3.2169,3.2169,3.2182,3.2182,3.2182,3.2182,3.2182,3.2182,3.2182,3.2182,3.2182,3.2182,3.2182,3.2182,3.2182,3.2182,3.2182,3.2182,3.2182,3.2182,3.2444,3.2974,3.4192,3.4993,3.5657,3.6876,3.7329,3.748,3.748,3.748,3.748,3.748,3.748,3.748,3.748,3.8002,3.827,3.7607,3.8523,3.9249,3.887,3.9409,3.9978,4.0248,4.0066,3.9886,3.9886,3.9556,3.9325,3.9379,3.9379,3.9379,3.9379,3.9379,3.9677,4.0392,4.0425,4.0669,4.1276,4.172,4.192,4.192,4.192,4.1476,4.0449,4.0819,4.1388,4.2163,4.259,4.3114,0.0,0.0,0.0,0.0,0.0,0.0,0.0,0.0,0.0,0.0,0.0,0.0,0.0,0.0,0.0,0.0,0.0,0.0,0.0,0.0,0.0,0.0,0.0,0.0,0.0,0.0,0.0,0.0,0.0,0.0,2.5793,2.6334,2.6791,2.7128,2.7669,2.8041,2.8222,2.7741,2.843,3.0317,3.0317,3.0947,3.2182,3.2182,3.2182,3.2182,3.2182,3.2182,3.2182,3.2182,3.2182,3.2182,3.2182,3.2182,3.2182,3.2182,3.2182,3.2182,3.2182,3.2182,3.2182,3.2182,3.2314,3.2574,3.3437,3.4298,3.5175,3.6087,3.6892,3.748,3.748,3.748,3.7591,3.8033,3.8144,3.8254,3.8681,3.8634,3.8444,3.8191,3.8886,3.947,3.9295,3.9531,3.9768,4.0075,4.0227,4.0359,4.0516,4.0249,3.9984,3.9984,3.9553,3.9471,3.9951,3.9537,3.9785,4.0961,4.063,4.0696,4.1375,4.1521,4.1616,4.1616,4.1616,4.1678,4.1818,4.1987,4.2391,4.2913,4.3313,4.3658,0.0,0.0,0.0,0.0,0.0,0.0,0.0,0.0,0.0,0.0,0.0,0.0,0.0,0.0,0.0,0.0,0.0,0.0,0.0,0.0,0.0,0.0,0.0,0.0,0.0,0.0,0.0,0.0,0.0,0.0,2.6081,2.6791,2.7356,2.7717,2.8234,2.8426,2.8246,2.7717,2.8405,3.0317,3.0317,3.0947,3.2182,3.2182,3.2182,3.2182,3.2182,3.2182,3.2182,3.2182,3.2182,3.2182,3.2182,3.2182,3.2182,3.2182,3.2182,3.2182,3.2182,3.2182,3.2182,3.2182,3.2182,3.2314,3.303,3.3822,3.4699,3.5434,3.643,3.7225,3.7225,3.7518,3.7938,3.8397,3.8681,3.8965,3.9408,3.9345,3.9139,3.8886,3.9582,4.0135,3.9914,4.0056,4.0341,4.0671,4.0772,4.0956,4.1236,4.0991,4.0729,4.0729,4.0282,4.0183,4.068,4.0282,4.0498,4.1707,4.1359,4.1425,4.2121,4.2154,4.2154,4.2154,4.2154,4.2422,4.2959,4.2788,4.2929,4.3475,4.4034,4.4431,0.0,0.0,0.0,0.0,0.0,0.0,0.0,0.0,0.0,0.0,0.0,0.0,0.0,0.0,0.0,0.0,0.0,0.0,0.0,0.0,0.0,0.0,0.0,0.0,0.0,0.0,0.0,0.0,0.0,2.6129,2.6142,2.7164,2.7741,2.7741,2.8222,2.8246,2.7753,2.8234,2.9094,3.0317,3.0317,3.0947,3.2182,3.2182,3.2182,3.2182,3.2182,3.2182,3.2182,3.2182,3.2182,3.2182,3.2182,3.2182,3.2182,3.2182,3.2182,3.2182,3.2182,3.2182,3.2182,3.2182,3.2182,3.23,3.296,3.3561,3.4148,3.4912,3.5849,3.6723,3.6739,3.7637,3.8539,3.857,3.906,3.9534,3.9566,4.0119,4.0403,3.9677,4.064,4.1383,4.0735,4.1162,4.172,4.2045,4.1786,4.1626,4.1988,4.1659,4.1442,4.1442,4.1425,4.1425,4.1442,4.1425,4.174,4.2502,4.2535,4.285,4.3595,4.3628,4.3628,4.3628,4.3628,4.3628,4.3628,4.301,4.3133,4.3852,4.4739,4.5536,1.8282,0.0,0.0,0.0,0.0,0.0,0.0,0.0,0.0,0.0,0.0,0.0,0.0,0.0,0.0,0.0,0.0,0.0,0.0,0.0,0.0,0.0,0.0,0.0,0.0,0.0,0.0,0.0,2.6923,2.6875,2.7248,2.7921,2.8294,2.8294,2.8065,2.8053,2.8294,2.8065,2.8725,3.0317,3.0317,3.0947,3.2182,3.2182,3.2182,3.2182,3.2182,3.2182,3.2182,3.2182,3.2182,3.2182,3.2182,3.2182,3.2182,3.2182,3.2182,3.2182,3.2182,3.2182,3.2182,3.2182,3.2182,3.2314,3.2704,3.3353,3.4095,3.4581,3.5657,3.6894,3.7777,3.859,3.936,3.9898,4.0166,4.0435,4.0909,4.1178,4.1114,4.0435,4.1004,4.1525,4.1351,4.1462,4.172,4.2045,4.2188,4.2434,4.2741,4.2417,4.222,4.222,4.174,4.164,4.217,4.1723,4.1955,4.3247,4.2816,4.285,4.3595,4.3628,4.3628,4.3628,4.3628,4.3628,4.3628,4.3776,4.4088,4.4585,4.5473,4.6028,0.0,0.0,0.0,0.0,0.0,0.0,0.0,2.0355,0.0,0.0,0.0,0.0,0.0,0.0,0.0,0.0,0.0,0.0,0.0,0.0,0.0,0.0,0.0,0.0,0.0,0.0,0.0,2.8041,2.7356,2.7164,2.7693,2.8017,2.8186,2.8186,2.8102,2.8198,2.851,2.821,2.8799,3.0317,3.0317,3.0947,3.2182,3.2182,3.2182,3.2182,3.2182,3.2182,3.2182,3.2182,3.2182,3.2182,3.2182,3.2182,3.2182,3.2182,3.2182,3.2182,3.2182,3.2182,3.2182,3.2182,3.2314,3.2444,3.2632,3.3241,3.4002,3.4206,3.5478,3.711,3.8213,3.9234,4.0072,4.0498,4.0814,4.1114,4.1509,4.1588,4.1478,4.1083,4.132,4.1683,4.1999,4.1794,4.1881,4.2639,4.2669,4.2772,4.3235,4.3112,4.2982,4.2982,4.2585,4.2502,4.2949,4.2585,4.27,4.3578,4.3495,4.3611,4.4042,4.4357,4.4373,4.4075,4.4373,4.4522,4.4522,4.4382,4.4614,4.5178,4.5684,4.6248,0.0,0.0,0.0,0.0,0.0,0.0,2.0114,2.0298,2.04,0.0,0.0,0.0,0.0,0.0,0.0,0.0,0.0,0.0,0.0,0.0,0.0,0.0,0.0,0.0,0.0,2.8522,2.8089,2.8558,2.7621,2.7224,2.7693,2.7717,2.7717,2.7717,2.8234,2.851,2.851,2.851,2.9118,3.0317,3.0317,3.0947,3.2182,3.2182,3.2182,3.2182,3.2182,3.2182,3.2182,3.2182,3.2182,3.2182,3.2182,3.2182,3.2182,3.2182,3.2182,3.2182,3.2182,3.2182,3.2182,3.2182,3.2444,3.2704,3.2775,3.3269,3.3854,3.4063,3.5614,3.7422,3.8466,3.9724,4.0704,4.0704,4.1162,4.1588,4.1588,4.1588,4.1604,4.1699,4.1715,4.192,4.2584,4.2141,4.2153,4.3364,4.3022,4.2883,4.3608,4.3678,4.3661,4.3727,4.3744,4.3744,4.3744,4.381,4.386,4.386,4.4456,4.4804,4.4804,4.5433,4.5483,4.4821,4.5467,4.5798,4.5798,4.4867,4.4839,4.5683,4.5736,4.6361,0.0,0.0,0.0,0.0,0.0,0.0,2.0251,2.0671,2.1188,0.0,0.0,0.0,0.0,0.0,0.0,0.0,0.0,0.0,0.0,0.0,0.0,0.0,0.0,0.0,0.0,2.9617,2.9027,2.9136,2.8162,2.7609,2.7717,2.7717,2.7717,2.7717,2.8234,2.851,2.851,2.851,2.9118,3.0317,3.0317,3.0947,3.2182,3.2182,3.2182,3.2182,3.2182,3.2182,3.2182,3.2182,3.2182,3.2182,3.2182,3.2182,3.2182,3.2182,3.2182,3.2182,3.2182,3.2182,3.2182,3.2182,3.2444,3.2775,3.3058,3.3479,3.4146,3.5874,3.738,3.8691,3.9913,4.0783,4.1399,4.1399,4.1494,4.1588,4.1588,4.1588,4.1762,4.2363,4.2473,4.2521,4.2663,4.2568,4.2582,4.275,4.2699,4.3079,4.4346,4.3976,4.3843,4.4423,4.4473,4.4473,4.4473,4.5019,4.5367,4.5367,4.55,4.5582,4.5582,4.5715,4.5715,4.5582,4.5715,4.5798,4.5798,4.5403,4.5563,4.6353,4.6641,4.6936,0.0,0.0,0.0,2.0289,0.0,0.0,0.0,2.1085,2.1607,2.231,0.0,0.0,0.0,0.0,0.0,0.0,0.0,0.0,0.0,0.0,0.0,0.0,0.0,0.0,0.0,2.9523,2.8691,2.8162,2.8114,2.7765,2.6959,2.7681,2.7873,2.7344,2.8102,2.851,2.851,2.8816,2.9419,3.0317,3.062,3.1246,3.2182,3.2182,3.2182,3.2182,3.2182,3.2182,3.2182,3.2182,3.2182,3.2182,3.2182,3.2182,3.2182,3.2182,3.2182,3.2182,3.2182,3.2182,3.2255,3.2372,3.2717,3.3058,3.3409,3.3962,3.4838,3.6501,3.7839,3.9054,4.0291,4.1099,4.1588,4.1588,4.1588,4.1588,4.1588,4.1588,4.1904,4.2995,4.2932,4.2805,4.3137,4.2616,4.2325,4.2816,4.259,4.2747,4.3789,4.3586,4.3564,4.4108,4.4306,4.4372,4.4191,4.5045,4.5445,4.5251,4.593,4.6344,4.6344,4.6692,4.6891,4.6891,4.6162,4.6146,4.6891,4.6412,4.6274,4.6498,4.6735,4.7271,0.0,0.0,0.0,0.0,0.0,2.1289,0.0,0.0,0.0,2.2429,0.0,0.0,0.0,0.0,0.0,0.0,0.0,0.0,0.0,0.0,0.0,0.0,0.0,0.0,0.0,2.9392,2.8378,2.732,2.7933,2.7741,2.6334,2.75,2.7813,2.6959,2.7957,2.851,2.851,2.9118,2.9716,3.0317,3.0921,3.1542,3.2182,3.2182,3.2182,3.2182,3.2182,3.2182,3.2182,3.2182,3.2182,3.2182,3.2182,3.2182,3.2182,3.2182,3.2182,3.2182,3.2241,3.2314,3.2372,3.2704,3.3142,3.3634,3.3882,3.4747,3.5908,3.6808,3.8039,3.9386,4.0415,4.1128,4.1588,4.1588,4.1588,4.1588,4.1588,4.1699,4.2189,4.3469,4.3263,4.3058,4.3627,4.2663,4.2132,4.3085,4.2685,4.2607,4.35,4.348,4.3588,4.3981,4.4292,4.439,4.4108,4.5074,4.5584,4.5367,4.6444,4.7106,4.7106,4.7686,4.8001,4.8001,4.6825,4.6808,4.8001,4.7404,4.6982,4.6814,4.6875,4.7657,0.0,0.0,0.0,0.0,2.2035,0.0,0.0,0.0,2.4599,2.467,0.0,0.0,0.0,0.0,0.0,0.0,0.0,0.0,0.0,0.0,0.0,0.0,0.0,0.0,0.0,0.0,2.9472,2.8414,2.8005,2.7524,2.6875,2.7007,2.7055,2.6935,2.7957,2.851,2.851,2.9118,2.9716,3.0317,3.0921,3.1542,3.2182,3.2182,3.2182,3.2182,3.2182,3.2182,3.2182,3.2182,3.2182,3.2182,3.2182,3.2182,3.2182,3.2182,3.2182,3.2241,3.2574,3.2632,3.2704,3.3129,3.3861,3.4568,3.4369,3.5836,3.7503,3.7285,3.8729,4.0431,4.0707,4.1209,4.1588,4.1588,4.1588,4.1588,4.1588,4.2094,4.2789,4.3532,4.3611,4.3595,4.3706,4.3074,4.2718,4.3165,4.3101,4.3634,4.5273,4.4901,4.4755,4.552,4.5583,4.5732,4.5963,4.67,4.7275,4.7636,4.7785,4.7885,4.7885,4.7968,4.8001,4.8001,4.7835,4.7835,4.8001,4.7918,4.7835,4.7817,4.8279,4.8562,0.0,0.0,0.0,0.0,0.0,0.0,0.0,0.0,2.5397,0.0,0.0,0.0,0.0,0.0,0.0,0.0,0.0,0.0,0.0,0.0,0.0,0.0,0.0,0.0,0.0,0.0,0.0,0.0,0.0,2.7212,2.6045,2.6887,2.7248,2.6947,2.7957,2.851,2.851,2.9419,3.0024,3.0317,3.132,3.1936,3.2182,3.2182,3.2182,3.2182,3.2182,3.2182,3.2182,3.2182,3.2182,3.2182,3.2182,3.2182,3.2182,3.2182,3.2182,3.2241,3.2561,3.2938,3.3456,3.4397,3.5196,3.5639,3.552,3.6423,3.7479,3.7659,3.8652,3.973,4.0171,4.0699,4.1122,4.1122,4.172,4.222,4.222,4.2789,4.3485,4.4148,4.3974,4.3832,4.4227,4.3737,4.3348,4.3468,4.3468,4.3811,4.4777,4.46,4.4603,4.5109,4.5362,4.5443,4.5357,4.6432,4.7106,4.7029,4.7622,4.8001,4.8001,4.8001,4.8001,4.8001,4.8001,4.8216,4.8647,4.8216,4.8216,4.863,4.8668,4.8702,2.1649,0.0,0.0,0.0,0.0,0.0,0.0,0.0,0.0,0.0,0.0,0.0,0.0,0.0,0.0,0.0,0.0,0.0,0.0,0.0,0.0,0.0,0.0,0.0,0.0,0.0,0.0,0.0,2.75,2.7152,2.5829,2.6875,2.7404,2.7152,2.8041,2.851,2.851,2.9716,3.0317,3.033,3.1556,3.2182,3.2182,3.2182,3.2182,3.2182,3.2182,3.2182,3.2182,3.2182,3.2182,3.2182,3.2182,3.2182,3.2182,3.2182,3.2277,3.2486,3.2966,3.3642,3.4548,3.5596,3.623,3.6548,3.6359,3.6904,3.7682,3.7822,3.8512,3.9358,4.0011,4.0631,4.1177,4.1517,4.2312,4.2963,4.2963,4.3516,4.4132,4.4622,4.448,4.4448,4.4938,4.429,4.3785,4.3974,4.399,4.4123,4.4591,4.4607,4.4745,4.4966,4.5208,4.5373,4.532,4.6293,4.6854,4.6799,4.7556,4.8001,4.8001,4.8001,4.81,4.8299,4.8299,4.8564,4.911,4.8564,4.8481,4.8796,4.8718,4.8765,0.0,0.0,0.0,2.4676,0.0,0.0,0.0,0.0,2.7036,0.0,0.0,0.0,0.0,0.0,0.0,0.0,0.0,0.0,0.0,0.0,0.0,0.0,0.0,0.0,0.0,0.0,0.0,2.7777,2.7717,2.7476,2.6911,2.6935,2.7188,2.7681,2.8222,2.851,2.851,2.9716,3.0317,3.033,3.1556,3.2182,3.2182,3.2182,3.2182,3.2182,3.2182,3.2182,3.2182,3.2182,3.2182,3.2182,3.2182,3.2182,3.2182,3.2182,3.2535,3.3172,3.3879,3.5082,3.62,3.6301,3.6751,3.7157,3.6504,3.7607,3.8781,3.7682,3.8555,4.0026,4.0811,4.1392,4.2054,4.3331,4.3605,4.369,4.369,4.4211,4.4685,4.4717,4.527,4.576,4.5776,4.4638,4.3943,4.4591,4.4685,4.4938,4.5649,4.5744,4.5744,4.5744,4.576,4.6032,4.6742,4.686,4.7218,4.7902,4.7984,4.8001,4.8001,4.8001,4.8349,4.9061,4.9077,4.9077,4.911,4.9077,4.8713,4.8034,4.8483,4.8934,0.0,0.0,2.331,2.4774,0.0,0.0,0.0,0.0,0.0,0.0,0.0,0.0,0.0,0.0,0.0,0.0,0.0,0.0,0.0,0.0,0.0,0.0,0.0,0.0,0.0,0.0,0.0,2.726,2.6863,2.6418,0.0,2.6538,2.7007,2.7188,2.8053,2.8657,2.9118,2.9871,3.0469,3.0921,3.1776,3.2182,3.2182,3.2182,3.2182,3.2182,3.2182,3.2182,3.2182,3.2182,3.2182,3.2182,3.2182,3.2182,3.2182,3.2182,3.2304,3.2663,3.4034,3.5384,3.6661,3.6989,3.75,3.7854,3.7636,3.8017,3.8383,3.803,3.8325,3.8811,3.9047,4.0227,4.1357,4.1817,4.3129,4.4369,4.4369,4.4938,4.5444,4.5444,4.5649,4.5807,4.5807,4.5428,4.5191,4.5412,4.5444,4.5523,4.5776,4.5807,4.5807,4.5807,4.5807,4.588,4.6152,4.6615,4.7235,4.7935,4.8001,4.8001,4.8001,4.8481,4.8862,4.911,4.9591,4.9839,4.9839,4.9342,4.8978,4.873,4.8412,4.8467,2.1741,2.2255,0.0,2.4344,2.5068,0.0,2.7166,0.0,0.0,0.0,0.0,0.0,0.0,0.0,0.0,0.0,0.0,0.0,0.0,0.0,0.0,0.0,0.0,0.0,0.0,0.0,2.7416,2.6695,2.6298,2.5949,0.0,0.0,2.7019,2.7212,2.8288,2.904,2.9419,3.0241,3.0846,3.122,3.1863,3.2182,3.2182,3.2182,3.2182,3.2182,3.2182,3.2182,3.2182,3.2182,3.2182,3.2182,3.2182,3.2304,3.2494,3.2494,3.29,3.3553,3.4782,3.6003,3.7082,3.7482,3.7839,3.8202,3.8202,3.8202,3.8246,3.8492,3.8565,3.8728,3.9408,4.0441,4.1489,4.1954,4.3395,4.4777,4.4777,4.5315,4.5807,4.5807,4.5807,4.5807,4.5807,4.5807,4.5807,4.5807,4.5807,4.5807,4.5807,4.5807,4.5807,4.5807,4.5807,4.588,4.5992,4.6545,4.715,4.7787,4.8018,4.8249,4.8398,4.911,4.9624,4.9872,5.0353,5.0469,5.022,4.974,4.9226,4.8696,4.8216,4.8227]},{"header":{"parameterUnit":"m.s-1","parameterCategory":1,"la1":30.6,"la2":29.2853,"lo1":-89.7004,"lo2":-87.6739,"dy":0.0162,"dx":0.0183,"nx":112,"ny":82,"refTime":"2023-03-19T18:00:00:Z","depth":0,"parameterNumber":3,"parameterNumberName":"V-component_of_WINDS"},"data":[0.0,0.0,0.0,0.0,0.0,0.0,0.0,0.0,0.0,0.0,0.0,0.0,0.0,0.0,0.0,0.0,0.0,0.0,0.0,0.0,0.0,0.0,0.0,0.0,0.0,0.0,0.0,0.0,0.0,0.0,0.0,0.0,0.0,0.0,0.0,0.0,0.0,0.0,0.0,0.0,0.0,0.0,0.0,0.0,0.0,0.0,0.0,0.0,0.0,0.0,0.0,0.0,0.0,0.0,0.0,0.0,0.0,0.0,0.0,0.0,0.0,0.0,0.0,0.0,0.0,0.0,0.0,0.0,0.0,0.0,0.0,0.0,0.0,0.0,0.0,0.0,0.0,0.0,0.0,0.0,0.0,0.0,0.0,0.0,0.0,0.0,0.0,0.0,0.0,0.0,0.0,1.4306,1.3362,1.2132,1.0297,0.9979,0.9365,0.809,0.0,0.0,0.0,0.0,0.0,0.0,0.0,0.0,0.0,0.0,0.0,0.0,0.0,0.0,0.0,0.0,0.0,0.0,0.0,0.0,0.0,0.0,0.0,0.0,0.0,0.0,0.0,0.0,0.0,0.0,0.0,0.0,0.0,0.0,0.0,0.0,0.0,0.0,0.0,0.0,0.0,0.0,0.0,0.0,0.0,0.0,0.0,0.0,0.0,0.0,0.0,0.0,0.0,0.0,0.0,0.0,0.0,0.0,0.0,0.0,0.0,0.0,0.0,0.0,0.0,0.0,0.0,0.0,0.0,0.0,0.0,0.0,0.0,0.0,0.0,0.0,0.0,0.0,0.0,0.0,0.0,0.0,0.0,0.0,0.0,0.0,0.0,0.0,0.0,0.0,0.0,0.0,0.0,0.0,0.0,0.0,0.0,0.0,0.0,0.0,0.0,0.0,0.0,0.0,1.4752,1.365,1.2356,1.0547,0.7989,0.7451,0.7102,0.6752,0.0,0.0,0.0,0.0,0.0,0.0,0.0,0.0,0.0,0.0,0.0,0.0,0.0,0.0,0.0,0.0,0.0,0.0,0.0,0.0,0.0,0.0,0.0,0.0,0.0,0.0,0.0,0.0,0.0,0.0,0.0,0.0,0.0,0.0,0.0,0.0,0.0,0.0,0.0,0.0,0.0,0.0,0.0,0.0,0.0,0.0,0.0,0.0,0.0,0.0,0.0,0.0,0.0,0.0,0.0,0.0,0.0,0.0,0.0,0.0,0.0,0.0,0.0,0.0,0.0,0.0,0.0,0.0,0.0,0.0,0.0,0.0,0.0,0.0,0.0,0.0,0.0,0.0,0.0,0.0,0.0,0.0,0.0,0.0,0.0,0.0,0.0,0.0,0.0,0.0,0.0,0.0,0.0,0.0,0.0,0.0,0.0,0.0,0.0,0.0,0.0,0.0,0.0,1.5283,1.4352,1.3824,1.1357,0.9056,0.7382,0.5949,0.5522,0.6185,0.7459,0.0,0.0,0.0,0.0,0.0,0.0,0.0,0.0,0.0,0.0,0.0,0.0,0.0,0.0,0.0,0.0,0.0,0.0,0.0,0.0,0.0,0.0,0.0,0.0,0.0,0.0,0.0,0.0,0.0,0.0,0.0,0.0,0.0,0.0,0.0,0.0,0.0,0.0,0.0,0.0,0.0,0.0,0.0,0.0,0.0,0.0,0.0,0.0,0.0,0.0,0.0,0.0,0.0,0.0,0.0,0.0,0.0,0.0,0.0,0.0,0.0,0.0,0.0,0.0,0.0,0.0,0.0,0.0,0.0,0.0,0.0,0.0,0.0,0.0,0.0,0.0,0.0,0.0,0.0,0.0,0.0,0.0,0.0,0.0,0.0,0.0,0.0,0.0,0.0,0.0,0.0,0.0,0.0,0.0,0.0,0.0,0.0,0.0,0.0,0.0,0.0,0.0,1.556,1.4209,1.3572,1.0403,0.788,0.6527,0.4915,0.4385,0.5306,0.6266,0.0,0.0,0.0,0.0,0.0,0.0,0.0,0.0,0.0,0.0,0.0,0.0,0.0,0.0,0.0,0.0,0.0,0.0,0.0,0.0,0.0,0.0,0.0,0.0,0.0,0.0,0.0,0.0,0.0,0.0,0.0,0.0,0.0,0.0,0.0,0.0,0.0,0.0,0.0,0.0,0.0,0.0,0.0,0.0,0.0,0.0,0.0,0.0,0.0,0.0,0.0,0.0,0.0,0.0,0.0,0.0,0.0,0.0,0.0,0.0,0.0,0.0,0.0,0.0,0.0,0.0,0.0,0.0,0.0,0.0,0.0,0.0,0.0,0.0,0.0,0.0,0.0,0.0,0.0,0.0,0.0,0.0,0.0,0.0,0.0,0.0,0.0,0.0,0.0,0.0,0.0,0.0,0.0,0.0,0.0,0.0,0.0,0.0,0.0,0.0,0.0,0.0,1.5814,1.4553,1.2213,0.97,0.7083,0.4506,0.4089,0.3688,0.313,0.5303,0.0,0.0,0.0,0.0,0.0,0.0,0.0,0.0,0.0,0.0,0.0,0.0,0.0,0.0,0.0,0.0,0.0,0.0,0.0,0.0,0.0,0.0,0.0,0.0,0.0,0.0,0.0,0.0,0.0,0.0,0.0,0.0,0.0,0.0,0.0,0.0,0.0,0.0,0.0,0.0,0.0,0.0,0.0,0.0,0.0,0.0,0.0,0.0,0.0,0.0,0.0,0.0,0.0,0.0,0.0,0.0,0.0,0.0,0.0,0.0,0.0,0.0,0.0,0.0,0.0,0.0,0.0,0.0,0.0,0.0,0.0,0.0,0.0,0.0,0.0,0.0,0.0,0.0,0.0,0.0,0.0,0.0,0.0,0.0,0.0,0.0,0.0,0.0,0.0,0.0,0.0,0.0,0.0,0.0,0.0,0.0,0.0,0.0,0.0,0.0,0.0,0.0,1.5539,1.4118,0.0,0.8986,0.6341,0.424,0.2951,0.2452,0.2836,0.0,0.0,0.0,0.0,0.0,0.0,0.0,0.0,0.0,0.0,0.0,0.0,0.0,0.0,0.0,0.0,0.0,0.0,0.0,0.0,0.0,0.0,0.0,0.0,0.0,0.0,0.0,0.0,0.0,0.0,0.0,0.0,0.0,0.0,0.0,0.0,0.0,0.0,0.0,0.0,0.0,0.0,0.0,0.0,0.0,0.0,0.0,0.0,0.0,0.0,0.0,0.0,0.0,0.0,0.0,0.0,0.0,0.0,0.0,0.0,0.0,0.0,0.0,0.0,0.0,0.0,0.0,0.0,0.0,0.0,0.0,0.0,0.0,0.0,0.0,0.0,0.0,0.0,0.0,0.0,0.0,0.0,0.0,0.0,0.0,0.0,0.0,0.0,0.0,0.0,0.0,0.0,0.0,0.0,0.0,0.0,0.0,0.0,0.0,0.0,0.0,0.0,1.6365,1.53,1.3795,0.0,0.8629,0.5959,0.406,0.2587,0.1882,0.2422,0.0,0.0,0.0,0.0,0.0,0.0,0.0,0.0,0.0,0.0,0.0,0.0,0.0,0.0,0.0,0.0,0.0,0.0,0.0,0.0,0.0,0.0,0.0,0.0,0.0,0.0,0.0,0.0,0.0,0.0,0.0,0.0,0.0,0.0,0.0,0.0,0.0,0.0,0.0,0.0,0.0,0.0,0.0,0.0,0.0,0.0,0.0,0.0,0.0,0.0,0.0,0.0,0.0,0.0,0.0,0.0,0.0,0.0,0.0,0.0,0.0,0.0,0.0,0.0,0.0,0.0,0.0,0.0,0.0,0.0,0.0,0.0,0.0,0.0,0.0,0.0,0.0,0.0,0.0,0.0,0.0,0.0,0.0,0.0,0.0,0.0,0.0,0.0,0.0,0.0,0.0,0.0,0.0,0.0,0.0,0.0,0.0,0.0,0.0,0.0,0.0,0.0,1.6369,1.5164,1.3499,1.1206,0.8472,0.596,0.3957,0.3029,0.2269,0.0,0.0,0.0,0.0,0.0,0.0,0.0,0.0,0.0,0.0,0.0,0.0,0.0,0.0,0.0,0.0,0.0,0.0,0.0,0.0,0.0,0.0,0.0,0.0,0.0,0.0,0.0,0.0,0.0,0.0,0.0,0.0,0.0,0.0,0.0,0.0,0.0,0.0,0.0,0.0,0.0,0.0,0.0,0.0,0.0,0.0,0.0,0.0,0.0,0.0,0.0,0.0,0.0,0.0,0.0,0.0,0.0,0.0,0.0,0.0,0.0,0.0,0.0,0.0,0.0,0.0,0.0,0.0,0.0,0.0,0.0,0.0,0.0,0.0,0.0,0.0,0.0,0.0,0.0,0.0,0.0,0.0,0.0,0.0,0.0,0.0,0.0,0.0,0.0,0.0,0.0,0.0,0.0,0.0,0.0,0.0,0.0,0.0,0.0,0.0,0.0,0.0,0.0,1.6344,1.5146,1.3502,1.1224,0.8472,0.5999,0.3946,0.2695,0.2103,0.2286,0.0,0.0,0.0,0.0,0.0,0.0,0.0,0.0,0.0,0.0,0.0,0.0,0.0,0.0,0.0,0.0,0.0,0.0,0.0,0.0,0.0,0.0,0.0,0.0,0.0,0.0,0.0,0.0,0.0,0.0,0.0,0.0,0.0,0.0,0.0,0.0,0.0,0.0,0.0,0.0,0.0,0.0,0.0,0.0,0.0,0.0,0.0,0.0,0.0,0.0,0.0,0.0,0.0,0.0,0.0,0.0,0.0,0.0,0.0,0.0,0.0,0.0,0.0,0.0,0.0,0.0,0.0,0.0,0.0,0.0,0.0,0.0,0.0,0.0,0.0,0.0,0.0,0.0,0.0,0.0,0.0,0.0,0.0,0.0,0.0,0.0,0.0,0.0,0.0,0.0,0.0,0.0,0.0,0.0,0.0,0.0,0.0,0.0,0.0,0.0,0.0,0.0,1.5989,1.4841,1.3193,1.0947,0.8481,0.621,0.4064,0.294,0.2271,0.2044,0.0,0.0,0.0,0.0,0.0,0.0,0.0,0.0,0.0,0.0,0.0,0.0,0.0,0.0,0.0,0.0,0.0,0.0,0.0,0.0,0.0,0.0,0.0,0.0,0.0,0.0,0.0,0.0,0.0,0.0,0.0,0.0,0.0,0.0,0.0,0.0,0.0,0.0,0.0,0.0,0.0,0.0,0.0,0.0,0.0,0.0,0.0,0.0,0.0,0.0,0.0,0.0,0.0,0.0,0.0,0.0,0.0,0.0,0.0,0.0,0.0,0.0,0.0,0.0,0.0,0.0,0.0,0.0,0.0,0.0,0.0,0.0,0.0,0.0,0.0,0.0,0.0,0.0,0.0,0.0,0.0,0.0,0.0,0.0,0.0,0.0,0.0,0.0,0.0,0.0,0.0,0.0,0.0,0.0,0.0,0.0,0.0,0.0,0.0,0.0,0.0,0.0,1.5478,1.432,1.2735,1.0439,0.8495,0.6444,0.4222,0.3365,0.2532,0.1535,0.0,0.0,0.0,0.0,0.0,0.0,0.0,0.0,0.0,0.0,0.0,0.0,0.0,0.0,0.0,0.0,0.0,0.0,0.0,0.0,0.0,0.0,0.0,0.0,0.0,0.0,0.0,0.0,0.0,0.0,0.0,0.0,0.0,0.0,0.0,0.0,0.0,0.0,0.0,0.0,0.0,0.0,0.0,0.0,0.0,0.0,0.0,0.0,0.0,0.0,0.0,0.0,0.0,0.0,0.0,0.0,0.0,0.0,0.0,0.0,2.4723,0.0,0.0,0.0,0.0,0.0,0.0,0.0,0.0,0.0,0.0,0.0,0.0,0.0,0.0,0.0,0.0,0.0,0.0,0.0,0.0,0.0,0.0,0.0,0.0,0.0,0.0,0.0,0.0,0.0,0.0,0.0,0.0,0.0,0.0,0.0,0.0,0.0,0.0,0.0,0.0,0.0,1.5267,1.4215,1.2629,1.0232,0.8116,0.606,0.4062,0.2774,0.2034,0.2042,0.0,0.0,0.0,0.0,0.0,0.0,0.0,0.0,0.0,0.0,0.0,0.0,0.0,0.0,0.0,0.0,0.0,0.0,0.0,0.0,0.0,0.0,0.0,0.0,0.0,0.0,0.0,0.0,0.0,0.0,0.0,0.0,0.0,0.0,0.0,0.0,0.0,0.0,0.0,0.0,0.0,0.0,0.0,0.0,0.0,0.0,0.0,0.0,0.0,0.0,0.0,0.0,0.0,0.0,0.0,0.0,0.0,0.0,0.0,0.0,0.0,2.5982,0.0,0.0,0.0,0.0,0.0,0.0,0.0,0.0,0.0,0.0,0.0,0.0,0.0,0.0,0.0,0.0,0.0,0.0,0.0,0.0,0.0,0.0,0.0,0.0,0.0,0.0,0.0,0.0,0.0,0.0,0.0,0.0,0.0,0.0,0.0,0.0,0.0,0.0,0.0,0.0,1.4605,1.3902,1.2485,0.9734,0.7897,0.6056,0.4142,0.2324,0.1447,0.1709,0.2412,0.0,0.0,0.0,0.0,0.0,0.0,0.0,0.0,0.0,0.0,0.0,0.0,0.0,0.0,0.0,0.0,0.0,0.0,0.0,0.0,0.0,0.0,0.0,0.0,0.0,0.0,0.0,0.0,0.0,0.0,0.0,0.0,0.0,0.0,0.0,0.0,0.0,0.0,0.0,0.0,0.0,0.0,0.0,0.0,0.0,0.0,0.0,0.0,0.0,0.0,0.0,0.0,0.0,0.0,3.0409,3.0675,3.1399,3.1678,3.1519,3.0175,2.9518,2.9216,0.0,0.0,0.0,0.0,0.0,0.0,0.0,0.0,0.0,0.0,0.0,0.0,0.0,0.0,0.0,0.0,0.0,0.0,0.0,0.0,0.0,0.0,0.0,0.0,0.0,1.5989,1.6178,0.0,0.0,0.0,0.0,0.0,0.0,0.0,0.0,0.0,0.0,0.0,0.0,1.3774,1.3555,1.2345,0.9296,0.7596,0.5979,0.4222,0.2034,0.0932,0.1213,0.1812,0.2795,0.0,0.0,0.0,0.0,0.0,0.0,0.0,0.0,0.0,0.0,0.0,0.0,0.0,0.0,0.0,0.0,0.0,0.0,0.0,0.0,0.0,0.0,0.0,0.0,0.0,0.0,0.0,0.0,0.0,0.0,0.0,0.0,2.78,2.7053,0.0,0.0,0.0,0.0,0.0,0.0,0.0,0.0,0.0,0.0,0.0,0.0,0.0,0.0,2.8445,2.9326,2.9926,3.024,3.1535,3.2525,3.322,3.3394,3.3654,3.3917,3.3069,0.0,2.9702,2.812,0.0,0.0,0.0,0.0,0.0,0.0,0.0,0.0,0.0,0.0,0.0,0.0,0.0,0.0,0.0,0.0,0.0,0.0,0.0,0.0,0.0,0.0,1.7191,1.6837,1.6922,1.7043,0.0,1.6151,1.5498,1.5219,0.0,0.0,0.0,0.0,0.0,0.0,0.0,0.0,1.3013,1.3138,1.2271,0.9074,0.7283,0.5585,0.3986,0.1723,0.0622,0.1137,0.136,0.1919,0.2942,0.4181,0.0,0.0,0.0,0.0,0.0,0.0,0.0,0.0,0.0,0.0,0.0,0.0,0.0,0.0,0.0,0.0,0.0,0.0,0.0,0.0,0.0,0.0,0.0,0.0,0.0,0.0,0.0,0.0,0.0,2.7679,2.7883,2.6457,2.636,2.6216,0.0,0.0,0.0,0.0,0.0,0.0,0.0,0.0,0.0,2.8696,2.8706,2.9112,2.9987,3.0552,3.1158,3.1877,3.2517,3.3096,3.3583,3.3613,3.3274,3.2617,3.2159,3.0913,2.9214,2.9211,2.8759,2.7882,0.0,0.0,0.0,0.0,0.0,2.4812,2.5313,0.0,0.0,0.0,0.0,0.0,0.0,0.0,0.0,0.0,0.0,0.0,0.0,0.0,0.0,1.7961,1.8424,1.8807,1.8412,1.83,1.7829,0.0,1.6195,1.6327,1.6509,0.0,0.0,0.0,0.0,0.0,1.2745,1.3027,1.2271,0.9074,0.7596,0.6053,0.3984,0.2112,0.0937,0.0696,0.1157,0.1893,0.2918,0.388,0.4923,0.0,0.0,0.0,0.0,0.0,0.0,0.0,0.0,0.0,0.0,0.0,0.0,0.0,0.0,0.0,0.0,0.0,0.0,0.0,0.0,0.0,0.0,0.0,0.0,0.0,0.0,0.0,0.0,2.7906,2.8489,2.6723,2.703,2.7043,0.0,0.0,0.0,0.0,0.0,0.0,2.8658,2.8833,2.9373,3.0306,3.0342,3.064,3.1292,3.1447,3.1939,3.2754,3.2724,3.2966,3.3412,3.3167,3.2418,3.1315,3.087,3.0011,2.8987,2.9547,2.9541,2.9033,2.7993,2.7022,2.6217,2.6103,2.6723,2.7629,2.796,2.8053,2.7994,2.7536,0.0,2.311,2.106,0.0,0.0,0.0,0.0,1.7375,1.7882,0.0,1.9024,1.8857,1.9585,2.0233,1.977,2.0077,1.9775,0.0,1.7234,1.721,1.7355,0.0,0.0,0.0,0.0,1.4972,1.2548,1.2855,1.2098,0.9064,0.7871,0.6325,0.3982,0.2422,0.133,0.0628,0.1019,0.1701,0.2784,0.353,0.4514,0.5776,0.0,0.0,0.0,0.0,0.0,0.0,0.0,0.0,0.0,0.0,0.0,0.0,0.0,0.0,0.0,0.0,0.0,0.0,0.0,0.0,0.0,0.0,0.0,0.0,0.0,0.0,0.0,0.0,0.0,2.9087,2.891,0.0,0.0,0.0,0.0,2.766,2.7876,2.8418,2.929,2.9493,3.0351,3.2017,3.2071,3.2107,3.2144,3.2144,3.22,3.2329,3.1881,3.2232,3.3184,3.2222,3.1663,3.1362,3.0502,2.9902,2.9502,2.873,2.8425,2.8365,2.7401,2.7959,2.9168,2.8219,2.9034,3.0411,2.9173,2.9156,2.9472,2.8253,2.6223,2.3879,2.2001,2.0885,0.0,0.0,1.9667,1.9547,1.9745,1.9542,1.9293,1.9439,2.0124,2.0754,2.0712,2.1012,2.0745,0.0,1.8717,1.8414,1.7799,0.0,1.6835,1.5198,1.5549,1.5006,1.2173,1.2255,1.1574,0.8954,0.768,0.6136,0.3977,0.2422,0.1488,0.1257,0.0707,0.0854,0.2042,0.2582,0.309,0.3633,0.4613,0.0,0.0,0.0,0.0,0.0,0.0,0.0,0.0,0.0,0.0,0.0,0.0,0.0,0.0,0.0,0.0,0.0,0.0,0.0,0.0,0.0,0.0,0.0,0.0,0.0,0.0,0.0,0.0,2.9791,3.0435,0.0,0.0,3.0069,3.0231,3.0317,3.1288,3.1787,3.1666,3.1905,3.2154,3.2393,3.2282,3.2,3.1628,3.1628,3.167,3.177,3.1755,3.1704,3.1631,3.1271,3.0719,2.9972,2.9664,2.9199,2.8709,2.8823,2.8828,2.8703,2.8598,2.8874,2.9396,2.9591,3.0326,3.1133,3.0846,3.0852,3.0759,2.9193,2.7387,2.5462,2.3348,2.1953,2.0882,1.9879,1.9763,1.9921,1.9952,2.0083,2.0175,2.0,2.07,2.1237,2.0769,2.1112,2.1083,1.9677,1.9132,1.8514,1.7398,1.7213,1.6653,1.5133,1.5265,1.467,1.2123,1.2219,1.154,0.8954,0.8198,0.6731,0.4053,0.3283,0.2347,0.0785,0.0864,0.1094,0.1548,0.2009,0.268,0.3448,0.3782,0.4067,0.0,0.0,0.0,0.0,0.0,0.0,0.0,0.0,0.0,0.0,0.0,0.0,0.0,0.0,0.0,0.0,0.0,0.0,0.0,0.0,0.0,0.0,0.0,0.0,0.0,0.0,3.2143,3.0392,3.1545,3.2134,3.1258,3.193,3.2386,3.2219,3.3283,3.3639,3.292,3.3226,3.311,3.2519,3.2447,3.1944,3.0974,3.0956,3.1035,3.1187,3.1058,3.097,3.0885,3.0265,2.9608,2.9027,2.8931,2.8678,2.8378,2.9085,2.9352,2.9347,2.9607,2.9704,2.975,3.043,3.1079,3.1657,3.1835,3.1631,3.1072,2.9747,2.8154,2.6436,2.4645,2.2998,2.1574,2.0569,2.0217,2.0202,2.038,2.0477,2.0537,2.0474,2.1068,2.15,2.0822,2.0888,2.0728,1.9447,1.9112,1.8561,1.7,1.683,1.6409,1.4981,1.4943,1.4416,1.2448,1.2164,1.1253,0.8939,0.837,0.697,0.4051,0.3781,0.292,0.0786,0.1021,0.1335,0.1333,0.1796,0.2414,0.3099,0.3483,0.3699,0.3904,0.0,0.0,0.0,0.0,0.0,0.0,0.0,0.0,0.0,0.0,0.0,0.0,0.0,0.0,0.0,0.0,0.0,0.0,0.0,0.0,0.0,0.0,0.0,3.037,3.1777,3.2428,3.1268,3.2319,3.2782,3.2076,3.3083,3.3585,3.3066,3.3547,3.3559,3.2952,3.3214,3.3093,3.2509,3.2636,3.1924,3.0282,3.0286,3.0376,3.0567,2.9805,3.002,3.1025,2.9171,2.8464,2.8708,2.8412,2.8409,2.8616,2.9339,2.9827,3.0129,3.0247,3.0348,3.045,3.0708,3.1328,3.2064,3.2048,3.1349,3.0366,2.9825,2.8372,2.6682,2.5732,2.4047,2.2419,2.2026,2.1242,2.0571,2.1048,2.0701,2.033,2.0862,2.1284,2.1408,2.087,2.04,1.974,1.8556,1.8752,1.8551,1.6703,1.6562,1.6189,1.4758,1.4656,0.0,1.3041,1.2058,1.0758,0.89,0.818,0.6783,0.4046,0.3754,0.3049,0.1416,0.1335,0.1335,0.1335,0.1874,0.2212,0.2262,0.3576,0.411,0.3907,0.0,0.0,0.0,0.0,0.0,0.0,0.0,0.0,0.0,0.0,0.0,0.0,0.0,0.0,0.0,0.0,0.0,0.0,0.0,0.0,0.0,0.0,3.33,3.2423,3.3202,3.4054,3.4585,3.4673,3.4739,3.4709,3.5351,3.5203,3.3969,3.4337,3.4175,3.3183,3.273,3.2346,3.2006,3.1344,3.0572,2.9665,2.9735,2.987,3.0015,3.0038,3.0237,3.0554,2.9449,2.8962,2.8948,2.8286,2.803,2.8115,2.8303,2.8472,2.8718,2.9854,3.043,3.0633,3.0749,3.0914,3.1067,3.0925,3.018,2.9179,2.8593,2.7292,2.5689,2.4259,2.2964,2.1823,2.0936,2.0334,1.9995,2.0395,2.0485,2.0514,2.0599,2.0872,2.0816,1.9737,1.9391,1.8936,1.776,1.7297,1.6789,1.5802,1.6111,1.5953,1.4297,0.0,0.0,1.2416,1.192,1.0849,0.8479,0.807,0.6763,0.3744,0.3544,0.2841,0.0,0.1236,0.1234,0.1335,0.1349,0.1305,0.1002,0.2128,0.3226,0.0,0.0,0.0,0.0,0.0,0.0,0.0,0.0,0.0,0.0,0.0,0.0,0.0,0.0,0.0,0.0,0.0,0.0,0.0,0.0,0.0,0.0,3.4586,3.5238,3.5241,3.4899,3.5026,3.5881,3.5616,3.5526,3.5793,3.6074,3.5719,3.4443,3.4588,3.4329,3.3422,3.2766,3.2206,3.1786,3.1038,3.0298,2.9608,2.9729,2.9858,2.9965,3.0183,3.0155,2.9881,2.9437,2.8844,0.0,2.8368,2.8109,2.7524,2.8178,2.8281,0.0,0.0,0.0,0.0,0.0,3.063,3.0392,2.9902,2.9212,2.8396,2.7475,2.6132,2.4628,2.3482,2.223,2.1064,2.0385,2.005,1.998,2.0361,2.053,2.063,2.0681,2.0581,2.0177,1.9222,1.875,1.8171,1.7118,0.0,0.0,1.4937,1.5513,1.5572,1.4167,1.4503,1.4292,0.0,1.2,1.0883,0.8517,0.8061,0.6888,0.4288,0.3791,0.0,0.0,0.0,0.1209,0.12,0.1041,0.0,0.0,0.0,0.2854,0.0,0.0,0.0,0.0,0.5911,0.6506,0.0,0.0,0.0,0.0,0.0,0.0,0.0,0.0,0.0,0.0,0.0,0.0,0.0,0.0,0.0,0.0,3.6577,3.7004,3.8148,3.6664,3.5661,3.6234,3.5915,3.5786,3.6088,3.6007,3.5576,3.4818,3.4541,3.4146,3.3616,0.0,0.0,0.0,0.0,3.0658,2.9934,3.0061,3.0184,3.0239,3.0306,2.9941,2.9242,2.9292,2.8389,2.6883,2.8368,2.8142,2.6845,2.8198,2.8476,2.8156,2.9049,2.9464,2.9643,3.0278,3.0242,0.0,0.0,0.0,0.0,2.6332,2.4873,2.3505,2.2886,2.1633,2.0361,2.0189,2.0174,2.0277,2.0646,2.0663,2.0648,2.0829,2.028,1.9543,1.8999,1.8224,1.7407,1.66,1.5656,1.4834,1.4316,1.4864,1.5038,1.4175,1.4466,0.0,1.2922,1.2029,1.0752,0.8733,0.0,0.0,0.5098,0.4211,0.3354,0.2493,0.1602,0.1033,0.0913,0.0733,0.0441,0.0,0.1395,0.2823,0.4384,0.4306,0.4292,0.4278,0.5408,0.5675,0.0,0.0,0.0,0.0,0.0,0.0,0.0,0.0,0.0,0.0,0.0,0.0,0.0,0.0,0.0,3.7988,3.8219,3.8407,3.893,3.7948,3.7354,3.8022,3.7658,3.7379,3.7506,3.6949,3.6374,3.5757,3.4462,3.3592,3.3368,3.197,0.0,3.145,3.0708,3.0237,3.0145,3.0263,3.0385,3.0447,0.0,0.0,2.944,2.9391,2.8449,2.6823,2.709,2.6656,2.5775,2.5915,2.6727,2.7964,2.8942,2.961,3.0009,2.9448,2.9063,2.8631,2.7448,2.6432,2.5523,2.446,2.3342,2.2236,2.1215,2.0673,0.0,1.9925,1.998,2.0208,2.0292,2.0413,2.0447,2.0177,1.9621,1.8939,1.8198,1.7353,1.66,1.6039,1.5175,1.4512,1.4373,1.4476,1.432,1.3652,1.3771,1.3388,1.178,1.1489,1.0362,0.7716,0.774,0.6968,0.457,0.3842,0.3096,0.2297,0.1177,0.029,-0.0351,0.0566,0.0709,0.0,0.137,0.2973,0.4724,0.4442,0.4117,0.389,0.5694,0.6071,0.0,0.0,0.0,0.0,0.0,0.0,0.0,0.0,0.0,0.0,0.0,3.4842,0.0,0.0,3.8419,4.0162,3.987,3.9522,3.9797,3.9026,3.8355,3.8222,3.8171,3.8209,3.8352,3.74,3.6518,3.5862,3.4394,3.3377,3.2914,3.1713,3.0967,3.0746,3.0463,3.0114,2.9699,3.0236,3.0525,3.054,3.0611,2.9996,2.8825,2.9677,2.8814,2.6757,2.7651,2.7454,2.6463,2.589,2.614,2.6945,2.7426,2.8371,2.9437,2.8913,2.823,2.7435,2.6262,2.5287,2.4397,2.3257,2.2327,2.1505,2.0731,2.0342,2.015,1.9833,1.996,2.0208,2.0208,2.0193,2.0143,1.9969,1.931,1.8496,1.7626,1.6967,1.6213,1.5299,1.4731,1.4403,1.4366,1.4123,1.3809,1.3313,1.3726,1.3441,1.1496,1.1134,1.0124,0.7545,0.7517,0.6968,0.5167,0.4089,0.3011,0.1719,0.0578,-0.0143,-0.0206,0.0139,0.0346,0.0337,0.1921,0.3136,0.4001,0.3926,0.3766,0.3583,0.4143,0.4226,0.0,0.0,0.0,0.0,0.0,0.0,0.0,0.0,3.3132,3.4778,3.5881,3.725,3.9582,3.9331,3.9649,4.2216,4.1415,4.0504,4.0734,3.9965,3.9088,3.8361,3.8581,3.8782,3.8775,3.7675,3.6623,3.5852,3.4356,3.3207,3.2673,3.1564,3.064,2.9979,3.0016,2.9783,2.9235,2.9815,3.0286,3.0621,3.044,2.9637,2.8343,2.9905,2.921,2.684,2.8186,2.8145,2.7109,2.6446,2.6246,2.6326,2.6169,2.6994,2.8245,2.7985,2.7213,2.6096,2.4965,2.4189,2.3519,2.2316,2.1565,2.1039,2.0614,2.0289,1.997,1.9848,1.998,2.0174,2.0104,1.9984,1.9864,1.9722,1.8954,1.8001,1.7149,1.6489,1.5776,1.464,1.4326,1.4243,1.4281,1.4004,1.3622,1.3305,1.3771,1.3353,1.1309,1.0873,0.9922,0.7776,0.7422,0.6867,0.5661,0.4372,0.2978,0.1404,0.0142,-0.0422,0.0,-0.041,-0.0203,0.0711,0.2242,0.303,0.3018,0.3258,0.3306,0.3166,0.2332,0.2154,2.6467,2.7135,2.8681,3.046,3.1097,3.2577,0.0,0.0,3.7729,3.9777,4.1211,4.2108,4.2142,4.2823,4.3479,4.3852,4.2595,4.1605,4.1656,4.0684,3.9978,3.9942,3.9834,3.9469,3.8784,3.7989,3.7252,3.6626,3.4348,3.3024,3.3115,3.0899,2.9566,2.948,2.8766,2.8697,2.9372,2.8706,2.9166,3.0673,2.9897,2.9347,2.9019,2.9921,2.9217,2.7268,2.6708,2.6294,2.6005,2.634,2.687,2.7469,2.7037,2.6675,2.6347,2.5852,2.5275,2.4545,2.318,2.2571,2.2237,2.126,2.0909,2.0745,2.0308,2.008,1.997,1.9848,1.998,2.0139,1.9854,1.9823,1.9722,1.9072,1.8052,1.7107,1.6672,1.5555,1.4605,1.4419,1.3999,1.3813,1.4231,1.4274,1.4096,1.3792,1.3177,1.2174,1.0751,1.0434,0.9682,0.7856,0.7534,0.6676,0.4876,0.3841,0.2946,0.2095,0.048,-0.0609,-0.0941,-0.0987,-0.0389,0.0969,0.176,0.2288,0.2467,0.2646,0.2547,0.2188,0.1946,0.1848,2.8952,3.0043,0.0,0.0,3.4797,3.6628,3.9468,3.9835,4.008,4.1805,4.3023,4.3746,4.3483,4.4027,4.4504,0.0,4.3734,4.2964,4.2654,4.1735,4.0938,4.0548,4.0051,3.977,3.9857,3.8695,3.7627,3.6879,3.4428,3.2814,3.2458,3.0953,2.9667,2.8724,2.8802,2.8747,2.852,2.8624,2.9225,3.0288,2.9419,2.889,2.8709,2.9031,2.8677,2.774,2.7567,2.6723,2.5485,2.5947,2.5796,2.523,2.4992,2.4593,2.4176,2.4712,2.4318,2.341,2.2659,2.2057,2.1516,2.0991,2.0662,2.046,2.017,2.0045,1.997,1.9848,1.9854,1.9889,1.9762,1.9479,1.9169,1.886,1.7747,1.6617,1.612,1.5186,1.4233,1.3695,1.36,1.3751,1.4256,1.4119,1.3929,1.3929,1.3339,1.2274,1.0458,1.0155,0.9384,0.7456,0.6966,0.5964,0.3954,0.3515,0.2811,0.1641,0.0541,-0.0133,-0.0328,-0.0324,-0.0063,0.0491,0.1571,0.2139,0.2043,0.245,0.249,0.2115,0.1683,0.1519,3.0068,0.0,0.0,3.5501,3.7913,4.0103,4.0924,4.1548,4.2221,4.3235,4.3964,4.4405,4.4395,4.4545,0.0,4.5067,4.4591,4.4023,4.3643,4.2635,4.1643,4.0812,4.0076,3.9726,3.9957,3.8719,3.7629,3.7009,3.4549,3.2846,3.2306,3.0983,2.9694,2.8504,2.876,2.8662,2.8143,2.8462,2.9094,2.9991,2.9055,2.8638,2.8645,2.8332,2.8035,2.7798,2.7606,2.6726,2.539,2.5362,2.4775,2.3898,2.3517,2.3153,2.2917,2.3571,2.3241,2.2415,2.1984,2.1456,2.0894,2.053,2.0254,2.0061,2.003,1.9925,1.9848,1.9848,1.9762,1.969,1.9581,1.9161,1.8693,1.833,1.7231,1.6102,1.5463,1.4744,1.4031,1.3476,1.3506,1.38,1.4427,1.4045,1.3624,1.3817,1.3381,1.2336,1.0268,0.9767,0.8865,0.712,0.6714,0.5723,0.3689,0.3413,0.28,0.1463,0.0664,0.0262,0.0318,0.0315,0.0308,0.0354,0.1516,0.2064,0.179,0.224,0.2352,0.2071,0.1625,0.1402,0.0,0.0,3.4264,3.6192,3.9313,4.2119,4.2919,4.4013,4.4798,4.46,4.4478,4.4562,4.5074,4.4741,4.4685,4.553,4.5064,4.4587,4.4556,4.3248,4.1912,4.0915,4.0154,3.9301,0.0,3.7546,3.7113,3.7099,3.473,3.3283,3.3264,3.0767,2.9285,2.9179,2.8183,2.8003,2.8771,2.7894,2.8308,2.9988,2.8912,2.8743,2.9343,2.815,2.751,2.7236,2.5756,2.5389,2.5786,2.4497,2.4398,2.4923,2.3684,2.3194,2.308,2.2228,2.1781,2.1505,2.0733,2.0385,2.0212,1.9654,1.9465,1.9487,1.9732,1.966,1.9566,1.9884,1.9848,1.9603,1.9213,1.895,1.8447,1.7162,1.6293,1.5496,1.4628,1.3999,1.3745,1.42,1.3872,1.3896,1.484,1.4214,1.3549,1.333,1.285,1.1911,1.0205,0.9139,0.8112,0.699,0.6863,0.6207,0.442,0.362,0.285,0.2127,0.0901,0.0318,0.0555,0.0599,0.0706,0.0939,0.1537,0.1793,0.179,0.179,0.1846,0.179,0.179,0.1624,0.0,0.0,3.7341,3.975,4.2191,4.4083,4.4443,4.4997,4.5281,4.4595,4.3564,4.2618,4.221,4.2066,4.2299,4.316,4.416,4.4792,4.4798,4.4355,4.3671,4.2715,4.1785,0.0,0.0,0.0,0.0,3.6899,3.4546,3.3064,3.2963,3.1058,2.9685,2.9094,2.8624,2.8464,2.8594,2.8116,2.839,2.9395,2.8765,2.8195,2.7682,2.7665,2.7508,2.7181,2.5998,2.5292,2.4947,2.3893,2.3289,2.2994,2.2584,2.2235,2.196,2.1497,2.1023,2.0599,2.0467,2.0108,1.9675,1.9487,1.9413,1.9413,1.9406,1.9281,1.9132,1.9199,1.9049,1.8884,1.8745,1.8383,1.7894,1.7162,1.6219,1.5276,1.4709,1.4328,1.4019,1.3902,1.4236,1.4641,1.5009,1.4505,1.3789,1.2915,1.1655,1.0647,1.0078,0.9332,0.8366,0.7055,0.712,0.626,0.3749,0.3351,0.265,0.1421,0.1159,0.1071,0.1139,0.1301,0.1453,0.1536,0.1857,0.1959,0.179,0.2184,0.2296,0.2071,0.2071,0.1903,0.0,3.6211,3.9491,4.1778,4.3806,4.5263,4.5351,4.5365,4.5176,4.4633,4.2698,4.1033,4.0791,4.0555,4.0487,4.0739,4.2315,4.3612,4.3935,4.3704,4.3479,4.3364,4.254,0.0,0.0,0.0,0.0,3.7194,3.5084,3.364,3.3264,3.19,3.0696,2.9742,2.9551,2.9202,2.8671,2.8457,2.8669,2.9302,2.8764,2.8228,2.7698,2.7401,2.729,2.7224,2.586,2.5111,2.4777,2.3553,2.2715,2.2202,2.1864,2.1493,2.1087,2.091,2.0398,1.9803,1.9984,1.9681,1.9228,1.9116,1.9078,1.9078,1.9087,1.8945,1.8755,1.8808,1.8655,1.8461,1.8305,1.7854,1.7365,1.6999,1.6086,1.5256,1.5012,1.4722,1.4491,1.4438,1.4712,1.5002,1.5044,1.4378,1.3511,1.265,1.1185,1.0136,1.0104,0.9402,0.8431,0.7125,0.7195,0.6199,0.3416,0.3351,0.2772,0.1209,0.146,0.1667,0.1683,0.185,0.2002,0.2128,0.2296,0.2296,0.2127,0.2521,0.2577,0.2352,0.224,0.2071,3.4143,3.7452,4.0595,4.2278,4.4183,4.5658,4.5716,4.5209,4.4676,4.454,4.1905,3.9858,0.0,0.0,3.9325,3.8583,3.996,4.1448,4.2363,4.1788,4.176,0.0,0.0,0.0,0.0,0.0,0.0,3.795,0.0,3.4906,3.4083,3.3096,3.2074,3.1012,3.0731,3.0071,2.9016,2.8905,2.9123,2.9728,2.8927,2.8856,2.9265,2.739,2.6877,2.7299,2.5354,2.4818,2.5178,2.3389,2.2667,2.2537,2.1631,2.099,2.061,2.0457,1.9919,1.9265,1.9413,1.9197,1.8836,1.8581,1.8531,1.8599,1.8798,1.8711,1.8584,1.8851,1.8711,1.8402,1.7963,1.7515,1.7046,1.6636,1.5972,1.547,1.545,1.5216,1.5163,1.5608,1.5315,1.5017,1.4914,1.3881,1.2941,1.2553,1.1354,1.0457,1.034,0.9408,0.8376,0.7335,0.7204,0.6137,0.3416,0.3553,0.3146,0.1487,0.1791,0.2102,0.2196,0.2245,0.2357,0.2691,0.2691,0.2691,0.2747,0.2747,0.2747,0.2747,0.2408,0.2127,3.7424,3.9662,4.1892,4.3712,4.4567,4.5144,4.583,4.5397,4.4294,4.2346,4.0271,3.827,0.0,0.0,0.0,3.9268,4.14,0.0,4.4986,4.4895,0.0,0.0,0.0,4.4001,4.3039,4.2077,0.0,0.0,3.6635,3.494,3.4471,3.3033,3.173,3.0667,3.0435,2.9871,2.9016,2.9307,2.9637,2.9907,2.9713,2.9117,2.8201,2.7673,2.7063,2.6333,2.5211,2.4479,2.3983,2.2916,2.2151,2.1583,2.1006,2.091,2.1084,2.0688,2.0182,1.9767,2.0269,1.9623,1.8581,1.8517,1.8787,1.9107,1.8722,1.8919,1.922,1.8852,1.8762,1.872,1.8274,1.808,1.7844,1.7171,1.6711,1.6291,1.5811,1.5774,1.5806,1.5714,1.5624,1.5342,1.4915,1.4083,1.3409,1.3019,1.1687,1.0615,1.0314,0.9536,0.8501,0.7335,0.7265,0.6195,0.3416,0.3553,0.3173,0.166,0.2103,0.2422,0.233,0.2559,0.2644,0.2691,0.2691,0.2858,0.3249,0.3249,0.3357,0.3688,0.3463,0.3239,3.8856,4.0578,4.2323,4.3695,4.436,4.4628,4.4313,4.3622,4.2449,4.0306,3.8196,0.0,0.0,0.0,0.0,0.0,0.0,0.0,4.3653,4.4273,4.4838,0.0,4.5342,0.0,4.4398,4.3071,4.1763,0.0,3.8037,3.6015,3.5007,3.4068,3.2869,3.1426,3.1244,3.0691,2.9668,2.9927,3.0214,3.0477,3.0144,2.9655,2.8952,2.8433,2.7662,2.6656,0.0,2.5232,2.4463,2.3643,2.2937,2.228,2.172,2.1368,2.1181,2.0926,2.052,2.0158,2.05,2.0075,1.9346,1.9346,1.9348,1.9376,1.936,1.9445,1.9537,1.9198,1.9008,1.8819,1.8376,1.8201,1.7991,1.7601,1.7198,1.6786,1.6488,1.6439,1.6367,1.6296,1.6058,1.5821,1.5482,1.4663,1.3953,1.3615,1.2268,1.1129,1.0884,0.9854,0.8689,0.7391,0.7326,0.6396,0.4018,0.4156,0.3774,0.2449,0.2862,0.303,0.2888,0.3018,0.314,0.3246,0.3246,0.3413,0.3635,0.3635,0.3747,0.391,0.3798,0.3594,3.9393,4.083,4.2288,4.3047,4.3879,4.4046,4.231,4.1304,4.0218,3.8415,0.0,0.0,3.5512,0.0,3.6715,3.5426,0.0,4.1056,4.147,4.2546,4.3818,4.5207,4.5243,4.5058,4.4852,4.3139,4.1961,4.1863,3.9626,3.7443,3.5588,3.5377,3.4434,3.2474,3.2265,3.1699,3.0672,3.0594,3.0836,3.1304,3.0503,3.0265,3.0446,2.9289,2.838,2.7623,0.0,0.0,2.5745,2.4883,2.4196,2.3622,2.273,2.1961,2.1333,2.1249,2.104,2.0765,2.0864,2.0779,2.0611,2.0456,2.0063,1.9726,2.0203,2.0164,1.9944,1.9714,1.9456,1.9167,1.8677,1.8363,1.8153,1.8152,1.7721,1.7299,1.74,1.7159,1.6943,1.6987,1.6569,1.6211,1.6204,1.5283,1.4511,1.4313,1.2931,1.1857,1.165,1.029,0.8882,0.7647,0.7451,0.6662,0.4888,0.4954,0.4638,0.3558,0.377,0.3843,0.3613,0.3553,0.3652,0.3965,0.4024,0.4024,0.4079,0.4079,0.4021,0.3965,0.3812,0.3696,4.0672,4.1398,4.229,4.315,4.3411,4.3206,4.2216,4.1402,0.0,0.0,0.0,3.625,3.4883,3.5863,0.0,3.9155,0.0,0.0,0.0,0.0,4.5189,0.0,0.0,0.0,0.0,0.0,0.0,0.0,0.0,0.0,3.6149,3.533,3.3988,3.1977,3.1337,3.1159,3.1492,3.1158,3.1446,3.2328,3.138,3.0723,3.0319,2.9542,2.8735,2.7931,0.0,0.0,2.6426,2.5171,2.4288,2.3545,2.1954,2.1838,2.2511,2.2167,2.2278,2.2704,2.3287,2.2794,2.1707,2.0723,2.0653,2.0878,2.0253,2.0909,2.1574,2.0427,2.0617,2.0974,2.0164,1.9897,1.9764,1.9437,1.9287,1.9066,1.8544,1.7967,1.7451,1.7061,1.6578,1.6168,1.6063,1.5256,1.4655,1.4595,1.3346,1.2265,1.1945,1.0405,0.9075,0.8361,0.7777,0.6859,0.5536,0.5213,0.4809,0.4191,0.4338,0.4403,0.427,0.4136,0.4017,0.4024,0.4024,0.419,0.4577,0.4463,0.4574,0.4853,0.4737,0.4636,4.1439,4.1786,4.2287,4.3516,4.3452,4.2633,4.0804,0.0,0.0,0.0,0.0,3.6122,3.6164,0.0,0.0,0.0,0.0,0.0,0.0,0.0,0.0,0.0,0.0,0.0,0.0,0.0,0.0,0.0,0.0,0.0,3.6006,3.4631,3.3436,3.2455,3.1845,3.1668,3.1921,3.1882,3.2018,3.2229,3.2117,3.1616,3.0833,3.0418,2.9606,2.8535,2.8412,0.0,2.6748,2.602,2.5215,2.4323,2.3437,2.3262,2.3478,2.3251,2.335,2.3645,2.4005,2.3723,2.3069,2.2493,2.2269,2.218,2.1938,2.23,2.2596,2.1811,2.1583,2.1443,2.0836,2.0505,2.0216,1.9795,1.957,1.931,1.8819,1.8516,1.8134,1.7416,1.7021,1.6702,1.6365,1.5711,1.5257,1.528,1.3862,1.2687,1.2383,1.077,0.9408,0.8805,0.7907,0.712,0.6326,0.5811,0.5352,0.5017,0.4951,0.4859,0.4789,0.4571,0.4538,0.4688,0.4688,0.4798,0.5022,0.4853,0.4904,0.5018,0.4988,0.4988,4.1832,4.2207,4.268,4.3888,4.3573,4.2235,3.9528,3.8288,0.0,0.0,0.0,0.0,0.0,0.0,0.0,0.0,0.0,0.0,0.0,0.0,0.0,0.0,0.0,0.0,0.0,0.0,0.0,0.0,0.0,0.0,3.5966,3.4203,3.3198,3.3102,3.2753,3.2424,3.2194,3.2548,3.2591,3.2293,3.2607,3.2387,3.17,3.1446,3.0733,2.9691,2.9426,0.0,0.0,2.716,2.6394,2.5492,2.5052,2.4848,2.4681,2.4554,2.4681,2.4906,2.4906,2.4822,2.4709,2.4709,2.4039,2.3343,2.3492,2.3453,2.3284,2.2883,2.2279,2.1738,2.1305,2.084,2.0464,2.0197,1.9916,1.9622,1.9474,1.9403,1.9078,1.8288,1.7891,1.7497,1.6926,1.6315,1.5917,1.5917,1.4371,1.3112,1.2794,1.1127,0.9793,0.9187,0.8235,0.7517,0.7321,0.6671,0.6148,0.5877,0.5672,0.543,0.5214,0.5002,0.5001,0.5297,0.5333,0.5353,0.5302,0.5222,0.5065,0.4956,0.5068,0.502,4.1703,4.2917,4.4025,4.4145,4.3502,4.2145,3.949,0.0,0.0,0.0,0.0,0.0,0.0,0.0,0.0,0.0,0.0,0.0,0.0,0.0,0.0,0.0,0.0,0.0,0.0,0.0,0.0,0.0,0.0,0.0,0.0,3.4963,3.3888,3.3459,3.3354,3.3066,3.2582,3.2897,3.3242,3.3644,3.2747,3.2567,3.2997,3.2378,3.202,3.186,0.0,0.0,0.0,2.8459,2.7565,2.6784,2.5512,2.5624,2.6497,2.5936,2.6455,2.7439,2.7439,2.7045,2.6554,2.6554,2.5388,2.3918,2.3396,2.358,2.381,2.2794,2.2502,2.2384,2.192,2.1436,2.1198,2.1617,2.1447,2.1296,2.1778,2.133,2.0646,1.9991,1.9183,1.8349,1.775,1.6876,1.6293,1.6285,1.4647,1.3373,1.3127,1.1418,1.0131,0.9831,0.8963,0.8431,0.8635,0.7977,0.7316,0.6793,0.6672,0.6233,0.5582,0.5405,0.5349,0.5301,0.545,0.5534,0.537,0.5407,0.5295,0.5111,0.5095,0.5111,4.2656,4.3669,4.4212,4.4729,4.3024,4.096,3.9871,0.0,0.0,0.0,0.0,0.0,3.8878,0.0,0.0,0.0,0.0,0.0,0.0,0.0,0.0,0.0,0.0,0.0,0.0,0.0,0.0,0.0,0.0,0.0,0.0,3.5625,3.4197,3.364,3.335,3.3053,3.2664,3.3001,3.3228,3.3368,3.3372,3.3275,3.3145,3.2869,3.2305,3.1518,0.0,0.0,0.0,2.8749,2.8141,2.7607,2.6919,2.6961,2.7355,2.7116,2.734,2.7776,2.7776,2.7607,2.7397,2.7397,2.6763,2.573,2.4613,2.4338,2.4199,2.3607,2.3256,2.3056,2.2874,2.2449,2.2122,2.2329,2.2308,2.2162,2.2172,2.1929,2.128,1.9889,1.9321,1.8673,1.7428,1.6733,1.6336,1.6345,1.513,1.3912,1.3171,1.2038,1.0956,1.02,0.9315,0.8838,0.9053,0.8508,0.8044,0.785,0.7777,0.7438,0.6782,0.687,0.6678,0.6023,0.6263,0.6125,0.5537,0.543,0.5279,0.5093,0.556,0.5765,4.2451,4.3689,4.4388,4.4995,4.2846,4.0539,0.0,0.0,0.0,3.7638,3.818,3.8757,3.9569,3.9489,3.9081,3.8483,0.0,3.8571,0.0,0.0,0.0,0.0,0.0,0.0,0.0,0.0,0.0,0.0,0.0,0.0,0.0,3.6388,3.5029,3.4235,3.3921,3.3545,3.3185,3.3448,3.3616,3.3712,3.3971,3.3841,3.3388,3.3208,3.2604,3.1659,0.0,0.0,0.0,2.9144,2.8742,2.8234,2.8102,2.8169,2.831,2.831,2.8436,2.8619,2.8816,2.8633,2.831,2.831,2.7746,2.6919,2.5836,2.5159,2.4695,2.4453,2.3876,2.3385,2.323,2.2933,2.2708,2.2868,2.2903,2.288,2.2831,2.2725,2.2056,2.0282,1.9767,1.9173,1.762,1.6927,1.6636,1.6533,1.5519,1.4386,1.3249,1.2431,1.1475,1.0426,0.9806,0.944,0.9513,0.9247,0.8896,0.8591,0.8562,0.8196,0.7481,0.7767,0.7542,0.6803,0.7061,0.6862,0.6136,0.6072,0.5972,0.5786,0.6287,0.6667,4.0534,4.2737,4.4776,4.4802,4.3073,4.1358,0.0,0.0,0.0,3.851,3.8384,3.8353,3.9177,3.9017,3.881,3.881,3.8022,0.0,0.0,0.0,0.0,0.0,0.0,0.0,0.0,0.0,0.0,0.0,0.0,0.0,0.0,3.735,3.6664,3.5436,3.5311,3.4975,3.4267,3.4399,3.4708,3.5153,3.4441,3.4101,3.4084,3.3459,3.313,0.0,0.0,0.0,0.0,2.9829,2.944,2.887,2.875,2.9055,2.9588,2.9588,2.9968,3.0586,3.1232,3.0642,2.9588,2.9588,2.8318,2.6829,2.6816,2.6118,2.5306,2.5039,2.4251,2.3313,2.2809,2.2685,2.2811,2.3246,2.3361,2.3569,2.4074,2.3886,2.3117,2.1649,2.0874,2.0022,1.8656,1.7864,1.7329,1.697,1.5905,1.4668,1.3279,1.2431,1.1475,1.0426,1.0562,1.0604,1.0281,1.0257,0.9863,0.8985,0.8902,0.8427,0.7414,0.7576,0.7598,0.7379,0.7767,0.7762,0.7394,0.7599,0.7572,0.7381,0.7381,0.7647,3.9902,4.1191,4.2046,4.2831,4.0726,3.8764,3.9872,0.0,0.0,3.7792,3.8353,3.872,3.8925,3.8674,3.8449,3.8449,3.7994,0.0,0.0,0.0,0.0,0.0,0.0,0.0,0.0,0.0,0.0,0.0,0.0,0.0,0.0,3.8421,3.764,3.614,3.604,3.592,3.5675,3.5711,3.5825,3.5946,3.572,3.5106,3.424,3.4064,0.0,0.0,0.0,0.0,0.0,2.9752,2.9791,3.0003,2.994,3.0333,3.0895,3.0895,3.1021,3.1204,3.1415,3.1232,3.083,3.0606,2.9659,2.8695,2.8785,2.7105,2.5051,2.4597,2.4198,2.4001,2.4192,2.42,2.4338,2.4866,2.4717,2.4499,2.4648,2.4356,2.3508,2.1745,2.1115,2.0411,1.8665,1.7873,1.7346,1.6978,1.637,1.5576,1.4292,1.3452,1.2625,1.1742,1.123,1.0882,1.0622,1.0761,1.0605,1.0125,1.0249,1.0018,0.9302,0.9409,0.9221,0.8537,0.8829,0.8619,0.789,0.8112,0.8432,0.8706,0.8706,0.8961,0.0,4.0254,4.098,4.1632,3.9795,0.0,0.0,0.0,0.0,3.7896,3.8372,3.8633,3.8573,3.8277,3.8032,3.8032,3.7827,0.0,0.0,0.0,0.0,0.0,0.0,0.0,0.0,0.0,0.0,0.0,0.0,0.0,0.0,0.0,3.8193,3.7189,3.695,3.6766,3.6691,3.647,3.647,3.6675,3.6432,3.5706,3.4683,3.4391,0.0,0.0,0.0,0.0,0.0,3.0369,3.0544,3.0895,3.0895,3.1134,3.1527,3.1752,3.1836,3.1864,3.2103,3.1951,3.1539,3.1308,3.0188,2.8917,2.8721,2.722,2.55,2.4933,2.4603,2.4579,2.5084,2.5061,2.4992,2.5337,2.5015,2.4648,2.4648,2.4407,2.3655,2.1897,2.1354,2.0653,1.8834,1.8162,1.7717,1.7184,1.6927,1.6404,1.5193,1.463,1.3992,1.3068,1.2234,1.167,1.1326,1.1163,1.1003,1.0737,1.0791,1.0667,1.0233,1.025,1.0031,0.9501,0.9632,0.9434,0.8906,0.913,0.9346,0.9701,0.9701,0.9961,0.0,0.0,0.0,0.0,0.0,0.0,0.0,0.0,0.0,0.0,0.0,3.8147,3.8147,3.7809,3.7577,3.7594,3.7577,0.0,0.0,0.0,0.0,0.0,0.0,0.0,0.0,0.0,0.0,0.0,0.0,0.0,0.0,0.0,3.8408,3.8391,3.7855,3.7497,3.7404,3.6831,3.6831,3.7388,3.6702,3.5989,3.5282,3.4445,0.0,0.0,0.0,0.0,0.0,3.1485,3.1527,3.1555,3.1555,3.1583,3.1696,3.2258,3.2469,3.2553,3.3129,3.2639,3.1861,3.175,3.014,2.8042,2.7083,2.6697,2.642,2.5756,2.5268,2.5038,2.5578,2.5371,2.5027,2.5073,2.4682,2.4303,2.4303,2.4196,2.3711,2.2145,2.1548,2.0789,1.9011,1.8523,1.8143,1.7605,1.7466,1.7088,1.592,1.5718,1.5294,1.4238,1.3445,1.2866,1.2432,1.1645,1.1009,1.0761,1.0749,1.0641,1.0393,1.027,1.0245,1.0351,1.0251,1.0257,1.0387,1.0387,1.0387,1.0387,1.0457,1.071,0.0,0.0,3.8067,3.8912,0.0,0.0,0.0,0.0,0.0,0.0,0.0,3.7756,3.7559,3.7503,3.7429,3.7372,0.0,0.0,0.0,0.0,0.0,0.0,0.0,0.0,0.0,0.0,0.0,0.0,0.0,0.0,0.0,0.0,3.852,3.8391,3.823,3.8149,3.8149,3.797,3.797,3.8132,3.7297,3.6319,3.5212,3.433,0.0,0.0,0.0,0.0,3.1485,3.1485,3.1766,3.2188,3.2188,3.2483,3.2904,3.3059,3.3101,3.3129,3.3269,3.2918,3.2343,3.1324,3.0348,2.9365,2.8175,2.6663,2.529,2.473,2.4728,2.5038,2.5578,2.5899,2.6198,2.6588,2.6003,2.536,2.536,2.4498,2.334,2.2056,2.1173,2.0273,1.8896,1.8362,1.7992,1.7526,1.7466,1.7252,1.6725,1.6117,1.561,1.5302,1.4605,1.4019,1.3633,1.2045,1.1087,1.1021,1.1021,1.0991,1.093,1.0677,1.0568,1.0628,1.0568,1.0665,1.093,1.093,1.093,1.093,1.1516,1.1834,3.8077,3.7778,3.7478,3.8273,3.7907,0.0,0.0,0.0,0.0,0.0,0.0,0.0,3.7354,0.0,0.0,0.0,0.0,0.0,0.0,0.0,0.0,0.0,0.0,0.0,0.0,0.0,0.0,0.0,0.0,0.0,0.0,0.0,3.8448,3.8391,3.8391,3.8391,3.8391,3.8391,3.8391,3.8391,3.777,3.6808,3.5584,3.4895,0.0,0.0,0.0,0.0,3.2328,3.2328,3.2525,3.282,3.282,3.3031,3.3326,3.3326,3.3326,3.3326,3.3326,3.2945,3.229,3.1401,3.028,2.9124,2.8445,2.6899,2.5343,2.5528,2.5601,2.575,2.6278,2.6439,2.6531,2.6818,2.6094,2.5348,2.5348,2.474,2.3699,2.2077,2.1736,2.1076,1.9255,1.8705,1.8533,1.8336,1.7954,1.7723,1.7689,1.7125,1.6707,1.6533,1.5818,1.5211,1.479,1.3332,1.2357,1.2218,1.2211,1.2211,1.2211,1.1584,1.1078,1.0719,1.0966,1.1099,1.1111,1.1608,1.1759,1.1706,1.2512,1.2933,3.8478,3.8434,3.8377,3.8437,3.8135,3.7897,0.0,0.0,0.0,0.0,0.0,0.0,0.0,0.0,0.0,0.0,0.0,0.0,0.0,0.0,0.0,0.0,0.0,0.0,0.0,0.0,0.0,0.0,0.0,0.0,0.0,0.0,0.0,3.8391,3.8391,3.8391,3.8391,3.8391,3.8391,3.8335,3.7886,3.7115,3.5978,3.5434,3.4624,0.0,0.0,0.0,3.3326,3.3326,3.3326,3.3326,3.3326,3.3326,3.3326,3.3326,3.3326,3.3255,3.3171,3.266,3.2055,3.1629,3.0072,2.8393,2.8393,2.7257,2.6129,2.699,2.6864,2.6565,2.7001,2.6852,2.6588,2.6588,2.5853,2.5153,2.5153,2.499,2.4377,2.2363,2.2487,2.2177,1.9732,1.9348,1.9279,1.9127,1.8537,1.8211,1.8468,1.8228,1.7912,1.7595,1.6992,1.6434,1.5992,1.5079,1.4328,1.3925,1.3711,1.3609,1.3609,1.2704,1.1925,1.1197,1.1665,1.1808,1.1677,1.252,1.29,1.2655,1.3462,1.4156,3.8628,3.9525,4.0141,3.8958,3.8504,3.8396,0.0,0.0,0.0,0.0,0.0,0.0,0.0,0.0,0.0,0.0,0.0,0.0,0.0,0.0,0.0,0.0,0.0,0.0,0.0,0.0,0.0,0.0,0.0,0.0,0.0,0.0,0.0,3.8391,3.8391,3.8391,3.8391,3.8391,3.8262,3.7943,3.7175,3.6368,3.5449,3.4662,3.3962,0.0,0.0,3.3326,3.3326,3.3326,3.3326,3.3326,3.3326,3.3326,3.3326,3.3326,3.3326,3.3171,3.2503,3.22,3.1982,3.1347,3.0126,2.8959,2.8959,2.8056,2.7024,2.7185,2.6864,2.6485,2.6565,2.6852,2.7116,2.7116,2.6657,2.6221,2.6221,2.5655,2.461,2.3158,2.2601,2.1824,1.9996,1.9586,1.9321,1.88,1.8579,1.8408,1.8151,1.8074,1.8014,1.7954,1.7785,1.7632,1.725,1.7088,1.6671,1.5935,1.4637,1.3947,1.3947,1.3754,1.365,1.35,1.3593,1.3744,1.4036,1.4241,1.4311,1.4267,1.5026,1.5257,3.8942,3.9478,4.0041,4.0335,4.0419,0.0,0.0,0.0,0.0,0.0,0.0,0.0,0.0,0.0,0.0,0.0,0.0,0.0,0.0,0.0,0.0,0.0,0.0,0.0,0.0,0.0,0.0,0.0,0.0,0.0,0.0,0.0,0.0,0.0,3.8391,3.8335,3.8132,3.8132,3.8075,3.7886,3.689,3.6039,3.54,3.4476,3.3825,3.3326,0.0,3.3326,3.3326,3.3326,3.3326,3.3326,3.3326,3.3326,3.3241,3.3086,3.3016,3.286,3.2273,3.1982,3.1776,3.1421,3.033,2.9081,2.9081,2.8235,2.7231,2.7231,2.7059,2.6875,2.6875,2.7059,2.7231,2.7231,2.6841,2.6462,2.6462,2.6132,2.5322,2.3447,2.3276,2.2771,2.0485,2.0077,1.9913,1.9591,1.9162,1.8845,1.8674,1.8468,1.8254,1.8057,1.804,1.7963,1.7792,1.7341,1.6924,1.6335,1.5615,1.5056,1.4584,1.4805,1.4576,1.3971,1.437,1.4443,1.418,1.4982,1.5373,1.5181,1.5964,1.6119,3.9256,3.9562,4.0103,0.0,0.0,0.0,0.0,0.0,0.0,0.0,0.0,0.0,0.0,0.0,0.0,0.0,0.0,0.0,0.0,0.0,0.0,0.0,0.0,0.0,0.0,0.0,0.0,0.0,0.0,0.0,0.0,0.0,0.0,0.0,3.8335,3.8205,3.777,3.7695,3.7637,3.7669,3.6693,3.5879,3.527,3.4476,3.3825,3.3326,3.3326,3.3326,3.3326,3.3326,3.3326,3.3326,3.3326,3.3326,3.3241,3.2931,3.2775,3.2632,3.2273,3.1909,3.1556,3.1482,3.0406,2.9081,2.9081,2.8235,2.7231,2.7231,2.7231,2.7231,2.7231,2.7231,2.7231,2.7231,2.6932,2.6645,2.6645,2.6645,2.6108,2.4076,2.4179,2.3776,2.1379,2.0738,2.0554,2.0309,1.9763,1.9273,1.9187,1.8913,1.8579,1.8203,1.8168,1.8134,1.804,1.7368,1.6847,1.6583,1.6415,1.6118,1.5707,1.5931,1.5692,1.4766,1.517,1.5208,1.4885,1.5864,1.6332,1.6285,1.6859,1.6902,3.9483,4.0607,4.1538,4.0875,0.0,0.0,0.0,0.0,0.0,0.0,0.0,0.0,0.0,0.0,0.0,0.0,0.0,0.0,0.0,0.0,0.0,0.0,0.0,0.0,0.0,0.0,0.0,0.0,0.0,0.0,0.0,0.0,0.0,0.0,0.0,3.8091,3.7417,3.6935,3.6845,3.706,3.6476,3.5737,3.4942,3.4341,3.3825,3.3326,3.3326,3.3326,3.3326,3.3326,3.3326,3.3326,3.3326,3.3326,3.3326,3.3255,3.3016,3.2632,3.2273,3.1909,3.1556,3.1123,3.019,2.9081,2.9081,2.8235,2.7231,2.7231,2.7231,2.7231,2.7231,2.7231,2.7231,2.7231,2.7196,2.7174,2.7174,2.7174,2.6812,2.5815,2.5031,2.4049,2.2785,2.1649,2.0757,2.0183,1.9823,1.9573,1.9222,1.9144,1.8982,1.8588,1.8545,1.8408,1.8066,1.761,1.7342,1.7317,1.6597,1.6561,1.7267,1.7346,1.7346,1.7267,1.6893,1.6979,1.7705,1.7415,1.7496,1.7874,1.7874,1.7527,3.9577,4.0727,4.1827,0.0,0.0,0.0,0.0,0.0,0.0,0.0,0.0,0.0,0.0,0.0,0.0,0.0,0.0,0.0,0.0,0.0,0.0,0.0,0.0,0.0,0.0,0.0,0.0,0.0,0.0,0.0,0.0,0.0,0.0,0.0,0.0,3.7902,3.7401,3.6997,3.6646,3.6211,3.5335,3.4743,3.4409,3.3825,3.3507,3.3326,3.3326,3.3326,3.3326,3.3326,3.3326,3.3326,3.3326,3.3326,3.3255,3.3016,3.2632,3.2273,3.1909,3.1556,3.1198,3.1061,3.0432,2.9561,2.9238,2.8474,2.7696,2.7313,2.7231,2.7231,2.7231,2.7231,2.7231,2.7231,2.7231,2.7231,2.7231,2.7231,2.6798,2.5253,2.4744,2.3973,2.2157,2.1356,2.0863,2.0552,2.0266,1.9949,1.9573,1.953,1.9384,1.899,1.8733,1.8539,1.8305,1.7929,1.7813,1.8052,1.7351,1.7105,1.7426,1.7426,1.7266,1.7016,1.6855,1.692,1.7221,1.731,1.7753,1.8374,1.8143,1.7677,3.9596,4.0514,4.1538,0.0,0.0,0.0,0.0,0.0,0.0,0.0,0.0,0.0,0.0,0.0,0.0,0.0,0.0,0.0,0.0,0.0,0.0,0.0,0.0,0.0,0.0,0.0,0.0,0.0,0.0,0.0,0.0,0.0,0.0,0.0,0.0,3.7313,3.7118,3.6846,3.6274,3.5415,3.4677,3.4274,3.407,3.3577,3.3326,3.3326,3.3326,3.3326,3.3326,3.3326,3.3326,3.3326,3.3326,3.3326,3.3241,3.286,3.2417,3.2055,3.1703,3.1347,3.0986,3.0986,3.0432,2.9639,2.9238,2.8554,2.7777,2.7313,2.7231,2.7231,2.7231,2.7231,2.7231,2.7231,2.7231,2.7231,2.7231,2.7231,2.6798,2.56,2.4925,2.4069,2.2599,2.1722,2.1006,2.0826,2.0555,2.0288,1.9949,1.9915,1.9769,1.9393,1.9007,1.8795,1.8715,1.8489,1.8456,1.8715,1.8263,1.7937,1.7811,1.7531,1.7229,1.6902,1.682,1.6868,1.7054,1.7384,1.7987,1.8768,1.8511,1.8029,3.9495,4.0042,0.0,0.0,0.0,0.0,0.0,0.0,0.0,0.0,0.0,0.0,0.0,0.0,0.0,0.0,0.0,0.0,0.0,0.0,0.0,0.0,0.0,0.0,0.0,0.0,0.0,0.0,0.0,0.0,0.0,0.0,0.0,0.0,0.0,0.0,3.6476,3.6274,3.5721,3.4876,3.4876,3.461,3.407,3.3577,3.3312,3.3326,3.3326,3.3312,3.3326,3.3326,3.3326,3.3326,3.3326,3.3326,3.3241,3.286,3.2417,3.2055,3.1703,3.1347,3.0986,3.0986,3.0114,2.9081,2.9081,2.8235,2.7231,2.7231,2.7231,2.7231,2.7231,2.7231,2.7231,2.7231,2.7231,2.7231,2.7231,2.7231,2.7231,2.7149,2.5779,2.4498,2.4498,2.2775,2.1302,2.0997,2.0826,2.0564,2.0292,2.0292,2.0155,1.9787,1.941,1.9179,1.9187,1.9187,1.9179,1.9187,1.9187,1.8999,1.8605,1.7836,1.74,1.74,1.691,1.707,1.7912,1.7912,1.8364,1.9179,1.917,1.874,3.9444,4.0784,0.0,0.0,0.0,0.0,0.0,0.0,0.0,0.0,0.0,0.0,0.0,0.0,0.0,0.0,0.0,0.0,0.0,0.0,0.0,0.0,0.0,0.0,0.0,0.0,0.0,0.0,0.0,0.0,0.0,0.0,0.0,0.0,0.0,0.0,3.5569,3.517,3.4955,3.4876,3.4807,3.4514,3.407,3.4356,3.4235,3.3894,3.3894,3.3632,3.3326,3.3326,3.3326,3.3326,3.3326,3.3326,3.3241,3.286,3.2417,3.2055,3.1703,3.1347,3.1061,3.1347,3.096,3.0343,2.9716,2.9081,2.8395,2.7464,2.7231,2.7231,2.7231,2.7231,2.7231,2.7231,2.7231,2.7231,2.7231,2.7231,2.6962,2.6351,2.5757,2.4978,2.3704,2.2833,2.205,2.1168,2.0826,2.0564,2.0292,2.0292,2.0249,2.0138,1.9795,1.9675,1.9941,1.9718,1.9684,1.9949,1.9718,1.9401,1.9016,1.8464,1.7981,1.7725,1.7555,1.761,1.787,1.8128,1.8757,1.9573,1.9299,1.8787,3.985,0.0,0.0,0.0,0.0,0.0,0.0,0.0,0.0,0.0,0.0,0.0,0.0,0.0,0.0,0.0,0.0,0.0,0.0,0.0,0.0,0.0,0.0,0.0,0.0,0.0,0.0,0.0,0.0,0.0,0.0,0.0,0.0,0.0,0.0,0.0,3.4925,3.4937,3.4897,3.4832,3.5223,3.5026,3.4409,3.4543,3.4423,3.407,3.3894,3.3577,3.3326,3.3326,3.3326,3.3326,3.3326,3.3326,3.3241,3.2646,3.2417,3.2273,3.1776,3.1408,3.1272,3.1482,3.1022,3.0114,2.9626,2.8937,2.8155,2.7383,2.7231,2.7231,2.7231,2.7231,2.7231,2.7231,2.7231,2.7231,2.7231,2.7231,2.7056,2.6445,2.608,2.5484,2.4372,2.378,2.3086,2.2129,2.1436,2.0826,2.0382,2.0292,2.0292,2.0292,2.0095,2.0052,2.0275,2.0086,2.0061,2.0275,2.0078,1.9855,1.9624,1.8891,1.8387,1.8118,1.8127,1.8199,1.8345,1.8783,1.9326,1.9958,1.9727,1.9381,0.0,0.0,0.0,0.0,0.0,0.0,0.0,0.0,0.0,0.0,0.0,0.0,0.0,0.0,0.0,0.0,0.0,0.0,0.0,0.0,0.0,0.0,0.0,0.0,0.0,0.0,0.0,0.0,0.0,0.0,0.0,0.0,0.0,0.0,0.0,0.0,3.4309,3.4983,3.5064,0.0,3.5813,3.5867,3.4868,3.4447,3.4206,3.4085,3.3507,3.3326,3.3326,3.3326,3.3326,3.3326,3.3326,3.3326,3.3241,3.2431,3.2417,3.2632,3.1909,3.1629,3.1629,3.1703,3.062,2.9238,2.9238,2.8303,2.7313,2.7231,2.7231,2.7231,2.7231,2.7231,2.7231,2.7231,2.7231,2.7231,2.7231,2.7231,2.7231,2.7231,2.6528,2.5913,2.5819,2.5073,2.4231,2.3347,2.2217,2.1087,2.0382,2.0382,2.0382,2.0292,2.0292,2.0292,2.0292,2.0292,2.0292,2.0292,2.0292,2.0292,2.0292,1.928,1.8659,1.8572,1.8659,1.8825,1.9173,1.9529,1.9966,2.0292,2.0292,2.0011,0.0,0.0,0.0,0.0,0.0,0.0,0.0,0.0,0.0,0.0,0.0,0.0,0.0,0.0,0.0,0.0,0.0,0.0,0.0,0.0,0.0,0.0,0.0,0.0,0.0,0.0,0.0,0.0,0.0,0.0,0.0,0.0,0.0,0.0,0.0,3.3023,3.3002,3.3594,3.3872,0.0,3.511,3.537,3.473,3.519,3.4876,3.4085,3.3507,3.3326,3.3326,3.3326,3.3326,3.3326,3.3326,3.3326,3.3241,3.2775,3.2632,3.2632,3.2128,3.1982,3.2055,3.2345,3.1502,3.0228,3.005,2.9069,2.7857,2.7383,2.7231,2.7231,2.7231,2.7231,2.7231,2.7231,2.7231,2.7231,2.7231,2.7231,2.7231,2.7231,2.7056,2.6704,2.5913,2.5348,2.4402,2.2394,2.1704,2.1087,2.0382,2.0826,2.0916,2.0382,2.0292,2.0292,2.0292,2.0292,2.0292,2.0292,2.0292,2.0292,2.0292,2.0039,1.9774,1.9405,1.9684,1.9816,1.953,1.9991,2.0215,2.0292,2.0292,1.9828,0.0,0.0,0.0,0.0,0.0,0.0,0.0,0.0,0.0,0.0,0.0,0.0,0.0,0.0,0.0,0.0,0.0,0.0,0.0,0.0,0.0,0.0,0.0,0.0,0.0,0.0,0.0,0.0,0.0,0.0,0.0,0.0,0.0,0.0,3.2958,3.3116,3.2965,3.3943,3.445,3.4577,3.5508,3.5567,3.4778,3.486,3.4491,3.3701,3.3452,3.3326,3.3326,3.3326,3.3326,3.3326,3.3326,3.3326,3.3241,3.286,3.2846,3.2931,3.2561,3.2417,3.2417,3.2632,3.1723,3.0532,3.0139,2.916,2.8099,2.7383,2.7231,2.7231,2.7231,2.7231,2.7231,2.7231,2.7231,2.7231,2.7231,2.7231,2.7231,2.7231,2.7231,2.7056,2.6528,2.5957,2.502,2.3424,2.2755,2.198,2.1006,2.1177,2.1087,2.0382,2.0292,2.0292,2.0292,2.0292,2.0292,2.0292,2.0292,2.0464,2.0826,2.0826,2.0555,1.992,2.0201,2.0201,1.992,2.0201,2.0292,2.0292,2.0292,2.0019,0.0,0.0,0.0,0.0,0.0,0.0,0.0,0.0,0.0,0.0,0.0,0.0,0.0,0.0,0.0,0.0,0.0,0.0,0.0,0.0,0.0,0.0,0.0,0.0,0.0,0.0,0.0,0.0,0.0,0.0,0.0,0.0,3.2843,3.2843,3.3187,3.3398,3.3398,3.4783,3.5414,3.5306,3.5799,3.5582,3.4743,3.4221,3.3701,3.3326,3.3326,3.3326,3.3326,3.3326,3.3326,3.3326,3.3326,3.3326,3.3241,3.2931,3.3016,3.3241,3.2931,3.2775,3.2775,3.2775,3.1882,3.0607,2.9999,2.9081,2.8099,2.7383,2.7231,2.7231,2.7231,2.7231,2.7231,2.7231,2.7231,2.7231,2.7231,2.7231,2.7231,2.7231,2.7231,2.7149,2.6985,2.6302,2.5443,2.4723,2.3983,2.3047,2.1704,2.1713,2.1445,2.0736,2.0645,2.0645,2.0645,2.0645,2.0645,2.0645,2.0645,2.0907,2.1526,2.1445,2.1087,2.0464,2.0473,2.0473,2.0292,2.0292,2.0292,2.0292,2.0292,2.0292,0.0,0.0,0.0,0.0,0.0,0.0,0.0,0.0,0.0,0.0,0.0,0.0,0.0,0.0,0.0,0.0,0.0,0.0,0.0,0.0,0.0,0.0,0.0,0.0,0.0,0.0,0.0,0.0,0.0,0.0,0.0,3.2648,3.2453,3.2453,3.3059,3.3398,3.3398,3.4783,3.5183,3.4614,3.4388,3.42,3.4206,3.3632,3.3382,3.3326,3.3326,3.3326,3.3326,3.3326,3.3326,3.3326,3.3326,3.3326,3.3326,3.3241,3.3241,3.3326,3.3241,3.3241,3.3241,3.3241,3.2245,3.1031,3.043,2.9303,2.8099,2.7383,2.7231,2.7231,2.7231,2.7231,2.7231,2.7231,2.7231,2.7231,2.7231,2.7231,2.7231,2.7231,2.7231,2.6985,2.6229,2.5432,2.4648,2.3831,2.358,2.3222,2.2403,2.2862,2.296,2.2227,2.2129,2.2129,2.2129,2.2129,2.2129,2.2129,2.2129,2.2138,2.2217,2.1704,2.1356,2.1266,2.1266,2.0916,2.0292,2.0292,2.0292,2.0292,2.0292,2.0102,0.0,0.0,0.0,0.0,0.0,0.0,0.0,0.0,0.0,0.0,0.0,0.0,0.0,0.0,0.0,0.0,0.0,0.0,0.0,0.0,0.0,0.0,0.0,0.0,0.0,0.0,0.0,0.0,0.0,3.2648,3.2648,3.2823,3.2952,3.2952,3.3998,3.4383,3.3998,3.5368,3.5769,3.5155,3.4718,3.4332,3.407,3.3577,3.3326,3.3326,3.3326,3.3326,3.3326,3.3326,3.3326,3.3326,3.3326,3.3326,3.3326,3.3326,3.3326,3.3326,3.3326,3.3326,3.3326,3.3326,3.2704,3.1856,3.082,2.9768,2.8779,2.7684,2.7301,2.7231,2.7231,2.7231,2.7231,2.7231,2.7231,2.7231,2.7231,2.7231,2.7231,2.7231,2.7231,2.7067,2.6727,2.6102,2.5589,2.4956,2.4615,2.409,2.3125,2.3319,2.3222,2.2482,2.2394,2.2394,2.2394,2.2394,2.2394,2.2394,2.2394,2.258,2.3038,2.2687,2.2608,2.2608,2.1802,2.1006,2.0292,2.0736,2.0736,2.0292,2.0292,2.0201,0.0,0.0,0.0,0.0,0.0,0.0,0.0,0.0,0.0,0.0,0.0,0.0,0.0,0.0,0.0,0.0,0.0,0.0,0.0,0.0,0.0,0.0,0.0,0.0,0.0,0.0,0.0,0.0,0.0,3.2398,3.2398,3.3044,3.3398,3.3398,3.4583,3.5076,3.4737,3.5907,3.6148,3.5479,3.5073,3.4558,3.3894,3.3507,3.3326,3.3326,3.3326,3.3326,3.3326,3.3326,3.3326,3.3326,3.3326,3.3326,3.3326,3.3326,3.3326,3.3326,3.3326,3.3326,3.3326,3.3326,3.3016,3.2403,3.1057,3.0152,2.9394,2.7914,2.7371,2.7231,2.7231,2.7231,2.7231,2.7231,2.7231,2.7231,2.7231,2.7334,2.738,2.7254,2.7438,2.7481,2.7261,2.7092,2.6741,2.6341,2.5807,2.5135,2.4273,2.3921,2.357,2.3018,2.2931,2.2931,2.2931,2.2931,2.2979,2.3086,2.3095,2.3418,2.4085,2.3909,2.3821,2.3821,2.2824,2.1816,2.0817,2.1177,2.114,2.0702,2.0529,2.0489,0.0,0.0,0.0,0.0,0.0,0.0,0.0,0.0,0.0,0.0,0.0,0.0,0.0,0.0,0.0,0.0,0.0,0.0,0.0,0.0,0.0,0.0,0.0,0.0,0.0,0.0,0.0,0.0,0.0,3.2398,3.2398,3.3044,3.3398,3.3398,3.4137,3.4814,3.5414,3.6138,3.5958,3.4942,3.4876,3.4356,3.3312,3.3312,3.3326,3.3326,3.3326,3.3326,3.3326,3.3326,3.3326,3.3326,3.3326,3.3326,3.3326,3.3326,3.3326,3.3326,3.3326,3.3326,3.3326,3.3326,3.3016,3.2403,3.1057,3.0152,2.9394,2.7914,2.7371,2.7231,2.7231,2.7231,2.7231,2.7231,2.7231,2.7231,2.7231,2.761,2.7805,2.7323,2.7989,2.8385,2.7471,2.7723,2.7863,2.7404,2.6519,2.5902,2.5902,2.5079,2.4454,2.4368,2.4368,2.4368,2.4368,2.4368,2.4553,2.4995,2.5016,2.5289,2.5792,2.5068,2.4693,2.4693,2.4693,2.3826,2.2306,2.1704,2.1545,2.1832,2.1119,2.1028,0.0,0.0,0.0,0.0,0.0,0.0,0.0,0.0,0.0,0.0,0.0,0.0,0.0,0.0,0.0,0.0,0.0,0.0,0.0,0.0,0.0,0.0,0.0,0.0,0.0,0.0,0.0,0.0,0.0,0.0,3.3013,3.3706,3.4291,3.4722,3.5414,3.5891,3.6122,3.5507,3.5108,3.4876,3.4876,3.437,3.3326,3.3326,3.3326,3.3326,3.3326,3.3326,3.3326,3.3326,3.3326,3.3326,3.3326,3.3326,3.3326,3.3326,3.3326,3.3326,3.3326,3.3326,3.3326,3.3326,3.3171,3.286,3.1869,3.0882,2.9909,2.8834,2.7926,2.7231,2.7231,2.7231,2.7311,2.7633,2.7713,2.7793,2.8103,2.8069,2.7931,2.7748,2.8253,2.8545,2.8288,2.8327,2.8366,2.793,2.7261,2.6713,2.6437,2.5518,2.4985,2.4985,2.4716,2.4664,2.4964,2.4705,2.4861,2.5595,2.5388,2.543,2.5854,2.5694,2.5502,2.5502,2.5502,2.4796,2.33,2.3035,2.2658,2.2339,2.1595,2.1293,0.0,0.0,0.0,0.0,0.0,0.0,0.0,0.0,0.0,0.0,0.0,0.0,0.0,0.0,0.0,0.0,0.0,0.0,0.0,0.0,0.0,0.0,0.0,0.0,0.0,0.0,0.0,0.0,0.0,0.0,3.3383,3.4291,3.5014,3.5476,3.6138,3.6384,3.6153,3.5476,3.5078,3.4876,3.4876,3.437,3.3326,3.3326,3.3326,3.3326,3.3326,3.3326,3.3326,3.3326,3.3326,3.3326,3.3326,3.3326,3.3326,3.3326,3.3326,3.3326,3.3326,3.3326,3.3326,3.3326,3.3326,3.3171,3.2318,3.1402,3.043,2.9601,2.8462,2.7545,2.7545,2.751,2.7564,2.7897,2.8103,2.831,2.8632,2.8586,2.8436,2.8253,2.8758,2.916,2.8999,2.9102,2.9041,2.8611,2.8022,2.7366,2.6907,2.5988,2.5451,2.5451,2.5171,2.5109,2.542,2.5171,2.5306,2.6061,2.5844,2.5885,2.632,2.6341,2.6341,2.6341,2.6341,2.5869,2.4928,2.4085,2.3551,2.3116,2.2075,2.167,0.0,0.0,0.0,0.0,0.0,0.0,0.0,0.0,0.0,0.0,0.0,0.0,0.0,0.0,0.0,0.0,0.0,0.0,0.0,0.0,0.0,0.0,0.0,0.0,0.0,0.0,0.0,0.0,0.0,3.3444,3.346,3.4768,3.5507,3.5507,3.6122,3.6153,3.5522,3.6138,3.5928,3.4876,3.4876,3.437,3.3326,3.3326,3.3326,3.3326,3.3326,3.3326,3.3326,3.3326,3.3326,3.3326,3.3326,3.3326,3.3326,3.3326,3.3326,3.3326,3.3326,3.3326,3.3326,3.3326,3.3326,3.3157,3.239,3.1709,3.1018,3.0215,2.916,2.8179,2.8191,2.8105,2.8,2.8023,2.8379,2.8723,2.8746,2.9148,2.9355,2.8827,2.9527,3.0067,2.9596,2.9906,3.0034,2.9577,2.8719,2.7945,2.7398,2.654,2.5896,2.5896,2.5885,2.5885,2.5896,2.5885,2.6082,2.6558,2.6579,2.6775,2.7241,2.7262,2.7262,2.7262,2.7262,2.7262,2.7262,2.4957,2.3909,2.4183,2.2673,2.221,3.6869,0.0,0.0,0.0,0.0,0.0,0.0,0.0,0.0,0.0,0.0,0.0,0.0,0.0,0.0,0.0,0.0,0.0,0.0,0.0,0.0,0.0,0.0,0.0,0.0,0.0,0.0,0.0,3.446,3.4398,3.4876,3.5737,3.6215,3.6215,3.5922,3.5907,3.6215,3.5922,3.5472,3.4876,3.4876,3.437,3.3326,3.3326,3.3326,3.3326,3.3326,3.3326,3.3326,3.3326,3.3326,3.3326,3.3326,3.3326,3.3326,3.3326,3.3326,3.3326,3.3326,3.3326,3.3326,3.3326,3.3326,3.3171,3.2704,3.1928,3.1106,3.0594,2.9394,2.8182,2.8081,2.8295,2.8597,2.8987,2.9183,2.9378,2.9722,2.9917,2.9871,2.9378,2.9791,3.017,3.0044,3.0124,3.0034,2.9577,2.8995,2.8354,2.7889,2.7022,2.6382,2.6382,2.6082,2.602,2.6351,2.6072,2.6216,2.7024,2.6755,2.6775,2.7241,2.7262,2.7262,2.7262,2.7262,2.7262,2.7262,2.6044,2.5198,2.4714,2.3169,2.2449,0.0,0.0,0.0,0.0,0.0,0.0,0.0,3.9101,0.0,0.0,0.0,0.0,0.0,0.0,0.0,0.0,0.0,0.0,0.0,0.0,0.0,0.0,0.0,0.0,0.0,0.0,0.0,3.5891,3.5014,3.4768,3.5445,3.5861,3.6076,3.6076,3.5968,3.6091,3.6492,3.6107,3.5563,3.4876,3.4876,3.437,3.3326,3.3326,3.3326,3.3326,3.3326,3.3326,3.3326,3.3326,3.3326,3.3326,3.3326,3.3326,3.3326,3.3326,3.3326,3.3326,3.3326,3.3326,3.3326,3.3326,3.3171,3.3016,3.2775,3.2101,3.1294,3.1071,3.0035,2.8733,2.8147,2.8505,2.9114,2.9424,2.9653,2.9871,3.0158,3.0216,3.0135,2.9848,3.0021,3.0285,3.0514,3.0365,3.0011,2.958,2.9053,2.8445,2.7809,2.7202,2.6858,2.6858,2.661,2.6558,2.6837,2.661,2.6682,2.7231,2.7179,2.7251,2.7521,2.7717,2.7728,2.7541,2.7728,2.7821,2.7821,2.6667,2.5499,2.4402,2.3529,2.2932,0.0,0.0,0.0,0.0,0.0,0.0,3.8434,3.858,3.857,0.0,0.0,0.0,0.0,0.0,0.0,0.0,0.0,0.0,0.0,0.0,0.0,0.0,0.0,0.0,0.0,3.6507,3.5953,3.6553,3.5353,3.4845,3.5445,3.5476,3.5476,3.5476,3.6138,3.6492,3.6492,3.6492,3.5958,3.4876,3.4876,3.437,3.3326,3.3326,3.3326,3.3326,3.3326,3.3326,3.3326,3.3326,3.3326,3.3326,3.3326,3.3326,3.3326,3.3326,3.3326,3.3326,3.3326,3.3326,3.3326,3.3326,3.3016,3.2704,3.2632,3.2128,3.1569,3.1487,3.0687,2.9634,2.8463,2.8861,2.9573,2.9573,2.9906,3.0216,3.0216,3.0216,3.0227,3.0296,3.0308,3.0457,3.0939,3.0618,3.0067,2.9525,2.9019,2.8384,2.7514,2.7293,2.7282,2.7324,2.7334,2.7334,2.7334,2.7376,2.7407,2.7407,2.7779,2.7997,2.7997,2.839,2.8421,2.8007,2.8411,2.8618,2.8618,2.6959,2.5498,2.4162,2.4063,2.3749,0.0,0.0,0.0,0.0,0.0,0.0,3.7298,3.7291,3.7449,0.0,0.0,0.0,0.0,0.0,0.0,0.0,0.0,0.0,0.0,0.0,0.0,0.0,0.0,0.0,0.0,3.7908,3.7153,3.7292,3.6045,3.5337,3.5476,3.5476,3.5476,3.5476,3.6138,3.6492,3.6492,3.6492,3.5958,3.4876,3.4876,3.437,3.3326,3.3326,3.3326,3.3326,3.3326,3.3326,3.3326,3.3326,3.3326,3.3326,3.3326,3.3326,3.3326,3.3326,3.3326,3.3326,3.3326,3.3326,3.3326,3.3326,3.3016,3.2632,3.2345,3.1909,3.1426,3.0504,3.0,2.9689,2.9265,2.963,3.0078,3.0078,3.0147,3.0216,3.0216,3.0216,3.0342,3.0778,3.0859,3.0893,3.0996,3.0928,3.0373,2.9107,2.8801,2.8513,2.7845,2.7479,2.7396,2.7759,2.779,2.779,2.779,2.8131,2.8349,2.8349,2.8431,2.8483,2.8483,2.8566,2.8566,2.8483,2.8566,2.8618,2.8618,2.7281,2.6705,2.6627,2.612,2.575,0.0,0.0,0.0,3.8563,0.0,0.0,0.0,3.6337,3.5961,3.6586,0.0,0.0,0.0,0.0,0.0,0.0,0.0,0.0,0.0,0.0,0.0,0.0,0.0,0.0,0.0,3.8129,3.6722,3.6045,3.5984,3.5537,3.4506,3.543,3.5676,3.4999,3.5968,3.6492,3.6492,3.6226,3.5688,3.4876,3.461,3.4099,3.3326,3.3326,3.3326,3.3326,3.3326,3.3326,3.3326,3.3326,3.3326,3.3326,3.3326,3.3326,3.3326,3.3326,3.3326,3.3326,3.3326,3.3326,3.3255,3.3086,3.2717,3.2345,3.1982,3.1394,3.0687,3.0089,2.983,2.9697,2.9542,2.986,3.0216,3.0216,3.0216,3.0216,3.0216,3.0216,3.0445,3.1237,3.1192,3.11,3.1341,3.0962,3.033,2.9564,2.9272,2.8833,2.8031,2.7767,2.762,2.7562,2.8091,2.8132,2.7614,2.8421,2.8812,2.8276,2.87,2.8959,2.8959,2.9177,2.9301,2.9301,2.8845,2.8835,2.9301,2.8441,2.7804,2.7389,2.6982,2.6473,0.0,0.0,0.0,0.0,0.0,3.6874,0.0,0.0,0.0,3.5037,0.0,0.0,0.0,0.0,0.0,0.0,0.0,0.0,0.0,0.0,0.0,0.0,0.0,0.0,0.0,3.8132,3.6322,3.4968,3.5753,3.5507,3.3706,3.5199,3.5599,3.4506,3.5784,3.6492,3.6492,3.5958,3.5415,3.4876,3.4341,3.3825,3.3326,3.3326,3.3326,3.3326,3.3326,3.3326,3.3326,3.3326,3.3326,3.3326,3.3326,3.3326,3.3326,3.3326,3.3326,3.3326,3.3241,3.3171,3.3086,3.2704,3.2427,3.2058,3.1596,3.0877,3.0131,3.0208,2.9987,2.9679,2.9769,3.0019,3.0216,3.0216,3.0216,3.0216,3.0216,3.0296,3.0652,3.1582,3.1433,3.1283,3.1697,3.0996,3.0331,3.0169,2.9889,2.942,2.8655,2.8507,2.8306,2.8019,2.8764,2.8828,2.7965,2.8993,2.932,2.8349,2.9021,2.9435,2.9435,2.9798,2.9994,2.9994,2.9259,2.9249,2.9994,2.9622,2.8932,2.7851,2.7749,2.7101,0.0,0.0,0.0,0.0,3.836,0.0,0.0,0.0,3.6815,3.5894,0.0,0.0,0.0,0.0,0.0,0.0,0.0,0.0,0.0,0.0,0.0,0.0,0.0,0.0,0.0,0.0,3.7723,3.6368,3.5845,3.523,3.4398,3.4568,3.4629,3.4475,3.5784,3.6492,3.6492,3.5958,3.5415,3.4876,3.4341,3.3825,3.3326,3.3326,3.3326,3.3326,3.3326,3.3326,3.3326,3.3326,3.3326,3.3326,3.3326,3.3326,3.3326,3.3326,3.3326,3.3241,3.286,3.2775,3.2704,3.2273,3.2273,3.2235,3.1356,3.0879,3.0778,3.1286,3.0531,2.9781,3.0814,3.0633,3.0216,3.0216,3.0216,3.0216,3.0216,3.0583,3.1088,3.1628,3.1685,3.1674,3.1754,3.1295,3.0753,3.0225,3.018,3.027,3.0537,3.0286,3.0188,3.0415,3.0602,3.0413,2.9849,3.0327,3.0409,2.9766,2.986,2.9922,2.9922,2.9973,2.9994,2.9994,2.9891,2.9891,2.9994,2.9942,2.9891,2.9735,2.8866,2.8463,0.0,0.0,0.0,0.0,0.0,0.0,0.0,0.0,3.6102,0.0,0.0,0.0,0.0,0.0,0.0,0.0,0.0,0.0,0.0,0.0,0.0,0.0,0.0,0.0,0.0,0.0,0.0,0.0,0.0,3.4829,3.3336,3.4414,3.4876,3.4491,3.5784,3.6492,3.6492,3.5688,3.5154,3.4876,3.4031,3.3507,3.3326,3.3326,3.3326,3.3326,3.3326,3.3326,3.3326,3.3326,3.3326,3.3326,3.3326,3.3326,3.3326,3.3326,3.3326,3.3241,3.2846,3.2938,3.3166,3.2928,3.2678,3.2514,3.2123,3.1662,3.1449,3.2022,3.144,3.0901,3.1668,3.1371,3.0847,3.0847,3.0731,3.0675,3.0675,3.1088,3.1593,3.2076,3.1949,3.1846,3.2133,3.1777,3.135,3.1149,3.1149,3.1106,3.0918,3.0796,3.0654,3.057,3.1031,3.1086,3.0307,3.0878,3.0884,3.0105,3.0047,2.9994,2.9994,2.9994,2.9994,2.9994,2.9994,3.0129,3.0398,3.0129,3.0129,3.0387,2.9242,2.8688,4.0716,0.0,0.0,0.0,0.0,0.0,0.0,0.0,0.0,0.0,0.0,0.0,0.0,0.0,0.0,0.0,0.0,0.0,0.0,0.0,0.0,0.0,0.0,0.0,0.0,0.0,0.0,0.0,3.5199,3.4752,3.3059,3.4398,3.5076,3.4752,3.5891,3.6492,3.6492,3.5415,3.4876,3.489,3.3839,3.3326,3.3326,3.3326,3.3326,3.3326,3.3326,3.3326,3.3326,3.3326,3.3326,3.3326,3.3326,3.3326,3.3326,3.3326,3.3424,3.3494,3.2966,3.306,3.3363,3.3194,3.3054,3.2908,3.2738,3.2507,3.2326,3.2733,3.2315,3.1872,3.24,3.2031,3.1454,3.1427,3.1309,3.1215,3.1215,3.1616,3.2064,3.242,3.2317,3.2294,3.265,3.2179,3.1812,3.1949,3.1961,3.191,3.166,3.1671,3.1476,3.1194,3.1802,3.1771,3.0712,3.1225,3.1159,3.0102,3.0005,2.9994,2.9994,2.9994,3.0056,3.018,3.018,3.0346,3.0688,3.0346,3.0294,3.0491,2.9273,2.8581,0.0,0.0,0.0,4.0267,0.0,0.0,0.0,0.0,3.7212,0.0,0.0,0.0,0.0,0.0,0.0,0.0,0.0,0.0,0.0,0.0,0.0,0.0,0.0,0.0,0.0,0.0,0.0,3.5553,3.5476,3.5168,3.4445,3.4475,3.4799,3.543,3.6122,3.6492,3.6492,3.5415,3.4876,3.489,3.3839,3.3326,3.3326,3.3326,3.3326,3.3326,3.3326,3.3326,3.3326,3.3326,3.3326,3.3326,3.3326,3.3326,3.3326,3.3326,3.3691,3.4052,3.3293,3.2858,3.2738,3.2685,3.3091,3.3456,3.2868,3.298,3.3416,3.3485,3.2929,3.2412,3.2901,3.2485,3.1979,3.1771,3.1826,3.1743,3.1743,3.2121,3.2466,3.2489,3.2891,3.3247,3.3258,3.2431,3.1926,3.2397,3.2466,3.265,3.3166,3.3235,3.3235,3.3235,3.3247,3.2835,3.1677,3.1607,3.1105,3.0078,2.9984,2.9994,2.9994,2.9994,3.0212,3.0657,3.0667,3.0667,3.0688,3.0667,3.0439,3.0015,2.9132,2.8252,0.0,0.0,4.0172,4.023,0.0,0.0,0.0,0.0,0.0,0.0,0.0,0.0,0.0,0.0,0.0,0.0,0.0,0.0,0.0,0.0,0.0,0.0,0.0,0.0,0.0,0.0,0.0,3.4891,3.4383,3.3814,0.0,3.3967,3.4568,3.4799,3.5907,3.6352,3.5958,3.5285,3.4743,3.4341,3.3632,3.3326,3.3326,3.3326,3.3326,3.3326,3.3326,3.3326,3.3326,3.3326,3.3326,3.3326,3.3326,3.3326,3.3326,3.3326,3.3452,3.3676,3.3886,3.3873,3.3741,3.4192,3.4212,3.4084,3.3888,3.3931,3.4108,3.4092,3.3907,3.3738,3.3943,3.3308,3.275,3.2671,3.25,3.2236,3.2236,3.265,3.3017,3.3017,3.3166,3.3281,3.3281,3.3005,3.2833,3.2994,3.3017,3.3074,3.3258,3.3281,3.3281,3.3281,3.3281,3.3181,3.2768,3.2037,3.1116,3.0099,2.9994,2.9994,2.9994,3.0294,3.0532,3.0688,3.0988,3.1143,3.1143,3.0833,3.0605,3.045,2.9813,2.9122,4.0888,4.0566,0.0,4.0514,3.9539,0.0,3.8798,0.0,0.0,0.0,0.0,0.0,0.0,0.0,0.0,0.0,0.0,0.0,0.0,0.0,0.0,0.0,0.0,0.0,0.0,0.0,3.5091,3.4168,3.366,3.3213,0.0,0.0,3.4583,3.4829,3.5722,3.6022,3.5688,3.4942,3.4409,3.407,3.3577,3.3326,3.3326,3.3326,3.3326,3.3326,3.3326,3.3326,3.3326,3.3326,3.3326,3.3326,3.3326,3.3452,3.3649,3.3649,3.3772,3.4144,3.4934,3.492,3.4579,3.4952,3.4825,3.4397,3.4397,3.4397,3.4437,3.4659,3.4724,3.4718,3.4865,3.454,3.4049,3.3973,3.36,3.3133,3.3133,3.3226,3.3281,3.3281,3.3281,3.3281,3.3281,3.3281,3.3281,3.3281,3.3281,3.3281,3.3281,3.3281,3.3281,3.3281,3.3281,3.3181,3.2958,3.2139,3.1208,3.0297,3.0444,3.0443,3.0243,3.0688,3.1008,3.1164,3.1464,3.1536,3.1381,3.1081,3.076,3.0429,3.0129,2.9554]}]]